[[{"header":{"parameterUnit":"m.s-1","parameterCategory":1,"la1":31.0,"la2":29.5877,"lo1":-88.7671,"lo2":-86.6584,"dy":0.0162,"dx":0.0185,"nx":115,"ny":88,"refTime":"2023-09-30T18:00:00:Z","depth":0,"parameterNumber":2,"parameterNumberName":"U-component_of_WINDS"},"data":[0.0,0.0,0.0,0.0,0.0,0.0,0.0,0.0,0.0,0.0,0.0,0.0,0.0,0.0,0.0,0.0,0.0,0.0,0.0,0.0,0.0,0.0,0.0,0.0,0.0,0.0,0.0,0.0,0.0,0.0,0.0,0.0,0.0,0.0,0.0,0.0,0.0,0.0,0.0,0.0,0.0,0.0,0.0,0.0,0.0,0.0,0.0,0.0,0.0,0.0,0.0,0.0,0.0,0.0,0.0,0.0,0.0,0.0,0.0,0.0,0.0,0.0,0.0,0.0,0.0,0.0,0.0,0.0,0.0,0.0,0.0,0.0,0.0,0.0,0.0,0.0,0.0,0.0,0.0,0.0,0.0,0.0,0.0,0.0,0.0,0.0,0.0,0.0,0.0,0.0,0.0,0.0,0.0,0.0,0.0,0.0,0.0,0.0,0.0,0.0,0.0,0.0,0.0,0.0,0.0,0.0,0.0,0.0,0.0,0.0,0.0,0.0,0.0,0.0,0.0,0.0,0.0,0.0,0.0,0.0,0.0,0.0,0.0,0.0,0.0,0.0,0.0,0.0,0.0,0.0,0.0,0.0,0.0,0.0,0.0,0.0,0.0,0.0,0.0,0.0,0.0,0.0,0.0,0.0,0.0,0.0,0.0,0.0,0.0,0.0,0.0,0.0,0.0,0.0,0.0,0.0,0.0,0.0,0.0,0.0,0.0,0.0,0.0,0.0,0.0,0.0,0.0,0.0,0.0,0.0,0.0,0.0,0.0,0.0,0.0,0.0,0.0,0.0,0.0,0.0,0.0,0.0,0.0,0.0,0.0,0.0,0.0,0.0,0.0,0.0,0.0,0.0,0.0,0.0,0.0,0.0,0.0,0.0,0.0,0.0,0.0,0.0,0.0,0.0,0.0,0.0,0.0,0.0,0.0,0.0,0.0,0.0,0.0,0.0,0.0,0.0,0.0,0.0,0.0,0.0,0.0,0.0,0.0,0.0,0.0,0.0,0.0,0.0,0.0,0.0,0.0,0.0,0.0,0.0,0.0,0.0,0.0,0.0,0.0,0.0,0.0,0.0,0.0,0.0,0.0,0.0,0.0,0.0,0.0,0.0,0.0,0.0,0.0,0.0,0.0,0.0,0.0,0.0,0.0,0.0,0.0,0.0,0.0,0.0,0.0,0.0,0.0,0.0,0.0,0.0,0.0,0.0,0.0,0.0,0.0,0.0,0.0,0.0,0.0,0.0,0.0,0.0,0.0,0.0,0.0,0.0,0.0,0.0,0.0,0.0,0.0,0.0,0.0,0.0,0.0,0.0,0.0,0.0,0.0,0.0,0.0,0.0,0.0,0.0,0.0,0.0,0.0,0.0,0.0,0.0,0.0,0.0,0.0,0.0,0.0,0.0,0.0,0.0,0.0,0.0,0.0,0.0,0.0,0.0,0.0,0.0,0.0,0.0,0.0,0.0,0.0,0.0,0.0,0.0,0.0,0.0,0.0,0.0,0.0,0.0,0.0,0.0,0.0,0.0,0.0,0.0,0.0,0.0,0.0,0.0,0.0,0.0,0.0,0.0,0.0,0.0,0.0,0.0,0.0,0.0,0.0,0.0,0.0,0.0,0.0,0.0,0.0,0.0,0.0,0.0,0.0,0.0,0.0,0.0,0.0,0.0,0.0,0.0,0.0,0.0,0.0,0.0,0.0,0.0,0.0,0.0,0.0,0.0,0.0,0.0,0.0,0.0,0.0,0.0,0.0,0.0,0.0,0.0,0.0,0.0,0.0,0.0,0.0,0.0,0.0,0.0,0.0,0.0,0.0,0.0,0.0,0.0,0.0,0.0,0.0,0.0,0.0,0.0,0.0,0.0,0.0,0.0,0.0,0.0,0.0,0.0,0.0,0.0,0.0,0.0,0.0,0.0,0.0,0.0,0.0,0.0,0.0,0.0,0.0,0.0,0.0,0.0,0.0,0.0,0.0,0.0,0.0,0.0,0.0,0.0,0.0,0.0,0.0,0.0,0.0,0.0,0.0,0.0,0.0,0.0,0.0,0.0,0.0,0.0,0.0,0.0,0.0,0.0,0.0,0.0,0.0,0.0,0.0,0.0,0.0,0.0,0.0,0.0,0.0,0.0,0.0,0.0,0.0,0.0,0.0,0.0,0.0,0.0,0.0,0.0,0.0,0.0,0.0,0.0,0.0,0.0,0.0,0.0,0.0,0.0,0.0,0.0,0.0,0.0,0.0,0.0,0.0,0.0,0.0,0.0,0.0,0.0,0.0,0.0,0.0,0.0,0.0,0.0,0.0,0.0,0.0,0.0,0.0,0.0,0.0,0.0,0.0,0.0,0.0,0.0,0.0,0.0,0.0,0.0,0.0,0.0,0.0,0.0,0.0,0.0,0.0,0.0,0.0,0.0,0.0,0.0,0.0,0.0,0.0,0.0,0.0,0.0,0.0,0.0,0.0,0.0,0.0,0.0,0.0,0.0,0.0,0.0,0.0,0.0,0.0,0.0,0.0,0.0,0.0,0.0,0.0,0.0,0.0,0.0,0.0,0.0,0.0,0.0,0.0,0.0,0.0,0.0,0.0,0.0,0.0,0.0,0.0,0.0,0.0,0.0,0.0,0.0,0.0,0.0,0.0,0.0,0.0,0.0,0.0,0.0,0.0,0.0,0.0,0.0,0.0,0.0,0.0,0.0,0.0,0.0,0.0,0.0,0.0,0.0,0.0,0.0,0.0,0.0,0.0,0.0,0.0,0.0,0.0,0.0,0.0,0.0,0.0,0.0,0.0,0.0,0.0,0.0,0.0,0.0,0.0,0.0,0.0,0.0,0.0,0.0,0.0,0.0,0.0,0.0,0.0,0.0,0.0,0.0,0.0,0.0,0.0,0.0,0.0,0.0,0.0,0.0,0.0,0.0,0.0,0.0,0.0,0.0,0.0,0.0,0.0,0.0,0.0,0.0,0.0,0.0,0.0,0.0,0.0,0.0,0.0,0.0,0.0,0.0,0.0,0.0,0.0,0.0,0.0,0.0,0.0,0.0,0.0,0.0,0.0,0.0,0.0,0.0,0.0,0.0,0.0,0.0,0.0,0.0,0.0,0.0,0.0,0.0,0.0,0.0,0.0,0.0,0.0,0.0,0.0,0.0,0.0,0.0,0.0,0.0,0.0,0.0,0.0,0.0,0.0,0.0,0.0,0.0,0.0,0.0,0.0,0.0,0.0,0.0,0.0,0.0,0.0,0.0,0.0,0.0,0.0,0.0,0.0,0.0,0.0,0.0,0.0,0.0,0.0,0.0,0.0,0.0,0.0,0.0,0.0,0.0,0.0,0.0,0.0,0.0,0.0,0.0,0.0,0.0,0.0,0.0,0.0,0.0,0.0,0.0,0.0,0.0,0.0,0.0,0.0,0.0,0.0,0.0,0.0,0.0,0.0,0.0,0.0,0.0,0.0,0.0,0.0,0.0,0.0,0.0,0.0,0.0,0.0,0.0,0.0,0.0,0.0,0.0,0.0,0.0,0.0,0.0,0.0,0.0,0.0,0.0,0.0,0.0,0.0,0.0,0.0,0.0,0.0,0.0,0.0,0.0,0.0,0.0,0.0,0.0,0.0,0.0,0.0,0.0,0.0,0.0,0.0,0.0,0.0,0.0,0.0,0.0,0.0,0.0,0.0,0.0,0.0,0.0,0.0,0.0,0.0,0.0,0.0,0.0,0.0,0.0,0.0,0.0,0.0,0.0,0.0,0.0,0.0,0.0,0.0,0.0,0.0,0.0,0.0,0.0,0.0,0.0,0.0,0.0,0.0,0.0,0.0,0.0,0.0,0.0,0.0,0.0,0.0,0.0,0.0,0.0,0.0,0.0,0.0,0.0,0.0,0.0,0.0,0.0,0.0,0.0,0.0,0.0,0.0,0.0,0.0,0.0,0.0,0.0,0.0,0.0,0.0,0.0,0.0,0.0,0.0,0.0,0.0,0.0,0.0,0.0,0.0,0.0,0.0,0.0,0.0,0.0,0.0,0.0,0.0,0.0,0.0,0.0,0.0,0.0,0.0,0.0,0.0,0.0,0.0,0.0,0.0,0.0,0.0,0.0,0.0,0.0,0.0,0.0,0.0,0.0,0.0,0.0,0.0,0.0,0.0,0.0,0.0,0.0,0.0,0.0,0.0,0.0,0.0,0.0,0.0,0.0,0.0,0.0,0.0,0.0,0.0,0.0,0.0,0.0,0.0,0.0,0.0,0.0,0.0,0.0,0.0,0.0,0.0,0.0,0.0,0.0,1.635,0.0,0.0,0.0,0.0,0.0,0.0,0.0,0.0,0.0,0.0,0.0,0.0,0.0,0.0,0.0,0.0,0.0,0.0,0.0,0.0,0.0,0.0,0.0,0.0,0.0,0.0,0.0,0.0,0.0,0.0,0.0,0.0,0.0,0.0,0.0,0.0,0.0,0.0,0.0,0.0,0.0,0.0,0.0,0.0,0.0,0.0,0.0,0.0,0.0,0.0,0.0,0.0,0.0,0.0,0.0,0.0,0.0,0.0,0.0,0.0,0.0,0.0,0.0,0.0,0.0,0.0,0.0,0.0,0.0,0.0,0.0,0.0,0.0,0.0,0.0,0.0,0.0,0.0,0.0,0.0,0.0,0.0,0.0,0.0,0.0,0.0,0.0,0.0,0.0,0.0,0.0,0.0,0.0,0.0,0.0,0.0,0.0,0.0,0.0,0.0,0.0,0.0,0.0,0.0,0.0,0.0,0.0,0.0,0.0,0.0,1.5274,1.5847,1.5847,1.5873,1.5859,0.0,0.0,0.0,0.0,0.0,0.0,0.0,0.0,0.0,0.0,0.0,0.0,0.0,0.0,0.0,0.0,0.0,0.0,0.0,0.0,0.0,0.0,0.0,0.0,0.0,0.0,0.0,0.0,0.0,0.0,0.0,0.0,0.0,0.0,0.0,0.0,0.0,0.0,0.0,0.0,0.0,0.0,0.0,0.0,0.0,0.0,0.0,0.0,0.0,0.0,0.0,0.0,0.0,0.0,0.0,0.0,0.0,0.0,0.0,0.0,0.0,0.0,0.0,0.0,0.0,0.0,0.0,0.0,0.0,0.0,0.0,0.0,0.0,0.0,0.0,0.0,0.0,0.0,0.0,0.0,0.0,0.0,0.0,0.0,0.0,0.0,0.0,0.0,0.0,0.0,0.0,0.0,0.0,0.0,0.0,0.0,0.0,0.0,0.0,0.0,0.0,0.0,0.0,0.0,0.0,0.0,0.0,0.0,0.0,0.0,0.0,0.0,1.5072,1.5099,1.5072,0.0,0.0,0.0,0.0,0.0,0.0,0.0,0.0,0.0,0.0,0.0,0.0,0.0,0.0,0.0,0.0,0.0,0.0,0.0,0.0,0.0,0.0,0.0,0.0,0.0,0.0,0.0,0.0,0.0,0.0,0.0,0.0,0.0,0.0,0.0,0.0,0.0,0.0,0.0,0.0,0.0,0.0,0.0,0.0,0.0,0.0,0.0,0.0,0.0,0.0,0.0,0.0,0.0,0.0,0.0,0.0,0.0,0.0,0.0,0.0,0.0,0.0,0.0,0.0,0.0,0.0,0.0,0.0,0.0,0.0,0.0,0.0,0.0,0.0,0.0,0.0,0.0,0.0,0.0,0.0,0.0,0.0,0.0,0.0,0.0,0.0,0.0,0.0,0.0,0.0,0.0,0.0,0.0,0.0,0.0,0.0,0.0,0.0,0.0,0.0,0.0,0.0,0.0,0.0,0.0,0.0,0.0,0.0,0.0,0.0,1.3034,1.3835,1.3862,0.0,1.3835,0.0,0.0,0.0,0.0,0.0,0.0,0.0,0.0,0.0,0.0,0.0,0.0,0.0,0.0,0.0,0.0,0.0,0.0,0.0,0.0,0.0,0.0,0.0,0.0,0.0,0.0,0.0,0.0,0.0,0.0,0.0,0.0,0.0,0.0,0.0,0.0,0.0,0.0,0.0,0.0,0.0,0.0,0.0,0.0,0.0,0.0,0.0,0.0,0.0,0.0,0.0,0.0,0.0,0.0,0.0,0.0,0.0,0.0,0.0,0.0,0.0,0.0,0.0,0.0,0.0,0.0,0.0,0.0,0.0,0.0,0.0,0.0,0.0,0.0,0.0,0.0,0.0,0.0,0.0,0.0,0.0,0.0,0.0,0.0,0.0,0.0,0.0,0.0,0.0,0.0,0.0,0.0,0.0,0.0,0.0,0.0,0.0,0.0,0.0,0.0,0.0,0.0,0.0,0.0,0.0,0.0,0.0,0.0,0.0,0.0,1.2681,1.3197,1.3386,1.344,0.0,0.0,0.0,0.0,0.0,0.0,0.0,0.0,0.0,0.0,0.0,0.0,0.0,0.0,0.0,0.0,0.0,0.0,0.0,0.0,0.0,0.0,0.0,0.0,0.0,0.0,0.0,0.0,0.0,0.0,0.0,0.0,0.0,0.0,0.0,0.0,0.0,0.0,0.0,0.0,0.0,0.0,0.0,0.0,0.0,0.0,0.0,0.0,0.0,0.0,0.0,0.0,0.0,0.0,0.0,0.0,0.0,0.0,0.0,0.0,0.0,0.0,0.0,0.0,0.0,0.0,0.0,0.0,0.0,0.0,0.0,0.0,0.0,0.0,0.0,0.0,0.0,0.0,0.0,0.0,0.0,0.0,0.0,0.0,0.0,0.0,0.0,0.0,0.0,0.0,0.0,0.0,0.0,0.0,0.0,0.0,0.0,0.0,0.0,0.0,0.0,0.0,0.0,0.0,0.0,0.0,0.0,0.0,0.0,0.0,1.2382,1.2518,1.2745,1.2935,1.3071,1.3044,0.0,0.0,0.0,0.0,0.0,0.0,0.0,0.0,0.0,0.0,0.0,0.0,0.0,0.0,0.0,0.0,0.0,0.0,0.0,0.0,0.0,0.0,0.0,0.0,0.0,0.0,0.0,0.0,0.0,0.0,0.0,0.0,0.0,0.0,0.0,0.0,0.0,0.0,0.0,0.0,0.0,0.0,0.0,0.0,0.0,0.0,0.0,0.0,0.0,0.0,0.0,0.0,0.0,0.0,0.0,0.0,0.0,0.0,0.0,0.0,0.0,0.0,0.0,0.0,0.0,0.0,0.0,0.0,0.0,0.0,0.0,0.0,0.0,0.0,0.0,0.0,0.0,0.0,0.0,0.0,0.0,0.0,0.0,0.0,0.0,0.0,0.0,0.0,0.0,0.0,0.0,0.0,0.0,0.0,0.0,0.0,0.0,0.0,0.0,0.0,0.0,0.0,0.0,0.0,0.0,0.0,0.0,0.0,1.2382,1.2382,1.2409,1.2436,1.2446,1.2436,0.0,0.0,0.0,0.0,0.0,0.0,0.0,0.0,0.0,0.0,0.0,0.0,0.0,0.0,0.0,0.0,0.0,0.0,0.0,0.0,0.0,0.0,0.0,0.0,0.0,0.0,0.0,0.0,0.0,0.0,0.0,0.0,0.0,0.0,0.0,0.0,0.0,0.0,0.0,0.0,0.0,0.0,0.0,0.0,0.0,0.0,0.0,0.0,0.0,0.0,0.0,0.0,0.0,0.0,0.0,0.0,0.0,0.0,0.0,0.0,0.0,0.0,0.0,0.0,0.0,0.0,0.0,0.0,0.0,0.0,0.0,0.0,0.0,0.0,0.0,0.0,0.0,0.0,0.0,0.0,0.0,0.0,0.0,0.0,0.0,0.0,0.0,0.0,0.0,0.0,0.0,0.0,0.0,0.0,0.0,0.0,0.0,0.0,0.0,0.0,0.0,0.0,0.0,0.0,0.0,0.0,0.0,0.0,0.0,1.2382,1.2246,1.2228,1.2382,1.2246,1.2219,0.0,0.0,0.0,0.0,0.0,0.0,0.0,0.0,0.0,0.0,0.0,0.0,0.0,0.0,0.0,0.0,0.0,0.0,0.0,0.0,0.0,0.0,0.0,0.0,0.0,0.0,0.0,0.0,0.0,0.0,0.0,0.0,0.0,0.0,0.0,0.0,0.0,0.0,0.0,0.0,0.0,0.0,0.0,0.0,0.0,0.0,0.0,0.0,0.0,0.0,0.0,0.0,0.0,0.0,0.0,0.0,0.0,0.0,0.0,0.0,0.0,0.0,0.0,0.0,0.0,0.0,0.0,0.0,0.0,0.0,0.0,0.0,0.0,0.0,0.0,0.0,0.0,0.0,0.0,0.0,0.0,0.0,0.0,0.0,0.0,0.0,0.0,0.0,0.0,0.0,0.0,0.0,0.0,0.0,0.0,0.0,0.0,0.0,0.0,0.0,0.0,0.0,0.0,0.0,0.0,0.0,0.0,0.0,0.0,1.2137,0.0,1.2238,1.2137,1.2081,1.2099,0.0,0.0,0.0,0.0,0.0,0.0,0.0,0.0,0.0,0.0,0.0,0.0,0.0,0.0,0.0,0.0,0.0,0.0,0.0,0.0,0.0,0.0,0.0,0.0,0.0,0.0,0.0,0.0,0.0,0.0,0.0,0.0,0.0,0.0,0.0,0.0,0.0,0.0,0.0,0.0,0.0,0.0,0.0,0.0,0.0,0.0,0.0,0.0,0.0,0.0,0.0,0.0,0.0,0.0,0.0,0.0,0.0,0.0,0.0,0.0,0.0,0.0,0.0,0.0,0.0,0.0,0.0,0.0,0.0,0.0,0.0,0.0,0.0,0.0,0.0,0.0,0.0,0.0,0.0,0.0,0.0,0.0,0.0,0.0,0.0,0.0,0.0,0.0,0.0,0.0,0.0,0.0,0.0,0.0,0.0,0.0,0.0,0.0,0.0,0.0,0.0,0.0,0.0,0.0,0.0,0.0,0.0,0.0,1.16,1.1627,1.234,1.234,1.1655,1.1917,1.206,0.0,0.0,0.0,0.0,0.0,0.0,0.0,0.0,0.0,0.0,0.0,0.0,0.0,0.0,0.0,0.0,0.0,0.0,0.0,0.0,0.0,0.0,0.0,0.0,0.0,0.0,0.0,0.0,0.0,0.0,0.0,0.0,0.0,0.0,0.0,0.0,0.0,0.0,0.0,0.0,0.0,0.0,0.0,0.0,0.0,0.0,0.0,0.0,0.0,0.0,0.0,0.0,0.0,0.0,0.0,0.0,0.0,0.0,0.0,0.0,0.0,0.0,0.0,0.0,0.0,0.0,0.0,0.0,0.0,0.0,0.0,0.0,0.0,0.0,0.0,0.0,0.0,0.0,0.0,0.0,0.0,0.0,0.0,0.0,0.0,0.0,0.0,0.0,0.0,0.0,0.0,0.0,0.0,0.0,0.0,0.0,0.0,0.0,0.0,0.0,0.0,0.0,0.0,0.0,0.0,0.0,0.0,0.0,0.0,1.1609,1.1598,1.1634,1.16,1.1808,1.1973,0.0,0.0,0.0,0.0,0.0,0.0,0.0,0.0,0.0,0.0,0.0,0.0,0.0,0.0,0.0,0.0,0.0,0.0,0.0,0.0,0.0,0.0,0.0,0.0,0.0,0.0,0.0,0.0,0.0,0.0,0.0,0.0,0.0,0.0,0.0,0.0,0.0,0.0,0.0,0.0,0.0,0.0,0.0,0.0,0.0,0.0,0.0,0.0,0.0,0.0,0.0,0.0,0.0,0.0,0.0,0.0,0.0,0.0,0.0,0.0,0.0,0.0,0.0,0.0,0.0,0.0,0.0,0.0,0.0,0.0,0.0,0.0,0.0,0.0,0.0,0.0,0.0,0.0,0.0,0.0,0.0,0.0,0.0,0.0,0.0,0.0,0.0,0.0,0.0,0.0,0.0,0.0,0.0,0.0,0.0,0.0,0.0,0.0,0.0,0.0,0.0,0.0,0.0,0.0,0.0,0.0,0.0,0.0,0.0,1.0927,1.1125,1.1181,1.1114,1.1404,1.171,1.2025,0.0,0.0,0.0,0.0,0.0,0.0,0.0,0.0,0.0,0.0,0.0,0.0,0.0,0.0,0.0,0.0,0.0,0.0,0.0,0.0,0.0,0.0,0.0,0.0,0.0,0.0,0.0,0.0,0.0,0.0,0.0,0.0,0.0,0.0,0.0,0.0,0.0,0.0,0.0,0.0,0.0,0.0,0.0,0.0,0.0,0.0,0.0,0.0,0.0,0.0,0.0,0.0,0.0,0.0,0.0,0.0,0.0,0.0,0.0,0.0,0.0,0.0,0.0,0.0,0.0,0.0,0.0,0.0,0.0,0.0,0.0,0.0,0.0,0.0,0.0,0.0,0.0,0.0,0.0,0.0,0.0,0.0,0.0,0.0,0.0,0.0,0.0,0.0,0.0,0.0,0.0,0.0,0.0,0.0,0.0,0.0,0.0,0.0,0.0,0.0,0.0,0.0,0.0,0.0,0.0,0.0,0.0,0.0,0.9765,1.0699,1.0838,1.0214,1.0711,1.1301,0.0,0.0,0.0,0.0,0.0,0.0,0.0,0.0,0.0,0.0,0.0,0.0,0.0,0.0,0.0,0.0,0.0,0.0,0.0,0.0,0.0,0.0,0.0,0.0,0.0,0.0,0.0,0.0,0.0,0.0,0.0,0.0,0.0,0.0,0.0,0.0,0.0,0.0,0.0,0.0,0.0,0.0,0.0,0.0,0.0,0.0,0.0,0.0,0.0,0.0,0.0,0.0,0.0,0.0,0.0,0.0,0.0,0.0,0.0,0.0,0.0,0.0,0.0,0.0,0.0,0.0,0.0,0.0,0.0,0.0,0.0,0.0,0.0,0.0,0.0,0.0,0.0,0.0,0.0,0.0,0.0,0.0,0.0,0.0,0.0,0.0,0.0,0.0,0.0,0.0,0.0,0.0,0.0,0.0,0.0,0.0,0.0,0.0,0.0,0.0,0.0,0.0,0.0,0.0,0.0,0.0,0.0,0.0,0.0,0.9301,0.8889,0.8727,0.8852,1.0236,1.0962,0.0,0.0,0.0,0.0,0.0,0.0,0.0,0.0,0.0,0.0,0.0,0.0,0.0,0.0,0.0,0.0,0.0,0.0,0.0,0.0,0.0,0.0,0.0,0.0,0.0,0.0,0.0,0.0,0.0,0.0,0.0,0.0,0.0,0.0,0.0,0.0,0.0,0.0,0.0,0.0,0.0,0.0,0.0,0.0,0.0,0.0,0.0,0.0,0.0,0.0,0.0,0.0,0.0,0.0,0.0,0.0,0.0,0.0,0.0,0.0,0.0,0.0,0.0,0.0,0.0,0.0,0.0,0.0,0.0,0.0,0.0,0.0,0.0,0.0,0.0,0.0,0.0,0.0,0.0,0.0,0.0,0.0,0.0,0.0,0.0,0.0,0.0,0.0,0.0,0.0,0.0,0.0,0.0,0.0,0.0,0.0,0.0,0.0,0.0,0.0,0.0,0.0,0.0,0.0,0.0,0.0,0.0,0.0,0.9321,0.896,0.7522,0.692,0.7273,0.9186,1.0337,0.0,0.0,0.0,0.0,0.0,0.0,0.0,0.0,0.0,0.0,0.0,0.0,0.0,0.0,0.0,0.0,0.0,0.0,0.0,0.0,0.0,0.0,0.0,0.0,0.0,0.0,0.0,0.0,0.0,0.0,0.0,0.0,0.0,0.0,0.0,0.0,0.0,0.0,0.0,0.0,0.0,0.0,0.0,0.0,0.0,0.0,0.0,0.0,0.0,0.0,0.0,0.0,0.0,0.0,0.0,0.0,0.0,0.0,0.0,0.0,0.0,0.0,0.0,0.0,0.0,0.0,0.0,0.0,0.0,0.0,0.0,0.0,0.0,0.0,0.0,0.0,0.0,0.0,0.0,0.0,0.0,0.0,0.0,0.0,0.0,0.0,0.0,0.0,0.0,0.0,0.0,0.0,0.0,0.0,0.0,0.0,0.0,0.0,0.0,0.0,0.0,0.0,0.0,0.0,0.0,0.0,0.0,0.0,0.8347,0.858,0.6535,0.5625,0.5968,0.8008,0.9651,0.0,0.0,0.0,0.0,0.0,0.0,0.0,0.0,0.0,0.0,0.0,0.0,0.0,0.0,0.0,0.0,0.0,0.0,0.0,0.0,0.0,0.0,0.0,0.0,0.0,0.0,0.0,0.0,0.0,0.0,0.0,0.0,0.0,0.0,0.0,0.0,0.0,0.0,0.0,0.0,0.0,0.0,0.0,0.0,0.0,0.0,0.0,0.0,0.0,0.0,0.0,0.0,0.0,0.0,0.0,0.0,0.0,0.0,0.0,0.0,0.0,0.0,0.0,0.0,0.0,0.0,0.0,0.0,0.0,0.0,0.0,0.0,0.0,0.0,0.0,0.0,0.0,0.0,0.0,0.0,0.0,0.0,0.0,0.0,0.0,0.0,0.0,0.0,0.0,0.0,0.0,0.0,0.0,0.0,0.0,0.0,0.0,0.0,0.0,0.0,0.0,0.0,0.0,0.0,0.0,0.0,0.0,0.0,0.8631,0.7386,0.6393,0.5961,0.6156,0.8164,0.9311,0.0,0.0,0.0,0.0,0.0,0.0,0.0,0.0,0.0,0.0,0.0,0.0,0.0,0.0,0.0,0.0,0.0,0.0,0.0,0.0,0.0,0.0,0.0,0.0,0.0,0.0,0.0,0.0,0.0,0.0,0.0,0.0,0.0,0.0,0.0,0.0,0.0,0.0,0.0,0.0,0.0,0.0,0.0,0.0,0.0,0.0,0.0,0.0,1.3212,0.0,0.0,0.0,0.0,0.0,0.0,0.0,0.0,0.0,0.0,0.0,0.0,0.0,0.0,0.0,0.0,0.0,0.0,0.0,0.0,0.0,0.0,0.0,0.0,0.0,0.0,0.0,0.0,0.0,0.0,0.0,0.0,0.0,0.0,0.0,0.0,0.0,0.0,0.0,0.0,0.0,0.0,0.0,0.0,0.0,0.0,0.0,0.0,0.0,0.0,0.0,0.0,0.0,0.0,0.0,0.0,0.0,0.0,0.0,0.8569,0.7311,0.6366,0.5978,0.6238,0.7666,0.8653,0.0,0.0,0.0,0.0,0.0,0.0,0.0,0.0,0.0,0.0,0.0,0.0,0.0,0.0,0.0,0.0,0.0,0.0,0.0,0.0,0.0,0.0,0.0,0.0,0.0,0.0,0.0,0.0,0.0,0.0,0.0,0.0,0.0,0.0,0.0,0.0,0.0,0.0,0.0,0.0,0.0,0.0,0.0,0.0,0.0,0.0,0.0,0.0,0.0,0.0,0.0,0.0,0.0,0.0,0.0,0.0,0.0,0.0,0.0,0.0,0.0,0.0,0.0,0.0,0.0,0.0,0.0,0.0,0.0,0.0,0.0,0.0,0.0,0.0,0.0,0.0,0.0,0.0,0.0,0.0,0.0,0.0,0.0,0.0,0.0,0.0,0.0,0.0,0.0,0.0,0.0,0.0,0.0,0.0,0.0,0.0,0.0,0.0,0.0,0.0,0.0,0.0,0.0,0.0,0.0,0.0,0.0,0.9261,0.8375,0.7355,0.6344,0.5964,0.6251,0.7087,0.804,0.905,0.0,0.0,0.0,0.0,0.0,0.0,0.0,0.0,0.0,0.0,0.0,0.0,0.0,0.0,0.0,0.0,0.0,0.0,0.0,0.0,0.0,0.0,0.0,0.0,0.0,0.0,0.0,0.0,0.0,0.0,0.0,0.0,0.0,0.0,0.0,0.0,0.0,0.0,1.1349,1.1589,0.0,0.0,0.0,0.0,0.0,0.0,0.0,0.0,1.2715,0.0,0.0,0.0,0.0,0.0,0.0,0.0,0.0,0.0,0.0,0.0,0.0,0.0,0.0,0.0,0.0,0.0,0.0,0.0,0.0,0.0,0.0,0.0,0.0,0.0,0.0,0.0,0.0,0.0,0.0,0.0,0.0,0.0,0.0,0.0,0.0,0.0,0.0,0.0,0.0,0.0,0.0,0.0,0.0,0.0,0.0,0.0,0.0,0.0,0.0,0.0,0.0,0.0,0.0,0.0,0.0,0.8815,0.911,0.8242,0.6165,0.6271,0.6377,0.6473,0.7337,0.8226,0.9071,0.0,0.0,0.0,0.0,0.0,0.0,0.0,0.0,0.0,0.0,0.0,0.0,0.0,0.0,0.0,0.0,0.0,0.0,0.0,0.0,0.0,0.0,0.0,0.0,0.0,0.0,0.0,0.0,0.0,0.0,0.0,0.0,0.0,0.0,0.0,0.0,0.0,0.0,0.0,1.1239,1.1436,0.0,0.0,0.0,0.0,0.0,0.0,0.0,0.0,1.1976,0.0,0.0,0.0,0.0,0.0,0.0,0.0,0.0,0.0,0.0,0.0,0.0,0.0,0.0,0.0,0.0,0.0,0.0,0.0,0.0,0.0,0.0,0.0,0.0,0.0,0.0,0.0,0.0,0.0,0.0,0.0,0.0,0.0,0.0,0.0,0.0,0.0,0.0,0.0,0.0,0.0,0.0,0.0,0.0,0.0,0.0,0.0,0.0,0.0,0.0,0.0,0.0,0.0,0.0,0.0,0.9054,0.879,0.7832,0.6224,0.6398,0.6489,0.6518,0.7384,0.8286,0.0,0.0,0.0,0.0,0.0,0.0,0.0,0.0,0.0,0.0,0.0,0.0,0.0,0.0,0.0,0.0,0.0,0.0,0.0,0.0,0.0,0.0,0.0,0.0,0.0,0.0,0.0,0.0,0.0,0.0,0.0,0.0,0.0,0.0,0.0,0.0,0.0,0.0,0.0,0.0,1.0827,1.0734,0.9853,0.0,0.0,0.0,0.0,0.0,0.0,1.0822,1.1163,0.0,0.0,0.0,0.0,0.0,0.0,0.0,0.0,0.0,0.0,0.0,0.0,0.0,0.0,0.0,0.0,0.0,0.0,0.0,0.0,0.0,0.0,0.0,0.0,0.0,0.0,0.0,0.0,0.0,0.0,0.0,0.0,0.0,0.0,0.0,0.0,0.0,0.0,0.0,0.0,0.0,0.0,0.0,0.0,0.0,0.0,0.0,0.0,0.0,0.0,0.0,0.0,0.0,0.0,0.0,0.937,0.848,0.7517,0.6552,0.6489,0.6489,0.6518,0.7634,0.8513,0.0,0.0,0.0,0.0,0.0,0.0,0.0,0.0,0.0,0.0,0.0,0.0,0.0,0.0,0.0,0.0,0.0,0.0,0.0,0.0,0.0,0.0,0.0,0.0,0.0,0.0,0.0,0.0,0.0,0.0,0.0,0.0,0.0,0.0,0.0,0.0,0.0,0.0,0.0,0.0,0.0,1.01,0.9322,1.0072,0.0,0.0,0.0,0.0,1.0834,1.0485,0.0,0.0,0.0,0.0,0.0,0.0,0.0,0.0,0.0,0.0,0.0,0.0,0.0,0.0,0.0,0.0,0.0,0.0,0.0,0.0,0.0,0.0,0.0,0.0,0.0,0.0,0.0,0.0,0.0,0.0,0.0,0.0,0.0,0.0,0.0,0.0,0.0,0.0,0.0,0.0,0.0,0.0,0.0,0.0,0.0,0.0,0.0,0.0,0.0,0.0,0.0,0.0,0.0,0.0,0.0,0.0,0.937,0.848,0.7512,0.6556,0.6489,0.6489,0.6522,0.8368,0.9393,0.0,0.0,0.0,0.0,0.0,0.0,0.0,0.0,0.0,0.0,0.0,0.0,0.0,0.0,0.0,0.0,0.0,0.0,0.0,0.0,0.0,0.0,0.0,0.0,0.0,0.0,0.0,0.0,0.0,0.0,0.0,0.0,0.0,0.0,0.0,0.0,0.0,0.0,0.0,0.0,0.0,1.0131,0.9297,1.0072,1.0707,0.0,0.0,0.9373,0.9436,0.8857,0.0,0.0,0.0,0.0,0.0,0.0,0.0,0.0,0.0,0.0,0.0,0.0,0.0,0.0,0.0,0.0,0.0,0.0,0.0,0.0,0.0,0.0,0.0,0.0,0.0,0.0,0.0,0.0,0.0,0.0,0.0,0.0,0.0,0.0,0.0,0.0,0.0,0.0,0.0,0.0,0.0,0.0,0.0,0.0,0.0,0.0,0.0,0.0,0.0,0.0,0.0,0.0,0.0,0.0,0.0,0.8691,0.8967,0.7849,0.6945,0.6294,0.6264,0.6172,0.5956,0.8176,0.9289,0.0,0.0,0.0,0.0,0.0,0.0,0.0,0.0,0.0,0.0,0.0,0.0,0.0,0.0,0.0,0.0,0.0,0.0,0.0,0.0,0.0,0.0,0.0,0.0,0.0,0.0,0.0,0.0,0.0,0.0,0.0,0.0,0.0,0.0,0.0,0.0,0.0,0.0,0.0,0.0,0.0,0.0,0.9327,0.958,0.0,0.0,0.0,0.9569,0.9993,0.0,0.0,0.0,0.0,0.0,0.0,0.0,0.0,0.0,0.0,0.0,0.0,0.0,0.0,0.0,0.0,0.0,0.0,0.0,0.0,0.0,0.0,0.0,0.0,0.0,0.0,0.0,0.0,0.0,0.0,0.0,0.0,0.0,0.0,0.0,0.0,0.0,0.0,0.0,0.0,0.0,0.0,0.0,0.0,0.0,0.0,0.0,0.0,0.0,0.0,0.0,0.0,0.0,0.0,0.0,0.0,0.0,0.8118,0.6615,0.567,0.5391,0.5391,0.5226,0.4971,0.7189,0.0,0.0,0.0,0.0,0.0,0.0,0.0,0.0,0.0,0.0,0.0,0.0,0.0,0.0,0.0,0.0,0.0,0.0,0.0,0.0,0.0,0.0,0.0,0.0,0.0,0.0,0.0,1.0487,0.0,0.0,0.0,0.0,0.0,0.0,0.0,0.0,0.0,0.0,0.0,0.0,0.0,0.0,0.8895,0.9381,0.9324,0.9069,0.0,0.0,0.964,0.9808,0.8189,0.7654,0.0,0.0,0.0,0.0,0.0,0.0,0.0,0.0,0.0,0.0,0.0,0.0,0.0,0.0,0.0,0.0,0.0,0.0,0.0,0.0,0.0,0.0,0.0,0.0,0.0,0.0,0.0,0.0,0.0,0.0,0.0,0.0,0.0,0.0,0.0,0.0,0.0,0.0,0.0,0.0,0.0,0.0,0.0,0.0,0.0,0.0,0.0,0.0,0.0,0.0,0.0,0.0,0.0,0.0,0.0,0.6619,0.4544,0.3466,0.3394,0.3394,0.3394,0.339,0.5232,0.6505,0.0,0.0,0.0,0.0,0.0,0.0,0.0,0.0,0.0,0.0,0.0,0.0,0.0,0.0,0.0,0.0,0.0,0.0,0.0,0.0,0.0,0.0,0.0,0.0,0.0,0.0,0.0,0.0,0.0,0.0,0.0,0.0,0.0,0.0,0.0,0.0,0.0,0.0,0.0,0.0,0.0,0.874,0.9388,0.9538,0.9041,0.0,0.0,0.9014,0.7664,0.6484,0.6463,0.8673,0.0,0.0,0.0,0.0,0.0,0.0,0.0,0.0,0.0,0.0,0.0,0.0,0.0,0.0,0.0,0.0,0.0,0.0,0.0,0.0,0.0,0.0,0.0,0.0,0.0,0.0,0.0,0.0,0.0,0.0,0.0,0.0,0.0,0.0,0.0,0.0,0.0,0.0,0.0,0.0,0.0,0.0,0.0,0.0,0.0,0.0,0.0,0.0,0.0,0.0,0.0,0.0,0.0,0.5275,0.5944,0.4284,0.3264,0.3049,0.3013,0.2893,0.2589,0.4175,0.5442,0.0,0.0,0.0,0.0,0.0,0.0,0.0,0.0,0.0,0.0,0.0,0.0,0.0,0.0,0.0,0.0,0.0,0.0,0.0,0.0,0.0,0.0,0.0,0.0,0.0,0.0,0.0,0.0,0.8321,0.8463,0.897,0.0,0.0,0.0,0.0,0.0,0.0,0.0,0.0,0.0,0.0,0.8349,0.8002,0.7907,0.0,0.0,0.762,0.8206,0.8313,0.738,0.749,0.9905,1.0223,0.0,0.0,0.0,0.0,0.0,0.0,0.0,0.0,0.0,0.0,0.0,0.0,0.0,0.0,0.0,0.0,0.0,0.0,0.0,0.0,0.0,0.0,0.0,0.0,0.0,0.0,0.0,0.0,0.0,0.0,0.0,0.0,0.0,0.0,0.0,0.0,0.0,0.0,0.0,0.0,0.0,0.0,0.0,0.0,0.0,0.0,0.0,0.0,0.0,0.0,0.0,0.0,0.4601,0.4952,0.3298,0.2295,0.204,0.201,0.1858,0.1583,0.2773,0.3863,0.0,0.0,0.0,0.0,0.0,0.0,0.0,0.0,0.0,0.0,0.0,0.0,0.0,0.0,0.0,0.0,0.0,0.0,0.0,0.0,0.0,0.0,0.0,0.0,0.0,0.0,0.0,0.0,0.8055,0.8306,0.8739,0.0,0.0,0.0,0.0,0.0,0.0,0.0,0.0,0.0,0.0,0.7747,0.7591,0.7631,0.7613,0.748,0.8179,0.8858,0.9208,0.853,0.8585,1.0343,0.0,0.0,0.0,0.0,0.0,0.0,0.0,0.0,0.0,0.0,0.0,0.0,0.0,0.0,0.0,0.0,0.0,0.0,0.0,0.0,0.0,0.0,0.0,0.0,0.0,0.0,0.0,0.0,0.0,0.0,0.6485,0.0,0.0,0.0,0.0,0.0,0.0,0.0,0.0,0.0,0.0,0.0,0.0,0.0,0.0,0.0,0.0,0.0,0.0,0.0,0.0,0.0,0.0,0.3485,0.353,0.1313,0.0,0.0,0.0,0.0,0.0,0.0848,0.1577,0.2213,0.0,0.0,0.0,0.0,0.0,0.0,0.0,0.0,0.0,0.0,0.0,0.0,0.0,0.0,0.0,0.0,0.0,0.0,0.0,0.0,0.0,0.0,0.0,0.0,0.0,0.0,1.0461,0.9463,0.8618,0.0,0.0,0.0,0.0,0.0,0.0,0.0,0.0,0.0,0.0,0.808,0.7067,0.8683,0.9321,0.938,0.9088,1.0685,1.1437,0.997,0.9641,0.9484,0.0,0.0,0.0,0.0,0.0,0.0,0.0,0.0,0.0,0.0,0.0,0.0,0.0,0.0,0.0,0.0,0.0,0.0,0.0,0.0,0.0,0.0,0.0,0.0,0.0,0.0,0.0,0.5859,0.6145,0.0,0.0,0.0,0.0,0.0,0.0,0.0,0.0,0.0,0.0,0.0,0.5863,0.5939,0.0,0.0,0.0,0.0,0.0,0.0,0.0,0.0,0.0,0.0,0.0,0.0,0.3504,0.3472,0.1235,0.0,0.0,0.0,0.0,0.0,0.0263,0.0817,0.1738,0.0,0.0,0.0,0.0,0.0,0.0,0.0,0.0,0.0,0.0,0.0,0.0,0.0,0.0,0.0,0.0,0.0,0.0,0.0,0.0,0.0,0.0,0.0,0.0,0.0,0.8921,0.0,0.0,0.0,0.0,0.0,0.0,0.0,0.0,0.0,0.0,0.0,0.9727,0.9424,0.919,0.9008,0.8854,0.8952,0.8736,0.0,0.0,0.0,0.0,0.0,0.0,0.0,0.0,0.0,0.0,0.0,0.0,0.0,0.0,1.1041,1.2162,1.1643,1.1046,1.1046,0.0,0.0,0.0,0.0,0.0,0.0,0.0,0.0,0.0,0.0,0.0,0.0,0.0,0.0,0.576,0.0,0.5848,0.0,0.0,0.0,0.0,0.0,0.0,0.0,0.0,0.5736,0.565,0.5759,0.5852,0.5777,0.0,0.5456,0.5714,0.0,0.0,0.0,0.0,0.0,0.0,0.0,0.0,0.37,0.3501,0.1372,0.0153,0.0,0.0,0.0,0.0,0.0,0.0338,0.1035,0.2079,0.316,0.0,0.0,0.0,0.0,0.0,0.0,0.0,0.0,0.0,0.0,0.0,0.0,0.0,0.0,0.0,0.0,0.0,0.0,0.0,0.0,0.0,0.0,0.0,0.875,0.0,0.0,0.0,0.0,0.0,0.0,0.0,0.0,0.0,1.0173,0.9721,0.9361,0.9256,0.9198,0.9272,0.9577,0.0,0.0,0.0,0.0,0.0,0.0,0.0,1.1993,1.2186,1.1819,1.1183,1.0286,0.979,0.9553,0.9709,0.0,0.0,1.0934,1.0455,0.9873,1.0017,0.9989,0.9989,1.0048,1.0077,1.0118,0.0,0.0,0.0,0.0,0.0,0.0,0.0,0.0,0.5736,0.5846,0.0,0.5991,0.0,0.0,0.0,0.0,0.0,0.5742,0.0,0.0,0.5619,0.5482,0.574,0.5815,0.5809,0.5694,0.5608,0.5533,0.5383,0.4861,0.0,0.0,0.0,0.0,0.0,0.0,0.4088,0.355,0.1699,0.0502,0.0,0.0,0.0,0.0,0.0,0.0,0.0076,0.1049,0.1785,0.2229,0.3635,0.0,0.0,0.0,0.0,0.0,0.0,0.0,0.0,0.0,0.0,0.0,0.0,0.0,0.0,0.0,0.0,0.0,0.0,0.0,0.0,0.8867,0.0,0.0,0.0,0.0,0.0,0.0,0.0,0.0,0.0,0.0,1.0645,0.9489,0.892,0.9826,0.0,0.0,0.0,0.0,1.0617,1.3283,1.4243,1.4487,1.4256,1.3187,1.1683,0.9676,0.0,0.0,0.6747,0.8213,0.9234,0.8966,0.8319,0.836,0.9704,0.9623,0.9457,0.9831,0.9852,1.0053,1.0209,1.0046,1.0056,0.503,0.0,0.0,0.0,0.0,0.4997,0.5124,0.5295,0.5273,0.5516,0.5853,0.5846,0.0,0.0,0.0,0.0,0.0,0.0,0.6418,0.6673,0.6194,0.599,0.6044,0.5787,0.5509,0.5137,0.5053,0.4691,0.409,0.3855,0.4556,0.6106,0.0,0.0,0.0,0.0,0.4123,0.3283,0.1882,0.0922,0.0521,0.0481,0.036,0.0,0.0,0.0119,0.0428,0.0736,0.1457,0.2636,0.315,0.0,0.0,0.0,0.0,0.0,0.0,0.0,0.0,0.0,0.0,0.0,0.0,0.0,0.0,0.0,0.0,0.0,0.0,0.0,0.8959,0.8569,0.893,0.0,0.0,0.0,0.0,0.0,0.0,0.0,0.0,0.0,1.048,1.042,1.0481,0.0,0.0,1.1546,1.2417,1.1374,1.0546,1.0548,0.0,0.0,0.0,0.9933,1.0242,0.9615,0.8441,0.7517,0.7437,0.6901,0.6517,0.668,0.6598,0.6726,0.7374,0.7607,0.7701,0.7748,0.7944,0.8121,0.8164,0.8192,0.8253,0.5545,0.536,0.5136,0.5068,0.5115,0.5139,0.5286,0.5581,0.5581,0.5834,0.6215,0.6189,0.6287,0.6438,0.6564,0.0,0.0,0.0,0.6853,0.6968,0.6768,0.6667,0.667,0.6248,0.5867,0.5532,0.5127,0.4611,0.4117,0.3985,0.4542,0.5608,0.0,0.0,0.5828,0.4866,0.3972,0.3256,0.2185,0.1399,0.0942,0.0775,0.0651,0.0529,0.0366,0.0485,0.0837,0.088,0.1431,0.2496,0.2739,0.3307,0.0,0.0,0.0,0.0,0.0,0.0,0.0,0.0,0.0,0.0,0.0,0.6459,0.8011,0.0,0.0,0.0,0.8355,0.8527,0.8894,0.8837,0.0,0.0,0.0,0.0,0.0,0.0,0.0,1.1489,1.0611,1.0029,1.033,1.0565,1.0724,1.0692,1.0682,1.0896,1.1579,0.0,0.9444,0.9426,0.9662,0.9467,0.8462,0.8665,0.8743,0.8011,0.7319,0.6913,0.6995,0.6196,0.5763,0.6142,0.6286,0.642,0.6639,0.6925,0.7095,0.6996,0.7119,0.7321,0.7437,0.7515,0.7572,0.5951,0.5913,0.5517,0.5382,0.5425,0.5565,0.5879,0.6323,0.6367,0.6589,0.6949,0.6922,0.6926,0.7031,0.7024,0.0,0.7146,0.7143,0.7185,0.7224,0.7408,0.7429,0.7436,0.6997,0.6718,0.6562,0.5689,0.5144,0.5012,0.4878,0.4855,0.4847,0.4284,0.4445,0.5143,0.4512,0.3874,0.3372,0.2656,0.1973,0.1372,0.0946,0.094,0.1267,0.094,0.0939,0.1345,0.1441,0.1606,0.2037,0.2422,0.2739,0.3123,0.0,0.0,0.0,0.0,0.0,0.0,0.0,0.0,0.0,0.0,0.0,0.0,0.0,0.0,0.0,0.8768,0.0,0.8479,0.9408,0.0,0.0,0.0,1.0649,1.0165,1.0078,1.0129,1.0435,0.0,0.0,1.0101,0.0,0.99,0.91,0.8007,0.7868,0.9395,0.8393,0.7909,0.9329,0.9645,0.9625,0.9086,0.8412,0.7406,0.6026,0.5482,0.5816,0.6198,0.6281,0.6453,0.679,0.6984,0.7051,0.6981,0.7294,0.75,0.7393,0.7324,0.739,0.7774,0.7847,0.7962,0.6194,0.6234,0.6541,0.6276,0.5772,0.6141,0.6425,0.6575,0.6938,0.7197,0.7311,0.7541,0.7828,0.8196,0.8129,0.818,0.8277,0.8259,0.8314,0.8448,0.8069,0.7909,0.7972,0.748,0.7016,0.6681,0.6433,0.5915,0.5173,0.5153,0.5146,0.511,0.4983,0.5161,0.5483,0.5313,0.4798,0.4009,0.3795,0.3146,0.1935,0.1457,0.128,0.1353,0.131,0.1425,0.1815,0.1859,0.2057,0.2441,0.2547,0.2787,0.3156,0.3682,0.0,0.0,0.0,0.0,0.0,0.0,0.0,0.0,0.0,0.7539,0.8879,0.0,0.9042,0.0,0.8452,0.7902,0.8155,0.8424,0.0,0.0,1.0135,1.0283,1.0316,0.9856,0.9796,1.0603,1.0253,0.9859,0.9797,0.9525,0.8999,0.8158,0.8599,0.9149,0.9454,0.8382,0.763,0.7967,0.738,0.6673,0.6759,0.6719,0.6636,0.6166,0.6378,0.6679,0.6765,0.6779,0.6835,0.7008,0.7281,0.7504,0.7533,0.7831,0.8242,0.8458,0.8127,0.788,0.8261,0.8329,0.8433,0.6278,0.6376,0.7156,0.7192,0.6779,0.7029,0.723,0.7429,0.7909,0.8194,0.843,0.8833,0.9174,0.94,0.9343,0.9378,0.9475,0.9471,0.9523,0.9578,0.9338,0.922,0.9271,0.852,0.8003,0.7774,0.7273,0.6656,0.5913,0.5688,0.5487,0.5182,0.5025,0.5199,0.5728,0.5764,0.5528,0.5014,0.4551,0.365,0.2454,0.2015,0.1834,0.1997,0.1814,0.1928,0.2328,0.2369,0.2519,0.2935,0.2777,0.2992,0.3575,0.4334,0.4927,0.0,0.0,0.0,0.0,0.0,0.0,0.0,0.0,0.0,0.0,0.0,0.9351,0.9505,0.8682,0.8357,0.8788,0.8986,0.9268,0.9703,0.9759,0.9657,0.9447,0.9095,0.9072,0.9688,0.9403,0.9105,0.8926,0.8667,0.8261,0.753,0.8078,0.849,0.8371,0.778,0.7335,0.7292,0.6729,0.6221,0.6248,0.6501,0.6696,0.6699,0.6916,0.7135,0.7355,0.7399,0.7487,0.7666,0.8105,0.8412,0.8456,0.8763,0.9145,0.9252,0.9092,0.8911,0.9054,0.9077,0.9183,0.6467,0.6571,0.7701,0.8141,0.8187,0.8248,0.8403,0.8691,0.9089,0.9432,0.9819,1.0282,1.0462,1.0467,1.0453,1.0453,1.0472,1.0487,1.0535,1.0564,1.0692,1.0735,1.0697,0.9694,0.921,0.9051,0.8131,0.739,0.6911,0.6439,0.5995,0.5526,0.5122,0.5313,0.6096,0.6194,0.6152,0.5973,0.4887,0.3859,0.2935,0.2619,0.2661,0.2966,0.2633,0.2574,0.2963,0.3003,0.3144,0.3465,0.317,0.3313,0.4131,0.5235,0.5858,0.0,0.704,0.0,0.0,0.0,0.0,0.0,0.0,0.0,0.0,0.9258,0.9582,0.9352,0.9158,0.9166,0.9486,0.9825,0.9795,0.9155,0.9128,0.8935,0.8309,0.8305,0.8387,0.8525,0.8541,0.8357,0.8112,0.7993,0.7829,0.7463,0.7529,0.7607,0.7283,0.7207,0.7077,0.7019,0.703,0.6997,0.7061,0.7208,0.7339,0.7339,0.7515,0.7649,0.8049,0.8232,0.8367,0.8774,0.9178,0.9447,0.9447,0.976,1.0035,1.0028,0.9995,0.9937,0.985,0.985,0.9954,0.7238,0.744,0.8972,0.9585,0.9675,1.0321,1.0344,0.9985,1.0452,1.067,1.0753,1.0844,1.0893,1.0888,1.0764,1.0773,1.0888,1.074,1.0768,1.0926,1.0864,1.0878,1.0906,1.0276,0.9753,0.9248,0.8605,0.8039,0.7457,0.7408,0.7303,0.7156,0.7173,0.725,0.7342,0.0,0.0,0.0,0.4558,0.3725,0.3533,0.3823,0.4018,0.4118,0.4019,0.0,0.4008,0.3973,0.3975,0.405,0.3871,0.0,0.0,0.0,0.0,0.0,0.0,0.0,0.0,0.0,0.0,0.0,1.002,1.0005,0.9027,0.965,0.9768,0.9069,0.9123,0.9008,0.8468,0.8537,0.8547,0.8399,0.8445,0.8451,0.8451,0.848,0.8481,0.857,0.864,0.8644,0.8615,0.8525,0.8521,0.841,0.8371,0.8355,0.8383,0.7699,0.7218,0.718,0.7311,0.729,0.732,0.7748,0.803,0.8091,0.8682,0.9086,0.9219,0.963,0.9913,0.9999,1.0146,1.0187,1.0182,1.0283,1.0422,1.0645,1.0715,1.0624,1.0381,1.0277,1.0391,0.8311,0.0,1.0097,1.0819,0.0,1.1834,1.2034,1.1709,1.1496,1.1553,1.1752,1.1747,1.1747,1.1747,1.1643,1.1653,1.1742,1.1635,1.1645,1.1747,1.1696,1.1701,1.1704,1.1212,1.0838,1.05,1.0016,0.9434,0.8873,0.8864,0.8697,0.8332,0.8413,0.8454,0.8458,0.806,0.725,0.6098,0.5335,0.4705,0.421,0.4191,0.416,0.4167,0.0,0.0,0.0,0.0,0.0,0.0,0.0,0.0,0.0,0.0,0.0,0.7389,0.8046,0.8573,0.8839,0.9365,0.9791,1.0065,1.0493,1.0548,0.9969,1.0078,0.9957,0.9462,0.9488,0.9385,0.9007,0.9006,0.9021,0.9073,0.9197,0.9313,0.9357,0.9451,0.9451,0.9495,0.9548,0.9529,0.9529,0.9529,0.9529,0.9529,0.9494,0.9476,0.9421,0.8635,0.796,0.8046,0.8042,0.8175,0.8443,0.8684,0.9011,0.9283,0.9697,0.9972,0.9972,1.0202,1.0386,1.0432,1.0569,1.0753,1.0753,1.0937,1.1151,1.1287,1.1362,1.1315,1.112,1.1004,1.1073,0.9768,0.9836,1.1437,1.2115,1.2161,1.3127,1.3528,1.3495,0.0,0.0,0.0,1.2885,1.2874,1.2868,1.283,1.2824,1.2841,1.2841,1.2792,1.2699,1.2792,1.2738,1.2547,1.2123,1.1863,1.1827,1.1285,1.0745,1.0262,1.0257,0.9929,0.9378,0.9338,0.9348,0.9334,0.8562,0.7719,0.6944,0.656,0.5981,0.5115,0.4719,0.4554,0.452,0.4057,0.3788,0.3804,0.4464,0.5008,0.5353,0.5822,0.6545,0.7417,0.7899,0.8387,0.9043,0.9676,1.0121,1.0302,1.0417,1.0562,1.071,1.0752,1.0811,1.0821,1.0425,1.0113,1.0008,0.9917,0.9913,0.9913,0.9946,0.9998,1.0003,1.0201,1.0307,1.0312,1.0379,1.0326,1.0386,1.0349,1.0414,1.0368,1.0368,1.0414,1.041,1.0294,1.0395,1.0303,0.9593,0.906,0.9145,0.917,0.9317,0.9658,0.9763,0.9981,1.0272,1.0453,1.0582,1.0582,1.0669,1.0715,1.0832,1.1043,1.1279,1.1325,1.1572,1.1873,1.1851,1.1846,1.1841,1.1894,1.1887,1.1888,1.193,1.1643,1.3332,1.4015,1.4062,1.4591,1.4849,1.4883,1.4082,1.4063,1.4566,1.4446,1.4397,1.4385,1.4162,1.412,1.4223,1.4223,1.398,0.0,1.3756,1.3486,1.2846,1.2442,1.2134,1.1955,1.1348,1.1,1.0905,1.0896,1.0643,1.0206,1.013,0.9971,0.9653,0.9516,0.937,0.9174,0.7634,0.6737,0.6583,0.686,0.7014,0.6961,0.6861,0.6845,0.6883,0.6897,0.714,0.7512,0.7635,0.8062,0.8921,0.9209,0.9581,1.0056,1.0254,1.0352,1.0412,1.0864,1.1387,1.1872,1.1951,1.1527,1.0574,1.0434,1.0434,1.0333,1.0331,1.0295,1.03,1.0345,1.0396,1.036,1.0393,1.0412,1.0463,1.0436,1.0497,1.0497,1.0467,1.052,1.0571,1.0571,1.0571,1.051,1.0606,1.047,1.0533,1.0341,1.0184,1.0264,1.0292,1.0376,1.0474,1.0517,1.0592,1.0663,1.1025,1.1245,1.124,1.1522,1.1762,1.1924,1.1903,1.1961,1.2008,1.2071,1.211,1.2034,1.2058,1.2124,1.2455,1.2792,1.2896,1.3565,1.361,1.4573,1.5063,1.5123,1.5257,1.5518,1.5828,1.5509,1.5234,1.5035,1.4849,1.4751,1.4672,1.4556,1.4531,1.4586,1.4586,1.4528,1.4354,1.4473,1.4161,1.3599,1.3344,1.3051,1.2645,1.2388,1.223,1.2133,1.2172,1.1992,1.1738,1.1684,1.1555,1.1341,1.1093,1.0943,1.0889,0.9284,0.8396,0.8445,0.8315,0.8226,0.8232,0.7855,0.7667,0.7674,0.8029,0.8343,0.8487,0.8994,0.9495,0.9865,1.004,1.0337,1.0862,1.1008,1.1167,1.1449,1.1731,1.1994,1.2172,1.2279,1.2084,1.1548,1.1377,1.1289,1.1187,1.1171,1.1171,1.1176,1.1223,1.1259,1.1259,1.1367,1.1465,1.1418,1.146,1.147,1.1413,1.1397,1.1428,1.1428,1.1433,1.1428,1.1423,1.1377,1.1377,1.1423,1.1392,1.118,1.0714,1.0634,1.0743,1.1028,1.1085,1.1179,1.1463,1.17,1.1841,1.1841,1.2078,1.2172,1.2219,1.2219,1.2219,1.2225,1.2219,1.2286,1.2494,1.2466,1.2666,1.3132,1.3715,1.4114,1.5147,1.5296,1.5743,1.5958,1.6014,1.5876,1.6171,1.6609,1.6576,1.624,1.5739,1.5497,1.5358,1.5233,1.5144,1.5113,1.5088,1.5119,1.5118,1.5097,1.519,1.4874,1.4333,1.4323,1.402,1.3454,1.3392,1.3297,1.3169,1.3107,1.3064,1.2977,1.2966,1.2917,1.2825,1.2426,1.2277,1.2182,1.1087,1.0325,0.9961,0.9562,0.9326,0.9259,0.8799,0.8491,0.857,0.9115,0.9471,0.952,1.0278,1.0747,1.0872,1.0924,1.1159,1.1582,1.1766,1.1962,1.2347,1.2443,1.2352,1.2265,1.2341,1.2443,1.2427,1.2227,1.2074,1.1952,1.1957,1.1946,1.1968,1.2022,1.2112,1.2123,1.2275,1.2293,1.2281,1.2335,1.241,1.227,1.2254,1.2259,1.2254,1.2254,1.2212,1.2212,1.2254,1.2254,1.2254,1.2254,1.1873,1.1387,1.1072,1.1242,1.1584,1.1647,1.1789,1.221,1.2216,1.2227,1.2221,1.2216,1.2285,1.2301,1.238,1.2464,1.2453,1.2656,1.288,1.324,1.3381,1.367,1.4403,1.5079,1.5491,1.6735,1.6537,1.6975,1.7163,1.6996,1.6915,1.7002,1.7257,1.7203,1.7156,1.7116,1.7042,1.6888,1.6753,1.656,1.6382,1.6326,1.644,1.6189,1.5738,1.6059,1.5771,1.4953,1.5084,1.4759,1.4105,1.4037,1.3791,1.3362,1.3243,1.3227,1.3154,1.3154,1.3154,1.3138,1.3086,1.3086,1.3081,1.2898,1.2189,1.0962,1.0846,1.0792,1.0787,1.0729,1.0715,1.0657,1.0784,1.097,1.1319,1.1524,1.1823,1.2133,1.2267,1.2342,1.2396,1.2412,1.2472,1.2472,1.2472,1.2515,1.2455,1.2509,1.252,1.252,1.2498,1.2434,1.2455,1.246,1.2385,1.2417,1.246,1.2449,1.2433,1.2439,1.2515,1.2444,1.2509,1.2466,1.2455,1.2428,1.2498,1.2477,1.2471,1.2482,1.2466,1.2455,1.2455,1.246,1.2412,1.2417,1.2251,1.2138,1.2058,1.2213,1.2293,1.2287,1.2383,1.2383,1.2383,1.2431,1.2436,1.2458,1.2743,1.2828,1.3011,1.3221,1.3584,1.4112,1.4125,1.4495,1.5181,1.6166,1.6658,1.6764,1.7385,1.7397,1.748,1.7467,1.7324,1.7263,1.7311,1.7419,1.7453,1.7541,1.7663,1.767,1.7365,1.6992,1.6998,1.6971,1.6924,1.6985,1.6927,1.6697,1.6929,1.6589,1.5976,1.5999,1.5726,1.5104,1.5045,1.4939,1.4674,1.4298,1.4105,1.4037,1.3722,1.3526,1.3461,1.3455,1.3365,1.3346,1.3303,1.2963,1.2402,1.2211,1.2095,1.2139,1.2028,1.1991,1.1986,1.1935,1.1975,1.2127,1.2164,1.2315,1.2466,1.2461,1.2536,1.2493,1.2602,1.2667,1.2738,1.2678,1.2634,1.2634,1.2934,1.3081,1.313,1.3438,1.3676,1.3609,1.2961,1.2536,1.2542,1.2536,1.2536,1.2493,1.2542,1.2613,1.2542,1.2596,1.2613,1.2504,1.2536,1.2493,1.2536,1.2536,1.2536,1.2536,1.2488,1.2499,1.2493,1.2536,1.2536,1.2477,1.2444,1.2417,1.2455,1.246,1.246,1.246,1.246,1.2509,1.289,1.2938,1.3009,1.3357,1.3601,1.3716,1.371,1.3915,1.4278,1.4644,1.5221,1.5838,1.6587,1.7055,1.7165,1.7826,1.7887,1.7669,1.7507,1.7419,1.7419,1.7419,1.7385,1.7527,1.7711,1.7806,1.7846,1.7663,1.7222,1.7277,1.7297,1.7263,1.7256,1.7311,1.7419,1.746,1.7244,1.6833,1.6865,1.6541,1.6023,1.595,1.5848,1.5698,1.526,1.4973,1.4868,1.4476,1.4201,1.4035,1.3919,1.3774,1.3686,1.3491,1.3327,1.3219,1.3091,1.2982,1.2971,1.2868,1.2808,1.2803,1.2694,1.2629,1.2629,1.2629,1.2629,1.2634,1.2634,1.2585,1.264,1.271,1.2792,1.2884,1.2952,1.3001,1.3001,1.3446,1.381,1.3901,1.4283,1.455,1.4524,1.372,1.3182,1.3126,1.3154,1.3171,1.3127,1.3233,1.3161,1.2951,1.2935,1.2875,1.2645,1.2656,1.2634,1.2585,1.2645,1.2651,1.2651,1.264,1.2585,1.2634,1.264,1.264,1.2776,1.283,1.2765,1.2591,1.2726,1.2726,1.283,1.2927,1.3214,1.3501,1.355,1.3634,1.3944,1.4323,1.4669,1.4851,1.4838,1.527,1.5732,1.624,1.6728,1.7333,1.7561,1.7656,1.8077,1.8036,1.7717,1.7521,1.7426,1.7439,1.7433,1.748,1.7554,1.7615,1.7656,1.7819,1.7772,1.7548,1.7554,1.7548,1.7426,1.7358,1.7426,1.746,1.7507,1.75,1.7385,1.7453,1.7181,1.6649,1.6595,1.6312,1.5813,1.5692,1.5625,1.5449,1.5396,1.5323,1.5115,1.4633,1.4399,1.4329,1.3813,1.348,1.3453,1.3338,1.3273,1.3267,1.3113,1.3098,1.3042,1.2939,1.2873,1.2873,1.2873,1.2873,1.2868,1.2863,1.2857,1.2918,1.2923,1.2934,1.3056,1.3451,1.3645,1.374,1.4189,1.4519,1.4611,1.4742,1.4905,1.4894,1.4857,1.4713,1.4621,1.4482,1.456,1.4566,1.4601,1.4282,1.3867,1.3695,1.3384,1.3007,1.2891,1.283,1.2852,1.2873,1.2896,1.2896,1.2907,1.2951,1.2985,1.2951,1.3145,1.3494,1.3588,1.3427,1.2924,1.3143,1.3438,1.3488,1.3734,1.4121,1.4176,1.4287,1.4348,1.462,1.5247,1.5692,1.6014,1.6585,1.7322,1.7776,1.78,1.8192,1.8081,1.8319,1.8349,1.8124,1.7941,1.7833,1.7751,1.7717,1.7806,1.7846,1.786,1.8016,1.8023,1.7948,1.7989,1.7928,1.7785,1.7785,1.7758,1.7697,1.7609,1.7616,1.7677,1.7568,1.7575,1.7697,1.7677,1.7567,1.7485,1.7423,1.7274,1.6903,1.6439,1.6201,1.6055,1.5727,1.5535,1.5445,1.5284,1.5135,1.5105,1.4839,1.4721,1.4581,1.4586,1.4563,1.4505,1.3642,1.3216,1.3292,1.3178,1.3113,1.3062,1.3113,1.3042,1.2906,1.289,1.3123,1.3491,1.3553,1.3773,1.4223,1.4386,1.4476,1.4599,1.4911,1.5139,1.5278,1.5499,1.5727,1.5805,1.5962,1.6008,1.5802,1.5296,1.4757,1.4739,1.4641,1.4562,1.4343,1.4257,1.4033,1.3484,1.314,1.289,1.299,1.294,1.304,1.334,1.344,1.3534,1.3834,1.3928,1.3934,1.4127,1.4227,1.4115,1.3974,1.4006,1.4161,1.4161,1.4298,1.4299,1.4379,1.4706,1.4855,1.5058,1.5772,1.6412,1.665,1.7025,1.8019,1.8318,1.8495,1.8624,1.8624,1.868,1.859,1.8267,1.8091,1.803,1.8038,1.7955,1.8104,1.8138,1.8111,1.8253,1.8233,1.8111,1.8091,1.8002,1.7936,1.7915,1.7915,1.7908,1.7758,1.7772,1.7846,1.7704,1.7745,1.7901,1.7887,1.7914,1.7989,1.7955,1.788,1.773,1.7193,1.6937,1.6837,1.6366,1.6153,1.6115,1.591,1.5723,1.5654,1.553,1.5368,1.5295,1.5283,1.5283,1.5153,1.4377,1.3892,1.3943,1.3825,1.3757,1.3751,1.3751,1.3678,1.3576,1.3559,1.3744,1.413,1.4278,1.4527,1.5051,1.5252,1.5368,1.5449,1.5776,1.5968,1.6065,1.6386,1.6567,1.67,1.6777,1.6899,1.67,1.6002,1.543,1.531,1.5208,1.5,1.4844,1.4806,1.4482,1.4033,1.3684,1.3484,1.3434,1.3434,1.3584,1.3939,1.3983,1.4133,1.4426,1.4476,1.4576,1.4725,1.4775,1.4875,1.4906,1.5049,1.485,1.4856,1.4949,1.4855,1.4818,1.5159,1.5401,1.5546,1.6061,1.6764,1.7275,1.7599,1.7974,1.8331,1.855,1.8729,1.881,1.8858,1.8769,1.8518,1.847,1.8375,1.8233,1.8145,1.828,1.8247,1.8186,1.8287,1.828,1.8165,1.8118,1.805,1.7956,1.7949,1.7929,1.7915,1.786,1.7929,1.7942,1.7962,1.803,1.8097,1.8179,1.824,1.8267,1.8152,1.8084,1.8043,1.7832,1.7648,1.7588,1.7358,1.7197,1.7169,1.6511,1.6142,1.6083,1.5779,1.5484,1.5342,1.5478,1.5484,1.5472,1.5342,1.524,1.513,1.4938,1.4768,1.4813,1.4813,1.4847,1.4726,1.4759,1.488,1.4904,1.506,1.5179,1.532,1.5903,1.619,1.6255,1.6656,1.6926,1.6947,1.7047,1.7148,1.7243,1.7317,1.7331,1.7182,1.692,1.6706,1.6689,1.6239,1.5883,1.5592,1.5357,1.5081,1.4626,1.4383,1.4476,1.4476,1.4327,1.4333,1.4433,1.4526,1.4576,1.4725,1.4775,1.4831,1.513,1.533,1.5429,1.5778,1.6076,1.5728,1.5529,1.5671,1.5751,1.5585,1.574,1.5806,1.5942,1.6453,1.7191,1.8046,1.8373,1.8454,1.8705,1.8826,1.8858,1.8923,1.8964,1.8948,1.9099,1.8965,1.8557,1.8379,1.8416,1.8559,1.8593,1.8559,1.8606,1.8538,1.8416,1.8396,1.8253,1.8063,1.8023,1.7962,1.7936,1.7962,1.8023,1.8002,1.7874,1.7975,1.8199,1.8192,1.8219,1.828,1.8165,1.8091,1.807,1.7948,1.7833,1.7792,1.7751,1.765,1.7514,1.7237,1.7069,1.6969,1.6856,1.6742,1.6742,1.6742,1.6742,1.6742,1.6742,1.6716,1.6616,1.5704,1.5219,1.5207,1.5161,1.5124,1.5038,1.4941,1.514,1.5595,1.5774,1.6118,1.6525,1.6816,1.7009,1.7049,1.7135,1.7148,1.7182,1.7209,1.7229,1.729,1.7351,1.7392,1.7338,1.7216,1.6932,1.6581,1.6371,1.6229,1.5934,1.5561,1.5286,1.5074,1.4725,1.4526,1.4526,1.4526,1.4725,1.4981,1.5074,1.513,1.5479,1.5479,1.5628,1.5827,1.5877,1.5834,1.5983,1.6133,1.5983,1.5778,1.5977,1.6069,1.6008,1.6003,1.611,1.6461,1.6916,1.7589,1.8487,1.8826,1.8777,1.8834,1.8826,1.8891,1.9029,1.9053,1.9086,1.9706,1.9348,1.9096,1.8786,1.8626,1.8728,1.882,1.882,1.882,1.8674,1.8552,1.8474,1.8403,1.8213,1.8179,1.8124,1.805,1.8138,1.8206,1.8226,1.8028,1.8089,1.8382,1.8369,1.8382,1.8437,1.8328,1.8253,1.8247,1.8111,1.8036,1.803,1.8038,1.7907,1.7757,1.7751,1.7677,1.7589,1.748,1.7507,1.7494,1.7453,1.7419,1.7419,1.7419,1.7419,1.7352,1.6536,1.6048,1.5997,1.5952,1.5876,1.5793,1.5769,1.5912,1.6263,1.6499,1.6803,1.7216,1.7358,1.7534,1.7548,1.7494,1.7446,1.7446,1.7439,1.7439,1.746,1.7534,1.7561,1.7446,1.715,1.6836,1.6371,1.6417,1.6337,1.6168,1.5861,1.5635,1.5529,1.533,1.513,1.5081,1.5081,1.523,1.5529,1.5628,1.5678,1.6033,1.6083,1.609,1.609,1.6033,1.6033,1.6083,1.6133,1.6133,1.6083,1.6083,1.6056,1.6022,1.6095,1.6188,1.6738,1.7277,1.7737,1.8552,1.8551,1.855,1.8671,1.8826,1.8939,1.9029,1.9118,1.9175,2.0312,1.9741,1.9683,1.9328,1.8807,1.882,1.882,1.882,1.882,1.8687,1.8579,1.8565,1.842,1.8355,1.8328,1.8308,1.8321,1.8355,1.8403,1.8484,1.8434,1.8545,1.8552,1.864,1.8745,1.8752,1.8593,1.8538,1.8511,1.8403,1.8342,1.8328,1.8226,1.8124,1.8104,1.7975,1.7921,1.788,1.7717,1.7663,1.7656,1.7589,1.75,1.75,1.7507,1.75,1.7426,1.7278,1.7244,1.7156,1.6942,1.6881,1.6959,1.7005,1.6907,1.6953,1.7121,1.7189,1.7399,1.7473,1.7615,1.7765,1.784,1.7915,1.7854,1.7827,1.7827,1.7834,1.7757,1.7675,1.7438,1.6944,1.646,1.6215,1.6204,1.6297,1.6236,1.6001,1.5894,1.6004,1.6094,1.6094,1.6018,1.6061,1.6098,1.6078,1.6134,1.6155,1.6114,1.6185,1.613,1.6144,1.6191,1.6164,1.6191,1.6164,1.6151,1.6133,1.6133,1.6211,1.6369,1.6496,1.6714,1.7247,1.7677,1.812,1.8392,1.8583,1.8558,1.8606,1.8761,1.8915,1.9004,1.9061,1.9224,2.0898,2.032,1.9914,1.9335,1.882,1.882,1.882,1.882,1.882,1.8749,1.8701,1.8701,1.862,1.8484,1.8477,1.8423,1.8403,1.8559,1.8586,1.8572,1.8776,1.8789,1.8721,1.8735,1.8755,1.8742,1.8643,1.8701,1.8701,1.864,1.8626,1.8647,1.8572,1.8504,1.8423,1.8362,1.8301,1.8213,1.8165,1.8075,1.8068,1.8084,1.8023,1.7921,1.7907,1.7846,1.7751,1.7643,1.7467,1.7378,1.7331,1.7304,1.729,1.7283,1.7236,1.7175,1.7263,1.7317,1.7324,1.7453,1.7609,1.7711,1.7868,1.7915,1.7915,1.7915,1.7915,1.7805,1.7535,1.7245,1.7089,1.6604,1.6155,1.5933,1.5698,1.5495,1.5522,1.5463,1.5594,1.6009,1.6086,1.6273,1.6532,1.6686,1.6653,1.6578,1.6537,1.6517,1.6435,1.6381,1.6374,1.6395,1.6415,1.6347,1.63,1.6273,1.6212,1.616,1.6182,1.6374,1.6772,1.7292,1.7644,1.8146,1.8284,1.8665,1.881,1.8964,1.8842,1.868,1.8818,1.8996,1.8915,1.8923,1.9102,2.1426,2.0544,2.0204,1.9567,1.8892,1.8888,1.8823,1.8841,1.883,1.8816,1.8789,1.8837,1.8769,1.8647,1.8755,1.8694,1.8565,1.8816,1.8857,1.8782,1.8966,1.8945,1.8796,1.8541,1.8321,1.8321,1.8327,1.8256,1.8327,1.8612,1.8813,1.8793,1.8694,1.8647,1.8626,1.8559,1.8531,1.8491,1.845,1.8409,1.8352,1.8348,1.828,1.8199,1.8179,1.8118,1.7968,1.7874,1.7738,1.7561,1.7406,1.7419,1.7419,1.7419,1.7378,1.7297,1.7372,1.7399,1.7426,1.7507,1.7615,1.7738,1.7826,1.7908,1.7915,1.7915,1.7915,1.786,1.7314,1.7044,1.6809,1.6212,1.5533,1.5141,1.48,1.4827,1.5228,1.5242,1.5388,1.5657,1.5973,1.6183,1.6617,1.6834,1.6892,1.687,1.6815,1.6781,1.6727,1.6673,1.6639,1.6659,1.6592,1.6497,1.6449,1.6415,1.6341,1.6225,1.6409,1.6551,1.7162,1.7788,1.8231,1.8625,1.8858,1.9061,1.9143,1.9183,1.9029,1.8948,1.9029,1.9045,1.9004,1.898,1.9142,2.1646,2.0538,2.0523,1.9878,1.8926,1.8911,1.8871,1.8861,1.8884,1.8871,1.881,1.8925,1.8898,1.8861,1.9013,1.9033,1.8854,1.9067,1.9115,1.9088,1.9122,1.9061,1.8805,1.8323,1.8096,1.8012,1.778,1.778,1.7941,1.8425,1.8619,1.8483,1.8383,1.8454,1.8429,1.8433,1.8525,1.8565,1.8555,1.8559,1.8545,1.847,1.8403,1.8342,1.8301,1.824,1.8138,1.807,1.7955,1.7649,1.7548,1.75,1.7487,1.7473,1.746,1.7453,1.746,1.7507,1.7534,1.7554,1.7642,1.7785,1.7888,1.7915,1.7915,1.7915,1.7867,1.7701,1.7258,1.676,1.636,1.5551,1.491,1.4448,1.4195,1.4533,1.5009,1.5176,1.5104,1.521,1.5705,1.5957,1.6327,1.6644,1.7034,1.7135,1.7141,1.7107,1.7046,1.6978,1.6931,1.6851,1.6743,1.6632,1.6598,1.6564,1.6469,1.6411,1.6713,1.6949,1.749,1.8042,1.8556,1.892,1.9035,1.9126,1.924,1.9232,1.9151,1.9151,1.9151,1.9224,1.9232,1.9232,1.9329,2.0937,2.0208,2.0094,1.9641,1.8983,1.8909,1.8854,1.8827,1.8861,1.8868,1.8803,1.8925,1.8972,1.8945,1.9122,1.9101,1.8979,1.921,1.9299,1.9339,1.9223,1.9189,1.9081,1.8783,1.8657,1.8552,1.8581,1.8245,1.7962,1.7975,1.8007,1.7935,1.7717,1.7453,1.7877,1.8013,1.7962,1.811,1.8432,1.8663,1.8657,1.8674,1.8593,1.8491,1.8389,1.8321,1.8253,1.8152,1.8063,1.7975,1.786,1.771,1.7738,1.7751,1.7711,1.7582,1.7554,1.7521,1.7473,1.7568,1.7609,1.7738,1.7819,1.7915,1.7915,1.7915,1.7701,1.7258,1.665,1.604,1.5202,1.4742,1.4437,1.4265,1.4265,1.431,1.4481,1.4552,1.4721,1.5055,1.5323,1.5742,1.6611,1.6791,1.7092,1.7365,1.7412,1.7385,1.7365,1.7283,1.7229,1.7128,1.7066,1.6924,1.6856,1.6781,1.6677,1.6656,1.691,1.7257,1.7743,1.8141,1.8566,1.8857,1.9113,1.9197,1.9297,1.9354,1.9345,1.9264,1.9232,1.9289,1.9354,1.937,1.9386,2.0577,2.0025,1.9875,1.9461,1.8943,1.8871,1.8888,1.8847,1.8843,1.883,1.8881,1.8986,1.9054,1.902,1.9264,1.9278,1.9088,1.9217,1.9406,1.9481,1.9454,1.9427,1.9386,1.9184,1.8997,1.856,1.8258,1.8051,1.7936,1.8189,1.8469,1.826,1.7696,1.7715,1.7729,1.7573,1.7493,1.7655,1.8131,1.8306,1.8124,1.859,1.88,1.8654,1.8559,1.839,1.7967,1.7901,1.7708,1.7523,1.7557,1.7773,1.7907,1.7935,1.7921,1.788,1.7798,1.7874,1.786,1.7791,1.7805,1.7846,1.7867,1.7908,1.7915,1.7915,1.7646,1.7037,1.6428,1.5652,1.4486,1.432,1.432,1.432,1.432,1.432,1.432,1.432,1.4375,1.4758,1.5063,1.5622,1.6256,1.665,1.7239,1.7519,1.7684,1.7656,1.7636,1.7555,1.7453,1.7385,1.7344,1.7243,1.7154,1.7065,1.6951,1.7013,1.7167,1.7495,1.7921,1.82,1.8417,1.8802,1.9169,1.9311,1.9386,1.9459,1.9508,1.9427,1.9362,1.9387,1.9379,1.937,1.9362,2.0319,1.9834,1.9716,1.9289,1.8902,1.8918,1.8871,1.8847,1.8898,1.8864,1.8837,1.9074,1.9128,1.9135,1.9461,1.94,1.9203,1.9189,1.94,1.9549,1.961,1.9664,1.9637,1.938,1.9065,1.8163,1.8136,1.8072,1.8163,1.8535,1.8673,1.8819,1.8241,1.7907,1.7918,1.7492,1.723,1.7404,1.7703,1.7749,1.7523,1.8144,1.8397,1.8435,1.837,1.8123,1.7672,1.748,1.7237,1.6605,1.7042,1.746,1.7771,1.8036,1.8124,1.8118,1.8111,1.8138,1.8165,1.8138,1.8063,1.8084,1.8004,1.7929,1.7915,1.786,1.748,1.6816,1.6096,1.5319,1.4431,1.432,1.432,1.432,1.432,1.432,1.432,1.432,1.432,1.4375,1.4703,1.5202,1.5868,1.6373,1.7031,1.7584,1.7805,1.7908,1.7819,1.7785,1.7704,1.7588,1.7534,1.7405,1.7304,1.7235,1.7129,1.7162,1.7313,1.7536,1.7829,1.7879,1.8137,1.8883,1.9251,1.9317,1.9416,1.9581,1.9597,1.9557,1.9557,1.9557,1.9534,1.9444,1.946,1.9851,1.971,1.9422,1.9188,1.9088,1.8898,1.8861,1.8827,1.8875,1.8847,1.8875,1.9074,1.9203,1.925,1.9562,1.9522,1.9366,1.9366,1.9413,1.9515,1.9596,1.9725,1.9698,1.9529,1.9259,1.9192,1.8925,1.8628,1.8339,1.8391,1.8629,1.8254,1.7832,1.7738,1.7944,1.7569,1.7293,1.7336,1.7472,1.7412,1.7359,1.7441,1.7669,1.7669,1.7716,1.7488,1.7265,1.7095,1.692,1.6682,1.6779,1.7029,1.7475,1.7915,1.8154,1.828,1.828,1.8314,1.8342,1.8206,1.8111,1.8057,1.7962,1.7929,1.7922,1.786,1.7424,1.6373,1.543,1.4542,1.4375,1.432,1.432,1.432,1.432,1.432,1.432,1.432,1.432,1.432,1.4486,1.4814,1.5591,1.6206,1.6809,1.7363,1.7749,1.786,1.7902,1.7895,1.7874,1.7758,1.7697,1.7555,1.7419,1.735,1.7254,1.7277,1.7349,1.7307,1.7481,1.7456,1.7807,1.8495,1.8955,1.9107,1.9298,1.9509,1.9711,1.9678,1.9719,1.9819,1.9956,2.0091,1.9997,1.9468,1.9508,1.9217,1.9094,1.9067,1.8945,1.8884,1.8891,1.8959,1.8945,1.8986,1.9176,1.9271,1.9305,1.9522,1.9569,1.9461,1.9434,1.9434,1.9461,1.9583,1.9725,1.9725,1.9576,1.9556,1.9529,1.9468,1.9266,1.8907,1.8907,1.884,1.8826,1.8325,1.8192,1.822,1.785,1.7561,1.7495,1.744,1.7254,1.7001,1.6965,1.702,1.7258,1.724,1.7084,1.6739,1.6627,1.6344,1.6052,1.6203,1.6558,1.7028,1.7516,1.8008,1.8289,1.8359,1.8464,1.8498,1.8409,1.8301,1.8206,1.8063,1.7997,1.7942,1.7805,1.7314,1.6256,1.5424,1.4653,1.4375,1.432,1.432,1.432,1.432,1.432,1.432,1.432,1.432,1.432,1.4431,1.4869,1.5591,1.6206,1.6594,1.7092,1.7639,1.7798,1.7902,1.7895,1.7888,1.7888,1.7772,1.78,1.767,1.7615,1.7499,1.747,1.742,1.7328,1.7238,1.7304,1.7567,1.8107,1.8461,1.8671,1.8979,1.9108,1.9479,1.9859,2.0223,2.0494,2.068,2.0773,2.0645,1.9291,1.9346,1.9115,1.8993,1.8993,1.8993,1.8986,1.902,1.9135,1.9128,1.9081,1.9291,1.9359,1.9345,1.9488,1.9576,1.944,1.9454,1.9474,1.9461,1.959,1.9725,1.9725,1.9725,1.9711,1.9691,1.9691,1.9596,1.9441,1.9421,1.9549,1.9394,1.909,1.8921,1.878,1.8322,1.8007,1.7855,1.7611,1.7247,1.6796,1.6507,1.6536,1.6972,1.702,1.6666,1.6212,1.6135,1.5889,1.5599,1.5658,1.6064,1.657,1.7009,1.7542,1.8128,1.837,1.8559,1.8572,1.8491,1.8308,1.8219,1.8111,1.7989,1.7852,1.7701,1.7258,1.6373,1.5535,1.5036,1.4597,1.4375,1.432,1.432,1.432,1.432,1.432,1.4375,1.4486,1.4486,1.4431,1.4869,1.5591,1.6317,1.6816,1.7054,1.755,1.7717,1.7765,1.7779,1.7785,1.7895,1.7943,1.8012,1.7978,1.7956,1.7799,1.7669,1.7559,1.7475,1.7327,1.7233,1.7548,1.7787,1.7785,1.804,1.8379,1.8765,1.9047,1.9585,2.0535,2.0901,2.0704,2.108,2.1311,1.9291,1.9346,1.9108,1.8993,1.8993,1.9,1.8993,1.902,1.9162,1.9196,1.9189,1.9352,1.9434,1.9454,1.9576,1.9569,1.9508,1.9549,1.9542,1.9468,1.959,1.9725,1.9725,1.9725,1.9725,1.9725,1.9725,1.9718,1.9617,1.961,1.963,1.9657,1.9597,1.9536,1.9353,1.8867,1.8617,1.8495,1.7989,1.7374,1.6776,1.6282,1.6077,1.606,1.6044,1.6005,1.5806,1.579,1.5614,1.5434,1.5314,1.5546,1.6064,1.6513,1.7015,1.7522,1.7944,1.8355,1.8369,1.8301,1.8199,1.8138,1.8009,1.7956,1.7818,1.7535,1.7203,1.6926,1.5979,1.5258,1.498,1.4592,1.4431,1.4375,1.4375,1.4375,1.4375,1.482,1.4875,1.5091,1.5202,1.5202,1.5535,1.6317,1.6982,1.7157,1.7393,1.7573,1.7704,1.7724,1.769,1.7724,1.7847,1.7985,1.8211,1.8197,1.8121,1.7943,1.7832,1.7668,1.7472,1.7324,1.727,1.7447,1.7457,1.765,1.8148,1.8477,1.8686,1.9257,2.0065,2.0321,2.0419,2.0965,2.1784,1.904,1.9169,1.904,1.8993,1.9,1.9074,1.9108,1.9162,1.9359,1.9413,1.9373,1.9495,1.9563,1.9576,1.9698,1.9576,1.9495,1.9596,1.9576,1.9495,1.9583,1.9725,1.9725,1.9725,1.9725,1.9725,1.9725,1.9725,1.9725,1.9725,1.9725,1.9725,1.9725,1.9664,1.9725,1.9414,1.9293,1.911,1.8617,1.7947,1.7276,1.6666,1.6299,1.6299,1.5999,1.5844,1.575,1.5734,1.5674,1.5483,1.5331,1.5456,1.5808,1.6066,1.6312,1.7235,1.7425,1.7815,1.8224,1.824,1.8165,1.8097,1.8016,1.7968,1.7845,1.7701,1.7314,1.6988,1.6539,1.5979,1.5369,1.498,1.4647,1.4481,1.4653,1.4764,1.4875,1.5264,1.5541,1.5763,1.5979,1.5979,1.6034,1.6594,1.7203,1.7515,1.7592,1.7675,1.7738,1.7717,1.765,1.7568,1.7704,1.7875,1.8177,1.8389,1.8383,1.8279,1.8243,1.7989,1.7636,1.7433,1.7426,1.7378,1.7404,1.7669,1.8,1.8263,1.8521,1.9022,1.9529,1.9943,2.0445,2.1327,2.2045,1.8789,1.883,1.8905,1.8932,1.8952,1.9122,1.9196,1.9237,1.9522,1.959,1.9542,1.9664,1.9718,1.9725,1.9711,1.9603,1.9508,1.961,1.9583,1.9563,1.959,1.9718,1.9725,1.9725,1.9725,1.9725,1.9725,1.9725,1.9725,1.9725,1.9725,1.9725,1.9725,1.9725,1.9725,1.9664,1.9603,1.9543,1.8988,1.8434,1.7886,1.7276,1.7032,1.6788,1.6421,1.606,1.5999,1.581,1.575,1.5608,1.5439,1.5513,1.5671,1.5693,1.6024,1.6777,1.7049,1.7426,1.7943,1.8145,1.8138,1.8077,1.803,1.7955,1.7942,1.7915,1.7811,1.7314,1.6982,1.6428,1.5868,1.5591,1.5258,1.5202,1.5208,1.5313,1.548,1.5757,1.6096,1.6317,1.6539,1.6871,1.6982,1.7148,1.748,1.7749,1.7902,1.7881,1.7765,1.7697,1.7629,1.7534,1.7534,1.7657,1.7895,1.823,1.8369,1.8473,1.8375,1.8244,1.7766,1.7629,1.7575,1.7528,1.7426,1.752,1.7713,1.8053,1.8294,1.851,1.8918,1.9928,2.0693,2.1481,2.2082,1.8606,1.8389,1.8667,1.8841,1.881,1.9081,1.9203,1.923,1.9529,1.9711,1.9691,1.9718,1.9725,1.9725,1.9725,1.9718,1.9705,1.9657,1.9637,1.9637,1.9657,1.9711,1.9705,1.9705,1.9718,1.9644,1.9718,1.9725,1.9725,1.9725,1.9725,1.9725,1.9725,1.9725,1.9711,1.9698,1.9684,1.9556,1.9057,1.8834,1.8482,1.7995,1.763,1.7459,1.7032,1.6605,1.6599,1.6177,1.5933,1.5894,1.5636,1.5434,1.5458,1.5478,1.583,1.63,1.6801,1.7216,1.7731,1.7982,1.797,1.7942,1.7942,1.7956,1.7922,1.7915,1.786,1.7756,1.7369,1.7037,1.665,1.6428,1.5979,1.5812,1.5818,1.5985,1.6089,1.62,1.6539,1.6816,1.7092,1.7369,1.748,1.7535,1.759,1.786,1.7812,1.7792,1.7697,1.7568,1.7548,1.748,1.7473,1.7473,1.7473,1.7697,1.7909,1.7978,1.7964,1.795,1.7834,1.7745,1.7697,1.7677,1.7623,1.7548,1.7487,1.7803,1.7976,1.7869,1.8277,1.9205,2.0192,2.1032,2.1572,1.8504,1.8348,1.8698,1.882,1.8841,1.9074,1.9203,1.9257,1.9589,1.9725,1.9725,1.9725,1.9725,1.9725,1.9725,1.9725,1.9725,1.9725,1.9725,1.9725,1.9718,1.9603,1.959,1.9596,1.9617,1.9569,1.9603,1.9725,1.9725,1.9725,1.9725,1.9725,1.9725,1.9725,1.9711,1.9569,1.9529,1.9434,1.922,1.9086,1.9138,1.8587,1.8224,1.8251,1.7703,1.7337,1.7215,1.6666,1.6421,1.621,1.5878,1.5647,1.5456,1.5423,1.5577,1.6049,1.6494,1.697,1.7475,1.7748,1.7915,1.7915,1.7922,1.7915,1.7915,1.7915,1.7915,1.7811,1.7701,1.7424,1.6988,1.6767,1.6539,1.6373,1.6373,1.6594,1.6705,1.6809,1.6975,1.7314,1.748,1.7701,1.7805,1.786,1.786,1.7915,1.7806,1.7751,1.7677,1.7541,1.7527,1.7487,1.7473,1.7433,1.7433,1.7473,1.7467,1.7582,1.765,1.7704,1.7765,1.7833,1.7792,1.7779,1.7758,1.7697,1.767,1.769,1.7752,1.7697,1.7892,1.8252,1.9333,2.0398,2.093,1.845,1.8362,1.8633,1.882,1.8854,1.9033,1.9169,1.9244,1.9474,1.9624,1.9725,1.9725,1.9725,1.9725,1.9725,1.9725,1.9705,1.9617,1.9624,1.9624,1.9596,1.9556,1.9542,1.9529,1.9529,1.9474,1.9515,1.9583,1.9583,1.9637,1.9718,1.9725,1.9718,1.9705,1.9549,1.9447,1.9326,1.9386,1.9312,1.9325,1.9475,1.9139,1.8844,1.8895,1.8373,1.8007,1.7825,1.7398,1.7032,1.6765,1.6408,1.5977,1.5723,1.5563,1.5487,1.586,1.6343,1.6764,1.7207,1.7622,1.7922,1.7915,1.7915,1.7915,1.7915,1.7915,1.7915,1.7915,1.7867,1.7701,1.7258,1.7258,1.7203,1.7031,1.7092,1.7258,1.7369,1.7424,1.7584,1.7805,1.786,1.7867,1.786,1.7915,1.7915,1.7915,1.7895,1.7799,1.7758,1.7677,1.7548,1.7494,1.7473,1.7446,1.7419,1.7446,1.7507,1.7534,1.7595,1.7623,1.7684,1.7772,1.7806,1.7738,1.7738,1.7806,1.7812,1.7834,1.7704,1.7616,1.7847,1.8057,1.8527,1.9535,2.0054,1.8386,1.8362,1.8698,1.882,1.8841,1.8932,1.9074,1.9217,1.94,1.9549,1.9718,1.9725,1.9725,1.9725,1.9725,1.9725,1.9698,1.9542,1.9529,1.9583,1.9563,1.9549,1.9542,1.9515,1.9481,1.944,1.9454,1.9474,1.944,1.9522,1.9657,1.9698,1.9671,1.9576,1.9434,1.9291,1.9291,1.9379,1.925,1.9278,1.9326,1.9273,1.9267,1.924,1.891,1.8594,1.8405,1.7927,1.7617,1.749,1.6967,1.6611,1.6453,1.5924,1.5815,1.6092,1.6515,1.6927,1.7227,1.7684,1.7894,1.7922,1.7915,1.7915,1.7915,1.7915,1.7915,1.7915,1.7915,1.7915,1.7805,1.7811,1.7701,1.7639,1.7701,1.7756,1.7756,1.7756,1.7867,1.7915,1.7915,1.7915,1.7915,1.7915,1.7915,1.7915,1.7915,1.7902,1.7812,1.7772,1.769,1.7629,1.7561,1.7453,1.7453,1.7507,1.7541,1.7555,1.7555,1.7602,1.7636,1.7697,1.7704,1.7622,1.7642,1.7738,1.7792,1.7895,1.7704,1.7589,1.7751,1.8012,1.8322,1.8624,1.9133,1.8362,1.8348,1.864,1.882,1.8841,1.8925,1.9074,1.923,1.9454,1.9617,1.9711,1.9725,1.9725,1.9725,1.9725,1.9725,1.9705,1.9691,1.9617,1.9508,1.9535,1.9454,1.9447,1.9501,1.9461,1.9359,1.9352,1.9359,1.9284,1.9373,1.944,1.9481,1.9508,1.9481,1.9406,1.9291,1.9244,1.9217,1.9081,1.9013,1.923,1.921,1.9223,1.9373,1.914,1.902,1.8966,1.8372,1.8078,1.8043,1.7538,1.7254,1.7151,1.6713,1.6786,1.7001,1.7392,1.7717,1.7874,1.8048,1.7968,1.797,1.7936,1.7936,1.7922,1.7915,1.7915,1.7915,1.7915,1.7915,1.7915,1.786,1.7805,1.7805,1.786,1.7867,1.786,1.786,1.7915,1.7915,1.7915,1.7915,1.7915,1.7915,1.7915,1.7915,1.7915,1.7915,1.7895,1.7895,1.7854,1.7758,1.7697,1.7568,1.7541,1.7582,1.7548,1.748,1.7507,1.7575,1.7656,1.7656,1.7717,1.7745,1.7649,1.7609,1.7731,1.7751,1.7609,1.7568,1.7923,1.7957,1.8005,1.8081,1.8212,1.8321,1.8355,1.864,1.882,1.8834,1.8871,1.902,1.923,1.9522,1.9725,1.9725,1.9725,1.9725,1.9725,1.9725,1.9725,1.9718,1.959,1.9624,1.9501,1.9535,1.9501,1.9488,1.9474,1.94,1.9291,1.9271,1.9278,1.9142,1.9183,1.9264,1.9332,1.9352,1.9345,1.9291,1.9203,1.9122,1.9067,1.8938,1.8963,1.904,1.9081,1.9074,1.9176,1.9157,1.9157,1.9091,1.8853,1.8509,1.8442,1.816,1.7881,1.7846,1.7689,1.7604,1.7626,1.7775,1.8046,1.8215,1.8197,1.8138,1.8063,1.7982,1.7948,1.7976,1.7956,1.7929,1.7915,1.7915,1.7915,1.7915,1.7915,1.7915,1.7915,1.7915,1.7915,1.7915,1.7915,1.7915,1.7915,1.7915,1.7915,1.7915,1.7915,1.7915,1.7915,1.7915,1.7915,1.7915,1.7915,1.7915,1.7826,1.7799,1.7745,1.7697,1.7697,1.7636,1.7467,1.7534,1.769,1.7554,1.7602,1.7704,1.7785,1.7711,1.7609,1.7629,1.7656,1.7684,1.7921,1.835,1.8202,1.782,1.7909,1.8115,1.8321,1.8362,1.8633,1.882,1.882,1.8796,1.8952,1.9223,1.9582,1.9711,1.9718,1.9725,1.9725,1.9725,1.9725,1.9725,1.9711,1.9535,1.9542,1.9569,1.9542,1.9535,1.9535,1.9515,1.9393,1.9271,1.9203,1.9169,1.902,1.9094,1.9169,1.9203,1.923,1.9217,1.9169,1.9094,1.9033,1.8979,1.8884,1.8864,1.8938,1.8972,1.9006,1.9074,1.9108,1.9115,1.9062,1.9024,1.9098,1.8999,1.8793,1.865,1.8479,1.8123,1.7799,1.768,1.7888,1.8175,1.8386,1.8409,1.8335,1.8267,1.8165,1.8118,1.8036,1.7941,1.7936,1.7915,1.7915,1.7915,1.7915,1.7915,1.7915,1.7915,1.7915,1.7915,1.7915,1.7915,1.7915,1.7915,1.7915,1.7915,1.7915,1.7915,1.7915,1.7915,1.7915,1.7915,1.7915,1.7915,1.7915,1.7915,1.7902,1.7908,1.7874,1.7827,1.7745,1.7656,1.7711,1.7779,1.7663,1.7602,1.7717,1.7772,1.769,1.7588,1.7616,1.7718,1.7929,1.8227,1.851,1.8982,1.8708,1.8527,1.857,1.8321,1.8348,1.864,1.882,1.8834,1.8936,1.9033,1.9217,1.942,1.9549,1.9725,1.9725,1.9725,1.9725,1.9725,1.9725,1.9711,1.961,1.9542,1.9535,1.9563,1.9542,1.9542,1.9542,1.9413,1.9278,1.9169,1.9081,1.8911,1.8979,1.9047,1.9061,1.9122,1.9115,1.9061,1.9006,1.8986,1.8945,1.8823,1.8816,1.8881,1.8843,1.8891,1.8911,1.8945,1.8952,1.8959,1.9033,1.9067,1.8954,1.9112,1.9126,1.9019,1.9092,1.9044,1.8879,1.8767,1.8682,1.8708,1.8559,1.842,1.8393,1.8335,1.8199,1.8097,1.8031,1.7936,1.7915,1.7915,1.7915,1.7915,1.7915,1.7915,1.7915,1.7915,1.7915,1.7915,1.7915,1.7915,1.7915,1.7915,1.7915,1.7915,1.7915,1.7915,1.7915,1.7915,1.7915,1.7915,1.7915,1.7915,1.7915,1.797,1.797,1.7977,1.7936,1.7881,1.7819,1.7895,1.7908,1.7847,1.7758,1.7785,1.7772,1.7731,1.7623,1.7507,1.769,1.7854,1.8103,1.8424,1.9102,1.9639,1.9554,1.9476,1.8267,1.8348,1.8572,1.8766,1.8834,1.8857,1.8986,1.9135,1.9279,1.9522,1.9718,1.9725,1.9725,1.9725,1.9725,1.9725,1.9725,1.9711,1.961,1.9596,1.961,1.9596,1.959,1.9576,1.9454,1.9305,1.9156,1.9054,1.8857,1.883,1.8898,1.8905,1.9,1.8972,1.8918,1.8884,1.8891,1.8864,1.8875,1.8834,1.882,1.882,1.882,1.8841,1.8803,1.8843,1.8864,1.8966,1.8952,1.8977,1.9244,1.9284,1.9278,1.9522,1.9529,1.9313,1.9211,1.8941,1.881,1.8755,1.8681,1.8599,1.8484,1.8342,1.8165,1.8072,1.7976,1.7915,1.7915,1.7915,1.7915,1.7915,1.7915,1.7915,1.7915,1.7915,1.7915,1.7915,1.7915,1.7915,1.7915,1.7915,1.7915,1.7915,1.7915,1.7915,1.7915,1.7915,1.7915,1.7915,1.7915,1.7915,1.797,1.8026,1.8081,1.8198,1.8295,1.8233,1.8019,1.8026,1.797,1.7908,1.7888,1.7868,1.7792,1.7807,1.7834,1.7663,1.7724,1.815,1.8977,1.9969,2.069,2.0808,2.0755,1.8186,1.8335,1.8484,1.8647,1.8807,1.8827,1.8857,1.9013,1.9284,1.9495,1.9677,1.9718,1.9725,1.9725,1.9725,1.9725,1.9705,1.963,1.9596,1.963,1.9596,1.9569,1.9549,1.961,1.9413,1.9264,1.9135,1.9013,1.8888,1.8847,1.8854,1.8827,1.8847,1.8861,1.8868,1.8796,1.8861,1.8854,1.8841,1.882,1.882,1.882,1.8834,1.8875,1.8898,1.8986,1.9006,1.904,1.9074,1.9101,1.9162,1.9217,1.9345,1.9474,1.9393,1.9325,1.9257,1.9101,1.8911,1.8837,1.8816,1.8728,1.862,1.847,1.8287,1.807,1.8017,1.7929,1.7915,1.7915,1.7915,1.7915,1.7915,1.7915,1.7915,1.7915,1.7915,1.7915,1.7915,1.7915,1.7915,1.7915,1.7915,1.7915,1.7915,1.7915,1.7915,1.7915,1.7915,1.7915,1.797,1.797,1.797,1.8081,1.8419,1.8585,1.8805,1.8743,1.8474,1.8419,1.853,1.8302,1.7915,1.8122,1.8377,1.8336,1.8342,1.8265,1.853,1.9169,2.0039,2.1061,2.1607,2.1861,2.2107,1.8186,1.8342,1.8599,1.8735,1.882,1.882,1.8909,1.9,1.9176,1.9339,1.9488,1.9603,1.9725,1.9725,1.9725,1.9718,1.963,1.9576,1.9501,1.9495,1.9501,1.9488,1.9386,1.9468,1.9318,1.9135,1.9013,1.8952,1.8861,1.882,1.882,1.882,1.882,1.882,1.882,1.882,1.882,1.882,1.882,1.882,1.882,1.8841,1.8803,1.8898,1.9006,1.9081,1.9142,1.9257,1.9169,1.9101,1.9264,1.9298,1.9271,1.9305,1.9284,1.921,1.9169,1.9067,1.8952,1.8871,1.8823,1.8755,1.864,1.8552,1.8403,1.8172,1.8065,1.7983,1.7929,1.7929,1.7915,1.7915,1.7915,1.7915,1.7915,1.7915,1.7915,1.7915,1.7915,1.7915,1.7915,1.7915,1.7915,1.7915,1.7915,1.7915,1.7915,1.7915,1.7915,1.797,1.8026,1.8026,1.7915,1.8081,1.853,1.8805,1.8971,1.9302,1.9247,1.9192,1.9192,1.8971,1.8798,1.8909,1.9019,1.9184,1.9294,1.939,1.9722,2.0232,2.0755,2.1637,2.2412,2.2716,2.3197,1.8118,1.8335,1.8565,1.8701,1.8813,1.882,1.8875,1.8905,1.9047,1.9189,1.9359,1.9549,1.9725,1.9725,1.9725,1.961,1.959,1.9556,1.944,1.9386,1.944,1.944,1.9406,1.9359,1.9284,1.9122,1.8938,1.8837,1.8827,1.882,1.882,1.882,1.882,1.882,1.882,1.882,1.8827,1.882,1.882,1.8827,1.8841,1.8823,1.8932,1.904,1.9156,1.9217,1.9278,1.9393,1.9325,1.921,1.9291,1.921,1.9189,1.9264,1.923,1.9176,1.9135,1.9094,1.8952,1.8922,1.881,1.8742,1.8701,1.8633,1.8461,1.8308,1.8179,1.8091,1.8058,1.8044,1.7942,1.7915,1.7915,1.7915,1.7915,1.7915,1.7915,1.7915,1.7915,1.7915,1.7915,1.7915,1.7915,1.7915,1.7915,1.7915,1.7915,1.8026,1.8026,1.8302,1.8302,1.8302,1.8302,1.8474,1.8971,1.9081,1.9081,1.9405,1.9963,2.0073,2.0073,1.9845,1.968,2.001,2.023,2.034,2.045,2.0576,2.0788,2.1226,2.1625,2.2118,2.2817,2.3482,2.3819,1.805,1.8294,1.8464,1.8606,1.8786,1.8813,1.882,1.8854,1.8925,1.9061,1.921,1.9495,1.9624,1.9725,1.9718,1.9563,1.9515,1.9535,1.942,1.9345,1.9454,1.9366,1.9325,1.9325,1.9196,1.9061,1.8884,1.8875,1.882,1.882,1.882,1.882,1.882,1.882,1.8827,1.8841,1.8861,1.8847,1.8847,1.8803,1.8843,1.8905,1.902,1.9176,1.9318,1.9413,1.944,1.9461,1.9461,1.9366,1.9284,1.9183,1.9156,1.923,1.9196,1.9156,1.9176,1.9074,1.8932,1.8943,1.8837,1.8796,1.8834,1.8708,1.8586,1.8498,1.8369,1.8267,1.8179,1.8084,1.8038,1.7956,1.7956,1.7936,1.7936,1.7922,1.7915,1.7915,1.797,1.797,1.797,1.797,1.8081,1.8081,1.8136,1.8081,1.8136,1.8136,1.8302,1.8805,1.9129,1.9026,1.8971,1.9247,1.9467,1.9687,1.968,2.023,2.078,2.089,2.089,2.0615,2.0725,2.1384,2.1549,2.1494,2.1683,2.1826,2.2075,2.2303,2.2524,2.2897,2.3352,2.3955,2.4284,1.8077,1.8158,1.8423,1.8552,1.8593,1.8708,1.882,1.8847,1.8918,1.9013,1.9101,1.9332,1.9529,1.9725,1.9725,1.961,1.9556,1.9549,1.9393,1.9264,1.9339,1.923,1.9149,1.9156,1.8993,1.8884,1.8868,1.8841,1.882,1.882,1.882,1.882,1.882,1.8827,1.8841,1.8881,1.8936,1.8895,1.8929,1.8918,1.8884,1.8932,1.8979,1.9101,1.9223,1.9406,1.9535,1.961,1.9542,1.9427,1.9305,1.921,1.9183,1.921,1.9183,1.9128,1.9149,1.9047,1.8925,1.8915,1.8854,1.8841,1.882,1.8813,1.8687,1.8687,1.8565,1.8464,1.8375,1.8287,1.8186,1.8063,1.8023,1.8024,1.7997,1.7942,1.7915,1.8026,1.8136,1.8191,1.8302,1.8467,1.8805,1.8916,1.9026,1.9081,1.9294,1.9294,1.935,1.9625,1.9955,1.99,1.9845,1.9632,1.9687,2.045,2.0725,2.1219,2.1713,2.1987,2.1932,2.1384,2.1603,2.2535,2.2644,2.2535,2.2734,2.3034,2.313,2.3283,2.3421,2.3705,2.4108,2.4339,2.453]},{"header":{"parameterUnit":"m.s-1","parameterCategory":1,"la1":31.0,"la2":29.5877,"lo1":-88.7671,"lo2":-86.6584,"dy":0.0162,"dx":0.0185,"nx":115,"ny":88,"refTime":"2023-09-30T18:00:00:Z","depth":0,"parameterNumber":3,"parameterNumberName":"V-component_of_WINDS"},"data":[0.0,0.0,0.0,0.0,0.0,0.0,0.0,0.0,0.0,0.0,0.0,0.0,0.0,0.0,0.0,0.0,0.0,0.0,0.0,0.0,0.0,0.0,0.0,0.0,0.0,0.0,0.0,0.0,0.0,0.0,0.0,0.0,0.0,0.0,0.0,0.0,0.0,0.0,0.0,0.0,0.0,0.0,0.0,0.0,0.0,0.0,0.0,0.0,0.0,0.0,0.0,0.0,0.0,0.0,0.0,0.0,0.0,0.0,0.0,0.0,0.0,0.0,0.0,0.0,0.0,0.0,0.0,0.0,0.0,0.0,0.0,0.0,0.0,0.0,0.0,0.0,0.0,0.0,0.0,0.0,0.0,0.0,0.0,0.0,0.0,0.0,0.0,0.0,0.0,0.0,0.0,0.0,0.0,0.0,0.0,0.0,0.0,0.0,0.0,0.0,0.0,0.0,0.0,0.0,0.0,0.0,0.0,0.0,0.0,0.0,0.0,0.0,0.0,0.0,0.0,0.0,0.0,0.0,0.0,0.0,0.0,0.0,0.0,0.0,0.0,0.0,0.0,0.0,0.0,0.0,0.0,0.0,0.0,0.0,0.0,0.0,0.0,0.0,0.0,0.0,0.0,0.0,0.0,0.0,0.0,0.0,0.0,0.0,0.0,0.0,0.0,0.0,0.0,0.0,0.0,0.0,0.0,0.0,0.0,0.0,0.0,0.0,0.0,0.0,0.0,0.0,0.0,0.0,0.0,0.0,0.0,0.0,0.0,0.0,0.0,0.0,0.0,0.0,0.0,0.0,0.0,0.0,0.0,0.0,0.0,0.0,0.0,0.0,0.0,0.0,0.0,0.0,0.0,0.0,0.0,0.0,0.0,0.0,0.0,0.0,0.0,0.0,0.0,0.0,0.0,0.0,0.0,0.0,0.0,0.0,0.0,0.0,0.0,0.0,0.0,0.0,0.0,0.0,0.0,0.0,0.0,0.0,0.0,0.0,0.0,0.0,0.0,0.0,0.0,0.0,0.0,0.0,0.0,0.0,0.0,0.0,0.0,0.0,0.0,0.0,0.0,0.0,0.0,0.0,0.0,0.0,0.0,0.0,0.0,0.0,0.0,0.0,0.0,0.0,0.0,0.0,0.0,0.0,0.0,0.0,0.0,0.0,0.0,0.0,0.0,0.0,0.0,0.0,0.0,0.0,0.0,0.0,0.0,0.0,0.0,0.0,0.0,0.0,0.0,0.0,0.0,0.0,0.0,0.0,0.0,0.0,0.0,0.0,0.0,0.0,0.0,0.0,0.0,0.0,0.0,0.0,0.0,0.0,0.0,0.0,0.0,0.0,0.0,0.0,0.0,0.0,0.0,0.0,0.0,0.0,0.0,0.0,0.0,0.0,0.0,0.0,0.0,0.0,0.0,0.0,0.0,0.0,0.0,0.0,0.0,0.0,0.0,0.0,0.0,0.0,0.0,0.0,0.0,0.0,0.0,0.0,0.0,0.0,0.0,0.0,0.0,0.0,0.0,0.0,0.0,0.0,0.0,0.0,0.0,0.0,0.0,0.0,0.0,0.0,0.0,0.0,0.0,0.0,0.0,0.0,0.0,0.0,0.0,0.0,0.0,0.0,0.0,0.0,0.0,0.0,0.0,0.0,0.0,0.0,0.0,0.0,0.0,0.0,0.0,0.0,0.0,0.0,0.0,0.0,0.0,0.0,0.0,0.0,0.0,0.0,0.0,0.0,0.0,0.0,0.0,0.0,0.0,0.0,0.0,0.0,0.0,0.0,0.0,0.0,0.0,0.0,0.0,0.0,0.0,0.0,0.0,0.0,0.0,0.0,0.0,0.0,0.0,0.0,0.0,0.0,0.0,0.0,0.0,0.0,0.0,0.0,0.0,0.0,0.0,0.0,0.0,0.0,0.0,0.0,0.0,0.0,0.0,0.0,0.0,0.0,0.0,0.0,0.0,0.0,0.0,0.0,0.0,0.0,0.0,0.0,0.0,0.0,0.0,0.0,0.0,0.0,0.0,0.0,0.0,0.0,0.0,0.0,0.0,0.0,0.0,0.0,0.0,0.0,0.0,0.0,0.0,0.0,0.0,0.0,0.0,0.0,0.0,0.0,0.0,0.0,0.0,0.0,0.0,0.0,0.0,0.0,0.0,0.0,0.0,0.0,0.0,0.0,0.0,0.0,0.0,0.0,0.0,0.0,0.0,0.0,0.0,0.0,0.0,0.0,0.0,0.0,0.0,0.0,0.0,0.0,0.0,0.0,0.0,0.0,0.0,0.0,0.0,0.0,0.0,0.0,0.0,0.0,0.0,0.0,0.0,0.0,0.0,0.0,0.0,0.0,0.0,0.0,0.0,0.0,0.0,0.0,0.0,0.0,0.0,0.0,0.0,0.0,0.0,0.0,0.0,0.0,0.0,0.0,0.0,0.0,0.0,0.0,0.0,0.0,0.0,0.0,0.0,0.0,0.0,0.0,0.0,0.0,0.0,0.0,0.0,0.0,0.0,0.0,0.0,0.0,0.0,0.0,0.0,0.0,0.0,0.0,0.0,0.0,0.0,0.0,0.0,0.0,0.0,0.0,0.0,0.0,0.0,0.0,0.0,0.0,0.0,0.0,0.0,0.0,0.0,0.0,0.0,0.0,0.0,0.0,0.0,0.0,0.0,0.0,0.0,0.0,0.0,0.0,0.0,0.0,0.0,0.0,0.0,0.0,0.0,0.0,0.0,0.0,0.0,0.0,0.0,0.0,0.0,0.0,0.0,0.0,0.0,0.0,0.0,0.0,0.0,0.0,0.0,0.0,0.0,0.0,0.0,0.0,0.0,0.0,0.0,0.0,0.0,0.0,0.0,0.0,0.0,0.0,0.0,0.0,0.0,0.0,0.0,0.0,0.0,0.0,0.0,0.0,0.0,0.0,0.0,0.0,0.0,0.0,0.0,0.0,0.0,0.0,0.0,0.0,0.0,0.0,0.0,0.0,0.0,0.0,0.0,0.0,0.0,0.0,0.0,0.0,0.0,0.0,0.0,0.0,0.0,0.0,0.0,0.0,0.0,0.0,0.0,0.0,0.0,0.0,0.0,0.0,0.0,0.0,0.0,0.0,0.0,0.0,0.0,0.0,0.0,0.0,0.0,0.0,0.0,0.0,0.0,0.0,0.0,0.0,0.0,0.0,0.0,0.0,0.0,0.0,0.0,0.0,0.0,0.0,0.0,0.0,0.0,0.0,0.0,0.0,0.0,0.0,0.0,0.0,0.0,0.0,0.0,0.0,0.0,0.0,0.0,0.0,0.0,0.0,0.0,0.0,0.0,0.0,0.0,0.0,0.0,0.0,0.0,0.0,0.0,0.0,0.0,0.0,0.0,0.0,0.0,0.0,0.0,0.0,0.0,0.0,0.0,0.0,0.0,0.0,0.0,0.0,0.0,0.0,0.0,0.0,0.0,0.0,0.0,0.0,0.0,0.0,0.0,0.0,0.0,0.0,0.0,0.0,0.0,0.0,0.0,0.0,0.0,0.0,0.0,0.0,0.0,0.0,0.0,0.0,0.0,0.0,0.0,0.0,0.0,0.0,0.0,0.0,0.0,0.0,0.0,0.0,0.0,0.0,0.0,0.0,0.0,0.0,0.0,0.0,0.0,0.0,0.0,0.0,0.0,0.0,0.0,0.0,0.0,0.0,0.0,0.0,0.0,0.0,0.0,0.0,0.0,0.0,0.0,0.0,0.0,0.0,0.0,0.0,0.0,0.0,0.0,0.0,0.0,0.0,0.0,0.0,0.0,0.0,0.0,0.0,0.0,0.0,0.0,0.0,0.0,0.0,0.0,0.0,0.0,0.0,0.0,0.0,0.0,0.0,0.0,0.0,0.0,0.0,0.0,0.0,0.0,0.0,0.0,0.0,0.0,0.0,0.0,0.0,0.0,0.0,0.0,0.0,0.0,0.0,0.0,0.0,0.0,0.0,0.0,0.0,0.0,0.0,0.0,0.0,0.0,0.0,0.0,0.0,0.0,0.0,0.0,0.0,0.0,0.0,0.0,0.0,0.0,0.0,0.0,0.0,0.0,0.0,0.0,0.0,0.0,0.0,0.0,0.0,0.0,0.0,0.0,0.0,0.0,0.0,0.0,0.0,0.0,0.0,0.0,0.0,0.0,0.0,0.0,0.0,0.0,0.0,0.0,0.0,0.0,0.0,0.0,0.0,0.0,0.0,0.0,0.0,0.0,0.0,0.0,0.0,0.0,0.0,0.0,0.0,0.0,0.0,0.0,0.0,4.8778,0.0,0.0,0.0,0.0,0.0,0.0,0.0,0.0,0.0,0.0,0.0,0.0,0.0,0.0,0.0,0.0,0.0,0.0,0.0,0.0,0.0,0.0,0.0,0.0,0.0,0.0,0.0,0.0,0.0,0.0,0.0,0.0,0.0,0.0,0.0,0.0,0.0,0.0,0.0,0.0,0.0,0.0,0.0,0.0,0.0,0.0,0.0,0.0,0.0,0.0,0.0,0.0,0.0,0.0,0.0,0.0,0.0,0.0,0.0,0.0,0.0,0.0,0.0,0.0,0.0,0.0,0.0,0.0,0.0,0.0,0.0,0.0,0.0,0.0,0.0,0.0,0.0,0.0,0.0,0.0,0.0,0.0,0.0,0.0,0.0,0.0,0.0,0.0,0.0,0.0,0.0,0.0,0.0,0.0,0.0,0.0,0.0,0.0,0.0,0.0,0.0,0.0,0.0,0.0,0.0,0.0,0.0,0.0,0.0,0.0,4.9003,4.8862,4.8862,4.8853,4.8899,0.0,0.0,0.0,0.0,0.0,0.0,0.0,0.0,0.0,0.0,0.0,0.0,0.0,0.0,0.0,0.0,0.0,0.0,0.0,0.0,0.0,0.0,0.0,0.0,0.0,0.0,0.0,0.0,0.0,0.0,0.0,0.0,0.0,0.0,0.0,0.0,0.0,0.0,0.0,0.0,0.0,0.0,0.0,0.0,0.0,0.0,0.0,0.0,0.0,0.0,0.0,0.0,0.0,0.0,0.0,0.0,0.0,0.0,0.0,0.0,0.0,0.0,0.0,0.0,0.0,0.0,0.0,0.0,0.0,0.0,0.0,0.0,0.0,0.0,0.0,0.0,0.0,0.0,0.0,0.0,0.0,0.0,0.0,0.0,0.0,0.0,0.0,0.0,0.0,0.0,0.0,0.0,0.0,0.0,0.0,0.0,0.0,0.0,0.0,0.0,0.0,0.0,0.0,0.0,0.0,0.0,0.0,0.0,0.0,0.0,0.0,0.0,4.9106,4.9098,4.9106,0.0,0.0,0.0,0.0,0.0,0.0,0.0,0.0,0.0,0.0,0.0,0.0,0.0,0.0,0.0,0.0,0.0,0.0,0.0,0.0,0.0,0.0,0.0,0.0,0.0,0.0,0.0,0.0,0.0,0.0,0.0,0.0,0.0,0.0,0.0,0.0,0.0,0.0,0.0,0.0,0.0,0.0,0.0,0.0,0.0,0.0,0.0,0.0,0.0,0.0,0.0,0.0,0.0,0.0,0.0,0.0,0.0,0.0,0.0,0.0,0.0,0.0,0.0,0.0,0.0,0.0,0.0,0.0,0.0,0.0,0.0,0.0,0.0,0.0,0.0,0.0,0.0,0.0,0.0,0.0,0.0,0.0,0.0,0.0,0.0,0.0,0.0,0.0,0.0,0.0,0.0,0.0,0.0,0.0,0.0,0.0,0.0,0.0,0.0,0.0,0.0,0.0,0.0,0.0,0.0,0.0,0.0,0.0,0.0,0.0,4.9726,4.9469,4.9461,0.0,4.9469,0.0,0.0,0.0,0.0,0.0,0.0,0.0,0.0,0.0,0.0,0.0,0.0,0.0,0.0,0.0,0.0,0.0,0.0,0.0,0.0,0.0,0.0,0.0,0.0,0.0,0.0,0.0,0.0,0.0,0.0,0.0,0.0,0.0,0.0,0.0,0.0,0.0,0.0,0.0,0.0,0.0,0.0,0.0,0.0,0.0,0.0,0.0,0.0,0.0,0.0,0.0,0.0,0.0,0.0,0.0,0.0,0.0,0.0,0.0,0.0,0.0,0.0,0.0,0.0,0.0,0.0,0.0,0.0,0.0,0.0,0.0,0.0,0.0,0.0,0.0,0.0,0.0,0.0,0.0,0.0,0.0,0.0,0.0,0.0,0.0,0.0,0.0,0.0,0.0,0.0,0.0,0.0,0.0,0.0,0.0,0.0,0.0,0.0,0.0,0.0,0.0,0.0,0.0,0.0,0.0,0.0,0.0,0.0,0.0,0.0,4.9817,4.9683,4.9633,4.9618,0.0,0.0,0.0,0.0,0.0,0.0,0.0,0.0,0.0,0.0,0.0,0.0,0.0,0.0,0.0,0.0,0.0,0.0,0.0,0.0,0.0,0.0,0.0,0.0,0.0,0.0,0.0,0.0,0.0,0.0,0.0,0.0,0.0,0.0,0.0,0.0,0.0,0.0,0.0,0.0,0.0,0.0,0.0,0.0,0.0,0.0,0.0,0.0,0.0,0.0,0.0,0.0,0.0,0.0,0.0,0.0,0.0,0.0,0.0,0.0,0.0,0.0,0.0,0.0,0.0,0.0,0.0,0.0,0.0,0.0,0.0,0.0,0.0,0.0,0.0,0.0,0.0,0.0,0.0,0.0,0.0,0.0,0.0,0.0,0.0,0.0,0.0,0.0,0.0,0.0,0.0,0.0,0.0,0.0,0.0,0.0,0.0,0.0,0.0,0.0,0.0,0.0,0.0,0.0,0.0,0.0,0.0,0.0,0.0,0.0,4.9893,4.9859,4.9841,4.9792,4.9757,4.9764,0.0,0.0,0.0,0.0,0.0,0.0,0.0,0.0,0.0,0.0,0.0,0.0,0.0,0.0,0.0,0.0,0.0,0.0,0.0,0.0,0.0,0.0,0.0,0.0,0.0,0.0,0.0,0.0,0.0,0.0,0.0,0.0,0.0,0.0,0.0,0.0,0.0,0.0,0.0,0.0,0.0,0.0,0.0,0.0,0.0,0.0,0.0,0.0,0.0,0.0,0.0,0.0,0.0,0.0,0.0,0.0,0.0,0.0,0.0,0.0,0.0,0.0,0.0,0.0,0.0,0.0,0.0,0.0,0.0,0.0,0.0,0.0,0.0,0.0,0.0,0.0,0.0,0.0,0.0,0.0,0.0,0.0,0.0,0.0,0.0,0.0,0.0,0.0,0.0,0.0,0.0,0.0,0.0,0.0,0.0,0.0,0.0,0.0,0.0,0.0,0.0,0.0,0.0,0.0,0.0,0.0,0.0,0.0,4.9893,4.9893,4.9886,4.9879,4.9917,4.9879,0.0,0.0,0.0,0.0,0.0,0.0,0.0,0.0,0.0,0.0,0.0,0.0,0.0,0.0,0.0,0.0,0.0,0.0,0.0,0.0,0.0,0.0,0.0,0.0,0.0,0.0,0.0,0.0,0.0,0.0,0.0,0.0,0.0,0.0,0.0,0.0,0.0,0.0,0.0,0.0,0.0,0.0,0.0,0.0,0.0,0.0,0.0,0.0,0.0,0.0,0.0,0.0,0.0,0.0,0.0,0.0,0.0,0.0,0.0,0.0,0.0,0.0,0.0,0.0,0.0,0.0,0.0,0.0,0.0,0.0,0.0,0.0,0.0,0.0,0.0,0.0,0.0,0.0,0.0,0.0,0.0,0.0,0.0,0.0,0.0,0.0,0.0,0.0,0.0,0.0,0.0,0.0,0.0,0.0,0.0,0.0,0.0,0.0,0.0,0.0,0.0,0.0,0.0,0.0,0.0,0.0,0.0,0.0,0.0,4.9893,4.9926,4.9971,4.9893,4.9926,4.9933,0.0,0.0,0.0,0.0,0.0,0.0,0.0,0.0,0.0,0.0,0.0,0.0,0.0,0.0,0.0,0.0,0.0,0.0,0.0,0.0,0.0,0.0,0.0,0.0,0.0,0.0,0.0,0.0,0.0,0.0,0.0,0.0,0.0,0.0,0.0,0.0,0.0,0.0,0.0,0.0,0.0,0.0,0.0,0.0,0.0,0.0,0.0,0.0,0.0,0.0,0.0,0.0,0.0,0.0,0.0,0.0,0.0,0.0,0.0,0.0,0.0,0.0,0.0,0.0,0.0,0.0,0.0,0.0,0.0,0.0,0.0,0.0,0.0,0.0,0.0,0.0,0.0,0.0,0.0,0.0,0.0,0.0,0.0,0.0,0.0,0.0,0.0,0.0,0.0,0.0,0.0,0.0,0.0,0.0,0.0,0.0,0.0,0.0,0.0,0.0,0.0,0.0,0.0,0.0,0.0,0.0,0.0,0.0,0.0,4.9953,0.0,5.025,4.9953,4.9725,4.9681,0.0,0.0,0.0,0.0,0.0,0.0,0.0,0.0,0.0,0.0,0.0,0.0,0.0,0.0,0.0,0.0,0.0,0.0,0.0,0.0,0.0,0.0,0.0,0.0,0.0,0.0,0.0,0.0,0.0,0.0,0.0,0.0,0.0,0.0,0.0,0.0,0.0,0.0,0.0,0.0,0.0,0.0,0.0,0.0,0.0,0.0,0.0,0.0,0.0,0.0,0.0,0.0,0.0,0.0,0.0,0.0,0.0,0.0,0.0,0.0,0.0,0.0,0.0,0.0,0.0,0.0,0.0,0.0,0.0,0.0,0.0,0.0,0.0,0.0,0.0,0.0,0.0,0.0,0.0,0.0,0.0,0.0,0.0,0.0,0.0,0.0,0.0,0.0,0.0,0.0,0.0,0.0,0.0,0.0,0.0,0.0,0.0,0.0,0.0,0.0,0.0,0.0,0.0,0.0,0.0,0.0,0.0,0.0,5.012,5.0114,5.0788,5.0788,5.0108,4.9283,4.9168,0.0,0.0,0.0,0.0,0.0,0.0,0.0,0.0,0.0,0.0,0.0,0.0,0.0,0.0,0.0,0.0,0.0,0.0,0.0,0.0,0.0,0.0,0.0,0.0,0.0,0.0,0.0,0.0,0.0,0.0,0.0,0.0,0.0,0.0,0.0,0.0,0.0,0.0,0.0,0.0,0.0,0.0,0.0,0.0,0.0,0.0,0.0,0.0,0.0,0.0,0.0,0.0,0.0,0.0,0.0,0.0,0.0,0.0,0.0,0.0,0.0,0.0,0.0,0.0,0.0,0.0,0.0,0.0,0.0,0.0,0.0,0.0,0.0,0.0,0.0,0.0,0.0,0.0,0.0,0.0,0.0,0.0,0.0,0.0,0.0,0.0,0.0,0.0,0.0,0.0,0.0,0.0,0.0,0.0,0.0,0.0,0.0,0.0,0.0,0.0,0.0,0.0,0.0,0.0,0.0,0.0,0.0,0.0,0.0,5.0158,5.0361,5.0393,5.012,5.0393,5.0354,0.0,0.0,0.0,0.0,0.0,0.0,0.0,0.0,0.0,0.0,0.0,0.0,0.0,0.0,0.0,0.0,0.0,0.0,0.0,0.0,0.0,0.0,0.0,0.0,0.0,0.0,0.0,0.0,0.0,0.0,0.0,0.0,0.0,0.0,0.0,0.0,0.0,0.0,0.0,0.0,0.0,0.0,0.0,0.0,0.0,0.0,0.0,0.0,0.0,0.0,0.0,0.0,0.0,0.0,0.0,0.0,0.0,0.0,0.0,0.0,0.0,0.0,0.0,0.0,0.0,0.0,0.0,0.0,0.0,0.0,0.0,0.0,0.0,0.0,0.0,0.0,0.0,0.0,0.0,0.0,0.0,0.0,0.0,0.0,0.0,0.0,0.0,0.0,0.0,0.0,0.0,0.0,0.0,0.0,0.0,0.0,0.0,0.0,0.0,0.0,0.0,0.0,0.0,0.0,0.0,0.0,0.0,0.0,0.0,5.127,5.1508,5.1495,5.119,5.1046,5.0977,5.0944,0.0,0.0,0.0,0.0,0.0,0.0,0.0,0.0,0.0,0.0,0.0,0.0,0.0,0.0,0.0,0.0,0.0,0.0,0.0,0.0,0.0,0.0,0.0,0.0,0.0,0.0,0.0,0.0,0.0,0.0,0.0,0.0,0.0,0.0,0.0,0.0,0.0,0.0,0.0,0.0,0.0,0.0,0.0,0.0,0.0,0.0,0.0,0.0,0.0,0.0,0.0,0.0,0.0,0.0,0.0,0.0,0.0,0.0,0.0,0.0,0.0,0.0,0.0,0.0,0.0,0.0,0.0,0.0,0.0,0.0,0.0,0.0,0.0,0.0,0.0,0.0,0.0,0.0,0.0,0.0,0.0,0.0,0.0,0.0,0.0,0.0,0.0,0.0,0.0,0.0,0.0,0.0,0.0,0.0,0.0,0.0,0.0,0.0,0.0,0.0,0.0,0.0,0.0,0.0,0.0,0.0,0.0,0.0,5.3173,5.379,5.3722,5.3009,5.1356,5.1109,0.0,0.0,0.0,0.0,0.0,0.0,0.0,0.0,0.0,0.0,0.0,0.0,0.0,0.0,0.0,0.0,0.0,0.0,0.0,0.0,0.0,0.0,0.0,0.0,0.0,0.0,0.0,0.0,0.0,0.0,0.0,0.0,0.0,0.0,0.0,0.0,0.0,0.0,0.0,0.0,0.0,0.0,0.0,0.0,0.0,0.0,0.0,0.0,0.0,0.0,0.0,0.0,0.0,0.0,0.0,0.0,0.0,0.0,0.0,0.0,0.0,0.0,0.0,0.0,0.0,0.0,0.0,0.0,0.0,0.0,0.0,0.0,0.0,0.0,0.0,0.0,0.0,0.0,0.0,0.0,0.0,0.0,0.0,0.0,0.0,0.0,0.0,0.0,0.0,0.0,0.0,0.0,0.0,0.0,0.0,0.0,0.0,0.0,0.0,0.0,0.0,0.0,0.0,0.0,0.0,0.0,0.0,0.0,0.0,5.4128,5.4395,5.4145,5.3254,5.3124,5.27,0.0,0.0,0.0,0.0,0.0,0.0,0.0,0.0,0.0,0.0,0.0,0.0,0.0,0.0,0.0,0.0,0.0,0.0,0.0,0.0,0.0,0.0,0.0,0.0,0.0,0.0,0.0,0.0,0.0,0.0,0.0,0.0,0.0,0.0,0.0,0.0,0.0,0.0,0.0,0.0,0.0,0.0,0.0,0.0,0.0,0.0,0.0,0.0,0.0,0.0,0.0,0.0,0.0,0.0,0.0,0.0,0.0,0.0,0.0,0.0,0.0,0.0,0.0,0.0,0.0,0.0,0.0,0.0,0.0,0.0,0.0,0.0,0.0,0.0,0.0,0.0,0.0,0.0,0.0,0.0,0.0,0.0,0.0,0.0,0.0,0.0,0.0,0.0,0.0,0.0,0.0,0.0,0.0,0.0,0.0,0.0,0.0,0.0,0.0,0.0,0.0,0.0,0.0,0.0,0.0,0.0,0.0,0.0,5.4601,5.5017,5.5272,5.5114,5.4556,5.3633,5.3025,0.0,0.0,0.0,0.0,0.0,0.0,0.0,0.0,0.0,0.0,0.0,0.0,0.0,0.0,0.0,0.0,0.0,0.0,0.0,0.0,0.0,0.0,0.0,0.0,0.0,0.0,0.0,0.0,0.0,0.0,0.0,0.0,0.0,0.0,0.0,0.0,0.0,0.0,0.0,0.0,0.0,0.0,0.0,0.0,0.0,0.0,0.0,0.0,0.0,0.0,0.0,0.0,0.0,0.0,0.0,0.0,0.0,0.0,0.0,0.0,0.0,0.0,0.0,0.0,0.0,0.0,0.0,0.0,0.0,0.0,0.0,0.0,0.0,0.0,0.0,0.0,0.0,0.0,0.0,0.0,0.0,0.0,0.0,0.0,0.0,0.0,0.0,0.0,0.0,0.0,0.0,0.0,0.0,0.0,0.0,0.0,0.0,0.0,0.0,0.0,0.0,0.0,0.0,0.0,0.0,0.0,0.0,0.0,5.5232,5.5947,5.6262,5.6478,5.6482,5.3782,5.2876,0.0,0.0,0.0,0.0,0.0,0.0,0.0,0.0,0.0,0.0,0.0,0.0,0.0,0.0,0.0,0.0,0.0,0.0,0.0,0.0,0.0,0.0,0.0,0.0,0.0,0.0,0.0,0.0,0.0,0.0,0.0,0.0,0.0,0.0,0.0,0.0,0.0,0.0,0.0,0.0,0.0,0.0,0.0,0.0,0.0,0.0,0.0,0.0,0.0,0.0,0.0,0.0,0.0,0.0,0.0,0.0,0.0,0.0,0.0,0.0,0.0,0.0,0.0,0.0,0.0,0.0,0.0,0.0,0.0,0.0,0.0,0.0,0.0,0.0,0.0,0.0,0.0,0.0,0.0,0.0,0.0,0.0,0.0,0.0,0.0,0.0,0.0,0.0,0.0,0.0,0.0,0.0,0.0,0.0,0.0,0.0,0.0,0.0,0.0,0.0,0.0,0.0,0.0,0.0,0.0,0.0,0.0,0.0,5.669,5.7063,5.7222,5.7622,5.8269,5.6089,5.4721,0.0,0.0,0.0,0.0,0.0,0.0,0.0,0.0,0.0,0.0,0.0,0.0,0.0,0.0,0.0,0.0,0.0,0.0,0.0,0.0,0.0,0.0,0.0,0.0,0.0,0.0,0.0,0.0,0.0,0.0,0.0,0.0,0.0,0.0,0.0,0.0,0.0,0.0,0.0,0.0,0.0,0.0,0.0,0.0,0.0,0.0,0.0,0.0,5.4636,0.0,0.0,0.0,0.0,0.0,0.0,0.0,0.0,0.0,0.0,0.0,0.0,0.0,0.0,0.0,0.0,0.0,0.0,0.0,0.0,0.0,0.0,0.0,0.0,0.0,0.0,0.0,0.0,0.0,0.0,0.0,0.0,0.0,0.0,0.0,0.0,0.0,0.0,0.0,0.0,0.0,0.0,0.0,0.0,0.0,0.0,0.0,0.0,0.0,0.0,0.0,0.0,0.0,0.0,0.0,0.0,0.0,0.0,0.0,5.7766,5.7978,5.8129,5.8406,5.8732,5.7262,5.6015,0.0,0.0,0.0,0.0,0.0,0.0,0.0,0.0,0.0,0.0,0.0,0.0,0.0,0.0,0.0,0.0,0.0,0.0,0.0,0.0,0.0,0.0,0.0,0.0,0.0,0.0,0.0,0.0,0.0,0.0,0.0,0.0,0.0,0.0,0.0,0.0,0.0,0.0,0.0,0.0,0.0,0.0,0.0,0.0,0.0,0.0,0.0,0.0,0.0,0.0,0.0,0.0,0.0,0.0,0.0,0.0,0.0,0.0,0.0,0.0,0.0,0.0,0.0,0.0,0.0,0.0,0.0,0.0,0.0,0.0,0.0,0.0,0.0,0.0,0.0,0.0,0.0,0.0,0.0,0.0,0.0,0.0,0.0,0.0,0.0,0.0,0.0,0.0,0.0,0.0,0.0,0.0,0.0,0.0,0.0,0.0,0.0,0.0,0.0,0.0,0.0,0.0,0.0,0.0,0.0,0.0,0.0,5.7659,5.8663,5.8839,5.9114,5.9232,5.9163,5.8242,5.7211,5.615,0.0,0.0,0.0,0.0,0.0,0.0,0.0,0.0,0.0,0.0,0.0,0.0,0.0,0.0,0.0,0.0,0.0,0.0,0.0,0.0,0.0,0.0,0.0,0.0,0.0,0.0,0.0,0.0,0.0,0.0,0.0,0.0,0.0,0.0,0.0,0.0,0.0,0.0,5.4415,5.4963,0.0,0.0,0.0,0.0,0.0,0.0,0.0,0.0,5.5075,0.0,0.0,0.0,0.0,0.0,0.0,0.0,0.0,0.0,0.0,0.0,0.0,0.0,0.0,0.0,0.0,0.0,0.0,0.0,0.0,0.0,0.0,0.0,0.0,0.0,0.0,0.0,0.0,0.0,0.0,0.0,0.0,0.0,0.0,0.0,0.0,0.0,0.0,0.0,0.0,0.0,0.0,0.0,0.0,0.0,0.0,0.0,0.0,0.0,0.0,0.0,0.0,0.0,0.0,0.0,0.0,5.686,5.8553,5.9589,5.9918,6.0614,6.0996,6.0946,6.0022,5.8999,5.7887,0.0,0.0,0.0,0.0,0.0,0.0,0.0,0.0,0.0,0.0,0.0,0.0,0.0,0.0,0.0,0.0,0.0,0.0,0.0,0.0,0.0,0.0,0.0,0.0,0.0,0.0,0.0,0.0,0.0,0.0,0.0,0.0,0.0,0.0,0.0,0.0,0.0,0.0,0.0,5.5395,5.5434,0.0,0.0,0.0,0.0,0.0,0.0,0.0,0.0,5.516,0.0,0.0,0.0,0.0,0.0,0.0,0.0,0.0,0.0,0.0,0.0,0.0,0.0,0.0,0.0,0.0,0.0,0.0,0.0,0.0,0.0,0.0,0.0,0.0,0.0,0.0,0.0,0.0,0.0,0.0,0.0,0.0,0.0,0.0,0.0,0.0,0.0,0.0,0.0,0.0,0.0,0.0,0.0,0.0,0.0,0.0,0.0,0.0,0.0,0.0,0.0,0.0,0.0,0.0,0.0,5.8404,5.9708,6.0511,6.0815,6.119,6.1416,6.1373,6.041,5.9425,0.0,0.0,0.0,0.0,0.0,0.0,0.0,0.0,0.0,0.0,0.0,0.0,0.0,0.0,0.0,0.0,0.0,0.0,0.0,0.0,0.0,0.0,0.0,0.0,0.0,0.0,0.0,0.0,0.0,0.0,0.0,0.0,0.0,0.0,0.0,0.0,0.0,0.0,0.0,0.0,5.6193,5.637,5.6967,0.0,0.0,0.0,0.0,0.0,0.0,5.683,5.6605,0.0,0.0,0.0,0.0,0.0,0.0,0.0,0.0,0.0,0.0,0.0,0.0,0.0,0.0,0.0,0.0,0.0,0.0,0.0,0.0,0.0,0.0,0.0,0.0,0.0,0.0,0.0,0.0,0.0,0.0,0.0,0.0,0.0,0.0,0.0,0.0,0.0,0.0,0.0,0.0,0.0,0.0,0.0,0.0,0.0,0.0,0.0,0.0,0.0,0.0,0.0,0.0,0.0,0.0,0.0,5.958,6.0581,6.122,6.137,6.1416,6.1416,6.1373,6.0536,5.963,0.0,0.0,0.0,0.0,0.0,0.0,0.0,0.0,0.0,0.0,0.0,0.0,0.0,0.0,0.0,0.0,0.0,0.0,0.0,0.0,0.0,0.0,0.0,0.0,0.0,0.0,0.0,0.0,0.0,0.0,0.0,0.0,0.0,0.0,0.0,0.0,0.0,0.0,0.0,0.0,0.0,5.728,5.8243,5.8237,0.0,0.0,0.0,0.0,5.81,5.8164,0.0,0.0,0.0,0.0,0.0,0.0,0.0,0.0,0.0,0.0,0.0,0.0,0.0,0.0,0.0,0.0,0.0,0.0,0.0,0.0,0.0,0.0,0.0,0.0,0.0,0.0,0.0,0.0,0.0,0.0,0.0,0.0,0.0,0.0,0.0,0.0,0.0,0.0,0.0,0.0,0.0,0.0,0.0,0.0,0.0,0.0,0.0,0.0,0.0,0.0,0.0,0.0,0.0,0.0,0.0,0.0,5.958,6.0581,6.1181,6.1409,6.1416,6.1416,6.1412,6.0991,6.0367,0.0,0.0,0.0,0.0,0.0,0.0,0.0,0.0,0.0,0.0,0.0,0.0,0.0,0.0,0.0,0.0,0.0,0.0,0.0,0.0,0.0,0.0,0.0,0.0,0.0,0.0,0.0,0.0,0.0,0.0,0.0,0.0,0.0,0.0,0.0,0.0,0.0,0.0,0.0,0.0,0.0,5.7275,5.8287,5.8237,5.8123,0.0,0.0,5.8353,5.8343,5.8394,0.0,0.0,0.0,0.0,0.0,0.0,0.0,0.0,0.0,0.0,0.0,0.0,0.0,0.0,0.0,0.0,0.0,0.0,0.0,0.0,0.0,0.0,0.0,0.0,0.0,0.0,0.0,0.0,0.0,0.0,0.0,0.0,0.0,0.0,0.0,0.0,0.0,0.0,0.0,0.0,0.0,0.0,0.0,0.0,0.0,0.0,0.0,0.0,0.0,0.0,0.0,0.0,0.0,0.0,0.0,5.9485,6.1143,6.2241,6.2781,6.285,6.2892,6.2665,6.2215,6.1845,6.1016,0.0,0.0,0.0,0.0,0.0,0.0,0.0,0.0,0.0,0.0,0.0,0.0,0.0,0.0,0.0,0.0,0.0,0.0,0.0,0.0,0.0,0.0,0.0,0.0,0.0,0.0,0.0,0.0,0.0,0.0,0.0,0.0,0.0,0.0,0.0,0.0,0.0,0.0,0.0,0.0,0.0,0.0,6.0377,6.0061,0.0,0.0,0.0,5.9786,5.9716,0.0,0.0,0.0,0.0,0.0,0.0,0.0,0.0,0.0,0.0,0.0,0.0,0.0,0.0,0.0,0.0,0.0,0.0,0.0,0.0,0.0,0.0,0.0,0.0,0.0,0.0,0.0,0.0,0.0,0.0,0.0,0.0,0.0,0.0,0.0,0.0,0.0,0.0,0.0,0.0,0.0,0.0,0.0,0.0,0.0,0.0,0.0,0.0,0.0,0.0,0.0,0.0,0.0,0.0,0.0,0.0,0.0,6.2719,6.3602,6.4007,6.4031,6.4031,6.3731,6.3164,6.2793,0.0,0.0,0.0,0.0,0.0,0.0,0.0,0.0,0.0,0.0,0.0,0.0,0.0,0.0,0.0,0.0,0.0,0.0,0.0,0.0,0.0,0.0,0.0,0.0,0.0,0.0,0.0,5.1402,0.0,0.0,0.0,0.0,0.0,0.0,0.0,0.0,0.0,0.0,0.0,0.0,0.0,0.0,6.0877,6.2305,6.2156,6.1838,0.0,0.0,6.1515,6.1488,6.1173,6.0691,0.0,0.0,0.0,0.0,0.0,0.0,0.0,0.0,0.0,0.0,0.0,0.0,0.0,0.0,0.0,0.0,0.0,0.0,0.0,0.0,0.0,0.0,0.0,0.0,0.0,0.0,0.0,0.0,0.0,0.0,0.0,0.0,0.0,0.0,0.0,0.0,0.0,0.0,0.0,0.0,0.0,0.0,0.0,0.0,0.0,0.0,0.0,0.0,0.0,0.0,0.0,0.0,0.0,0.0,0.0,6.3641,6.3979,6.4125,6.409,6.409,6.409,6.4012,6.3809,6.3221,0.0,0.0,0.0,0.0,0.0,0.0,0.0,0.0,0.0,0.0,0.0,0.0,0.0,0.0,0.0,0.0,0.0,0.0,0.0,0.0,0.0,0.0,0.0,0.0,0.0,0.0,0.0,0.0,0.0,0.0,0.0,0.0,0.0,0.0,0.0,0.0,0.0,0.0,0.0,0.0,0.0,6.2438,6.3292,6.4059,6.4329,0.0,0.0,6.3386,6.3563,6.3694,6.3147,6.1225,0.0,0.0,0.0,0.0,0.0,0.0,0.0,0.0,0.0,0.0,0.0,0.0,0.0,0.0,0.0,0.0,0.0,0.0,0.0,0.0,0.0,0.0,0.0,0.0,0.0,0.0,0.0,0.0,0.0,0.0,0.0,0.0,0.0,0.0,0.0,0.0,0.0,0.0,0.0,0.0,0.0,0.0,0.0,0.0,0.0,0.0,0.0,0.0,0.0,0.0,0.0,0.0,0.0,6.3061,6.4688,6.5367,6.57,6.571,6.5712,6.5444,6.4987,6.4787,6.4223,0.0,0.0,0.0,0.0,0.0,0.0,0.0,0.0,0.0,0.0,0.0,0.0,0.0,0.0,0.0,0.0,0.0,0.0,0.0,0.0,0.0,0.0,0.0,0.0,0.0,0.0,0.0,0.0,5.2351,5.3435,5.4145,0.0,0.0,0.0,0.0,0.0,0.0,0.0,0.0,0.0,0.0,6.4225,6.5174,6.558,0.0,0.0,6.4984,6.507,6.4505,6.4147,6.3584,6.2541,6.15,0.0,0.0,0.0,0.0,0.0,0.0,0.0,0.0,0.0,0.0,0.0,0.0,0.0,0.0,0.0,0.0,0.0,0.0,0.0,0.0,0.0,0.0,0.0,0.0,0.0,0.0,0.0,0.0,0.0,0.0,0.0,0.0,0.0,0.0,0.0,0.0,0.0,0.0,0.0,0.0,0.0,0.0,0.0,0.0,0.0,0.0,0.0,0.0,0.0,0.0,0.0,0.0,6.4289,6.5673,6.6402,6.6757,6.6766,6.7001,6.6771,6.5957,6.5996,6.5511,0.0,0.0,0.0,0.0,0.0,0.0,0.0,0.0,0.0,0.0,0.0,0.0,0.0,0.0,0.0,0.0,0.0,0.0,0.0,0.0,0.0,0.0,0.0,0.0,0.0,0.0,0.0,0.0,5.3696,5.4962,5.5765,0.0,0.0,0.0,0.0,0.0,0.0,0.0,0.0,0.0,0.0,6.6071,6.6954,6.7303,6.7148,6.6298,6.6609,6.6719,6.6041,6.5344,6.4667,6.4172,0.0,0.0,0.0,0.0,0.0,0.0,0.0,0.0,0.0,0.0,0.0,0.0,0.0,0.0,0.0,0.0,0.0,0.0,0.0,0.0,0.0,0.0,0.0,0.0,0.0,0.0,0.0,0.0,0.0,0.0,6.1377,0.0,0.0,0.0,0.0,0.0,0.0,0.0,0.0,0.0,0.0,0.0,0.0,0.0,0.0,0.0,0.0,0.0,0.0,0.0,0.0,0.0,0.0,6.5806,6.6664,6.6862,6.6953,6.6953,6.7734,6.7734,6.6953,6.7612,6.7208,6.5431,0.0,0.0,0.0,0.0,0.0,0.0,0.0,0.0,0.0,0.0,0.0,0.0,0.0,0.0,0.0,0.0,0.0,0.0,0.0,0.0,0.0,0.0,0.0,0.0,0.0,0.0,5.5428,5.4893,5.4993,0.0,0.0,0.0,0.0,0.0,0.0,0.0,0.0,0.0,0.0,6.7014,6.7954,6.8554,6.9337,6.9487,6.8738,6.8428,6.8346,6.8497,6.7794,6.6949,0.0,0.0,0.0,0.0,0.0,0.0,0.0,0.0,0.0,0.0,0.0,0.0,0.0,0.0,0.0,0.0,0.0,0.0,0.0,0.0,0.0,0.0,0.0,0.0,0.0,0.0,0.0,6.1911,6.2747,0.0,0.0,0.0,0.0,0.0,0.0,0.0,0.0,0.0,0.0,0.0,6.6186,6.7042,0.0,0.0,0.0,0.0,0.0,0.0,0.0,0.0,0.0,0.0,0.0,0.0,6.7565,6.8388,6.8582,6.8594,6.8555,6.8867,6.8867,6.8633,6.8827,6.812,6.6383,0.0,0.0,0.0,0.0,0.0,0.0,0.0,0.0,0.0,0.0,0.0,0.0,0.0,0.0,0.0,0.0,0.0,0.0,0.0,0.0,0.0,0.0,0.0,0.0,0.0,5.6527,0.0,0.0,0.0,0.0,0.0,0.0,0.0,0.0,0.0,0.0,0.0,6.5571,6.7588,6.8645,6.93,6.9595,7.037,7.083,0.0,0.0,0.0,0.0,0.0,0.0,0.0,0.0,0.0,0.0,0.0,0.0,0.0,0.0,6.5759,6.425,6.379,6.3658,6.3658,0.0,0.0,0.0,0.0,0.0,0.0,0.0,0.0,0.0,0.0,0.0,0.0,0.0,0.0,6.5019,0.0,6.6423,0.0,0.0,0.0,0.0,0.0,0.0,0.0,0.0,7.0431,7.032,6.9763,7.0892,7.1407,0.0,7.0806,6.9218,0.0,0.0,0.0,0.0,0.0,0.0,0.0,0.0,6.9159,6.9717,6.9869,6.9922,6.9844,6.9844,6.9726,6.9492,6.9453,6.8905,6.7765,6.6843,6.5783,0.0,0.0,0.0,0.0,0.0,0.0,0.0,0.0,0.0,0.0,0.0,0.0,0.0,0.0,0.0,0.0,0.0,0.0,0.0,0.0,0.0,0.0,0.0,5.8332,0.0,0.0,0.0,0.0,0.0,0.0,0.0,0.0,0.0,6.5385,6.6283,6.7676,6.9425,6.9866,7.0132,7.0367,0.0,0.0,0.0,0.0,0.0,0.0,0.0,6.9797,6.8891,6.8559,6.8428,6.8569,6.8838,6.9069,6.9087,0.0,0.0,6.645,6.6013,6.6063,6.6041,6.5611,6.5137,6.4812,6.4767,6.4563,0.0,0.0,0.0,0.0,0.0,0.0,0.0,0.0,6.7687,6.854,0.0,6.9351,0.0,0.0,0.0,0.0,0.0,7.0979,0.0,0.0,7.4515,7.4878,7.3448,7.4931,7.4853,7.3373,7.3301,7.2837,7.1908,6.9518,0.0,0.0,0.0,0.0,0.0,0.0,7.0624,7.0692,7.08,7.0818,7.0859,7.0859,7.0469,6.9765,6.9726,6.9687,6.957,6.8703,6.818,6.8088,6.7245,0.0,0.0,0.0,0.0,0.0,0.0,0.0,0.0,0.0,0.0,0.0,0.0,0.0,0.0,0.0,0.0,0.0,0.0,0.0,0.0,6.1157,0.0,0.0,0.0,0.0,0.0,0.0,0.0,0.0,0.0,0.0,6.8909,6.8881,6.9508,7.1042,0.0,0.0,0.0,0.0,7.2389,7.2107,7.264,7.2831,7.208,7.137,7.0761,7.0235,0.0,0.0,6.9281,6.9713,7.0137,7.0172,7.1628,7.1977,6.9324,6.8744,6.8648,6.8596,6.8474,6.8287,6.7553,6.7222,6.6786,7.1934,0.0,0.0,0.0,0.0,6.8255,6.946,7.1249,7.1485,7.2094,7.2851,7.2264,0.0,0.0,0.0,0.0,0.0,0.0,7.4293,7.6271,7.7095,7.719,7.6794,7.7871,7.8165,7.7721,7.71,7.6692,7.6453,7.5135,7.3178,7.0674,0.0,0.0,0.0,0.0,7.3321,7.3364,7.3413,7.3471,7.3475,7.3475,7.3358,7.3125,7.3125,7.2578,7.1327,7.1012,7.0297,6.9012,6.8717,0.0,0.0,0.0,0.0,0.0,0.0,0.0,0.0,0.0,0.0,0.0,0.0,0.0,0.0,0.0,0.0,0.0,0.0,0.0,6.4774,6.4275,6.4305,0.0,0.0,0.0,0.0,0.0,0.0,0.0,0.0,0.0,7.312,7.2142,7.1738,0.0,0.0,7.2643,7.2737,7.3105,7.3584,7.4175,0.0,0.0,0.0,7.359,7.2877,7.2726,7.2675,7.2659,7.2667,7.2916,7.3108,7.3133,7.3572,7.3639,7.2831,7.1628,7.0675,7.0041,6.939,6.8937,6.8657,6.8575,6.8449,7.9298,7.6649,7.3453,7.2479,7.3142,7.3492,7.4422,7.5654,7.5654,7.5713,7.58,7.4979,7.4187,7.3586,7.4555,0.0,0.0,0.0,7.7353,7.9147,7.987,8.0231,8.027,8.1088,8.1351,8.1022,8.0227,7.9671,7.9385,7.8492,7.7014,7.4907,0.0,0.0,7.4577,7.5507,7.5794,7.5516,7.5554,7.5456,7.5111,7.4761,7.4567,7.4568,7.4569,7.41,7.3081,7.3354,7.2876,7.148,7.1705,7.129,0.0,0.0,0.0,0.0,0.0,0.0,0.0,0.0,0.0,0.0,0.0,6.3108,6.4662,0.0,0.0,0.0,6.6548,6.6447,6.6714,6.6288,0.0,0.0,0.0,0.0,0.0,0.0,0.0,7.1781,7.318,7.4602,7.5902,7.5475,7.4821,7.4313,7.3959,7.373,7.3626,0.0,7.456,7.5074,7.4966,7.5069,7.574,7.5323,7.4921,7.5042,7.5152,7.523,7.5222,7.5567,7.5875,7.5924,7.6147,7.6253,7.5882,7.4915,7.3682,7.224,7.1482,7.1148,7.1136,7.1127,7.0925,8.5104,8.4559,7.8282,7.6373,7.7584,7.8357,7.9118,7.9789,7.9785,7.9297,7.8443,7.7661,7.77,7.8396,7.8318,0.0,7.968,7.9641,8.0108,8.1046,8.2598,8.3341,8.3419,8.4202,8.4185,8.3375,8.2656,8.1909,8.1213,8.0477,8.0087,7.997,7.8477,7.7529,7.7172,7.7955,7.799,7.7231,7.7259,7.6967,7.6198,7.5424,7.4955,7.4911,7.4916,7.4838,7.4714,7.5455,7.5491,7.466,7.5234,7.4911,7.3371,0.0,0.0,0.0,0.0,0.0,0.0,0.0,0.0,0.0,0.0,0.0,0.0,0.0,0.0,0.0,6.7164,0.0,6.7831,6.7748,0.0,0.0,0.0,7.0726,7.2612,7.2861,7.3524,7.5138,0.0,0.0,7.7705,0.0,7.8164,7.5823,7.5003,7.4468,7.4173,7.5118,7.5642,7.5638,7.6149,7.6664,7.6769,7.6806,7.691,7.7108,7.7188,7.7125,7.7134,7.7637,7.8171,7.8104,7.8832,7.91,7.8322,7.798,7.745,7.5066,7.4367,7.4203,7.3967,7.3881,7.3437,8.8573,8.8452,8.6746,8.4454,8.1906,8.2036,8.221,8.2394,8.2404,8.2264,8.2018,8.1095,8.0833,8.0953,8.0292,8.0798,8.2201,8.1575,8.2119,8.344,8.3321,8.3572,8.4233,8.4435,8.4435,8.4306,8.409,8.3932,8.3825,8.4256,8.4139,8.3555,8.3719,8.2182,7.9029,7.9079,7.9151,7.8961,7.901,7.8961,7.8804,7.858,7.8192,7.7527,7.7489,7.6862,7.5603,7.5719,7.5401,7.4569,7.4097,7.401,7.4151,7.2524,0.0,0.0,0.0,0.0,0.0,0.0,0.0,0.0,0.0,6.8492,7.0104,0.0,7.1698,0.0,7.0747,7.0378,7.0546,7.0514,0.0,0.0,7.1827,7.2595,7.4287,7.5177,7.6012,7.6968,7.7882,7.8524,7.8728,7.8998,7.8981,7.8444,7.8122,7.7666,7.7,7.7713,7.834,7.8267,7.8442,7.8741,7.8734,7.8776,7.8823,7.89,7.8844,7.8819,7.8812,7.8967,7.9119,7.9104,7.9236,7.9294,7.9134,7.9066,7.8828,7.8019,7.6523,7.4977,7.4308,7.4182,7.4013,8.9781,8.9774,8.9676,8.8301,8.614,8.5728,8.5319,8.491,8.4553,8.4133,8.3717,8.3165,8.2931,8.2906,8.2402,8.2712,8.3566,8.3527,8.3993,8.4891,8.4839,8.5048,8.5514,8.5553,8.5564,8.5624,8.5276,8.517,8.5225,8.5357,8.5136,8.4724,8.5203,8.4254,8.1909,8.1789,8.161,8.1252,8.0927,8.0581,8.0314,8.0287,8.0057,7.9584,7.9159,7.8531,7.7582,7.7542,7.6951,7.5763,7.5965,7.6152,7.6166,7.4875,7.3937,0.0,0.0,0.0,0.0,0.0,0.0,0.0,0.0,0.0,0.0,0.0,7.4808,7.4395,7.3355,7.2646,7.2555,7.2531,7.285,7.37,7.4126,7.4927,7.6253,7.72,7.8108,7.8899,7.9445,7.9912,8.0286,8.0354,8.0279,8.0037,8.0219,7.9941,7.8814,7.8993,7.9349,7.9353,7.9403,7.9601,7.9951,8.0362,8.0581,8.062,8.0563,8.0544,8.0524,8.052,8.0512,8.0534,8.0491,8.046,8.0455,8.0422,8.0262,7.966,7.8656,7.7458,7.6497,7.6337,7.6167,9.0355,9.0425,9.0297,9.0219,9.0176,8.9229,8.8273,8.7263,8.6477,8.5693,8.4942,8.4887,8.4826,8.4865,8.4748,8.4748,8.4903,8.5413,8.5801,8.6033,8.6687,8.7036,8.7119,8.7197,8.7171,8.703,8.6415,8.6089,8.6012,8.5382,8.5062,8.5016,8.5276,8.5342,8.5173,8.5244,8.4659,8.3458,8.2864,8.2214,8.1509,8.1364,8.1284,8.1117,8.0425,7.9958,7.9867,7.9748,7.8922,7.7422,7.8491,7.8836,7.8016,7.7284,7.6573,0.0,7.4394,0.0,0.0,0.0,0.0,0.0,0.0,0.0,0.0,7.6787,7.7692,7.6855,7.5265,7.4319,7.424,7.4314,7.4712,7.558,7.641,7.7298,7.8232,7.9018,7.9795,8.0684,8.0839,8.1212,8.1904,8.2072,8.1774,8.122,8.1449,8.1325,8.0217,7.9871,7.9882,7.973,7.9847,8.0477,8.1217,8.1871,8.233,8.233,8.2275,8.2262,8.2185,8.2206,8.2192,8.2189,8.2145,8.2114,8.2114,8.2078,8.173,8.0943,8.0672,8.0207,7.9155,7.8801,7.8591,9.3274,9.3885,9.3712,9.3651,9.3524,9.1922,9.0347,8.8933,8.8722,8.8499,8.8371,8.8321,8.8315,8.8276,8.7662,8.7739,8.8276,8.7074,8.7307,8.8586,8.8082,8.8199,8.8825,8.89,8.8605,8.7992,8.7861,8.7483,8.6868,8.7421,8.7312,8.6697,8.8068,8.8414,8.7779,0.0,0.0,0.0,8.433,8.4253,8.4066,8.3389,8.2715,8.2006,8.1815,0.0,8.0682,7.9979,7.9158,7.8098,7.709,0.0,0.0,0.0,0.0,0.0,0.0,0.0,0.0,0.0,0.0,0.0,8.0157,8.0395,7.8467,7.8589,7.8496,7.7715,7.6725,7.6109,7.6171,7.6792,7.7263,7.7476,7.8296,7.9159,7.9984,8.0256,8.0688,8.1543,8.2203,8.2674,8.2834,8.2844,8.2805,8.262,8.2231,8.2076,8.2348,8.1826,8.1478,8.1559,8.2018,8.2805,8.3665,8.3822,8.3874,8.4025,8.3927,8.3806,8.3752,8.3706,8.3751,8.3702,8.3763,8.3718,8.3679,8.3746,8.3374,8.2598,8.2431,8.1734,7.952,7.9061,7.8928,9.44,0.0,9.458,9.45,0.0,9.3433,9.258,9.1638,8.9971,8.9255,8.9269,8.923,8.923,8.923,8.881,8.8888,8.9191,8.8378,8.8455,8.923,8.8843,8.8881,8.9275,8.9299,8.9069,8.8716,8.8772,8.8365,8.7638,8.8031,8.7812,8.7024,8.7879,8.8307,8.8346,8.8775,8.8414,8.7209,8.722,8.706,8.6655,8.6265,8.5641,8.4819,0.0,0.0,0.0,0.0,0.0,0.0,0.0,0.0,0.0,0.0,0.0,7.9932,7.9908,7.9893,7.9903,8.063,8.1209,8.1608,8.3208,8.328,8.1187,8.0622,8.0008,7.9202,7.8334,7.7835,7.7918,7.8666,7.9175,7.9248,8.0334,8.1343,8.1732,8.2153,8.2547,8.2935,8.34,8.3638,8.3638,8.3638,8.3638,8.3638,8.3328,8.3173,8.3493,8.3029,8.2664,8.3088,8.352,8.3939,8.4305,8.4398,8.4403,8.4334,8.4288,8.4255,8.4255,8.4228,8.4205,8.42,8.4183,8.4159,8.4159,8.4136,8.3989,8.3616,8.3488,8.314,8.1708,8.0856,8.0058,9.4928,9.5078,9.486,9.4815,9.477,9.4522,9.4387,9.4155,0.0,0.0,0.0,8.9901,8.9824,8.9785,8.9515,8.9476,8.9592,8.9592,8.9599,8.9652,8.9954,8.9922,8.9634,8.981,8.9727,8.9456,8.9486,8.912,8.8351,8.8312,8.7996,8.7389,8.7471,8.802,8.8807,8.8924,8.9354,9.0123,8.9604,8.9018,8.8368,8.8194,8.7811,8.7148,8.6428,8.5697,8.4993,8.3435,8.1878,8.0329,8.0728,8.0907,8.0714,8.1571,8.2387,8.2985,8.252,8.2428,8.3153,8.3336,8.3751,8.4559,8.5262,8.4979,8.3245,8.2665,8.1996,8.1143,8.0406,8.0013,8.0013,8.0639,8.1065,8.1104,8.2339,8.3192,8.3231,8.3773,8.4095,8.4205,8.4289,8.4438,8.4444,8.4444,8.4438,8.4399,8.4217,8.4283,8.4294,8.3788,8.3573,8.4349,8.4582,8.4645,8.4764,8.487,8.4726,8.481,8.4748,8.4654,8.4654,8.4603,8.4597,8.4779,8.4595,8.4603,8.4597,8.4682,8.4482,8.4327,8.4289,8.425,8.3966,8.2941,8.1678,9.5862,9.6566,9.6387,9.629,9.6244,9.5493,9.5097,9.4974,9.3871,9.34,9.3283,9.2512,9.2203,9.2126,9.0698,9.0427,9.1084,9.1084,9.1161,0.0,9.2735,9.2656,9.1406,9.2172,9.1779,9.0424,9.0384,8.9994,8.9219,8.9141,8.9093,8.9144,8.9782,9.0586,9.1366,9.1498,9.1553,9.1612,8.8931,8.7436,8.7291,8.6564,8.6121,8.6047,8.5976,8.5782,8.5661,8.468,8.3719,8.2745,8.2107,8.1398,8.0641,8.2023,8.2885,8.3026,8.3513,8.3934,8.4045,8.4657,8.5416,8.6178,8.6404,8.5752,8.4221,8.4593,8.4593,8.3779,8.3386,8.3469,8.3508,8.3502,8.3535,8.3618,8.389,8.4045,8.4078,8.4239,8.4349,8.4349,8.4865,8.5291,8.5324,8.5324,8.5324,8.5213,8.4847,8.451,8.5014,8.4605,8.4466,8.5125,8.5358,8.5663,8.6084,8.6433,8.6266,8.6454,8.629,8.6144,8.6105,8.6068,8.6075,8.621,8.6056,8.6126,8.612,8.6229,8.5829,8.5288,8.5127,8.492,8.428,8.3716,8.3186,9.6906,9.8005,9.7511,9.7515,9.7901,9.7011,9.6613,9.6523,9.6219,9.5511,9.4594,9.3753,9.3136,9.2634,9.1901,9.1747,9.2094,9.2094,9.238,9.2921,9.3693,9.3701,9.3074,9.3466,9.3231,9.2538,9.2534,9.2121,9.1385,9.1301,9.1089,9.0689,9.105,9.1224,9.1133,9.1163,9.1181,9.1149,9.0227,8.9764,8.976,8.9419,8.8995,8.8524,8.8127,8.7634,8.7163,8.5836,8.4707,8.3829,8.3383,8.2935,8.2577,8.3657,8.4566,8.5012,8.5781,8.6272,8.6235,8.6552,8.6713,8.661,8.7028,8.7016,8.6261,8.5693,8.5035,8.426,8.4144,8.4144,8.4183,8.4532,8.4803,8.4803,8.5616,8.5997,8.5648,8.5958,8.6035,8.561,8.5848,8.608,8.608,8.6119,8.608,8.6042,8.5693,8.5693,8.6042,8.5809,8.564,8.6094,8.6221,8.6326,8.6684,8.6755,8.6743,8.6706,8.6675,8.6655,8.6655,8.6623,8.661,8.6603,8.6603,8.6603,8.6642,8.6603,8.6396,8.6169,8.5976,8.571,8.5323,8.4796,8.4058,9.77,9.9021,9.8357,9.8323,9.867,9.7821,9.7615,9.7937,9.7745,9.7049,9.5983,9.5152,9.4304,9.3533,9.331,9.3117,9.2963,9.3156,9.3473,9.399,9.4569,9.458,9.4149,9.4428,9.4513,9.424,9.417,9.3867,9.3333,9.3263,9.2953,9.2335,9.2257,9.1909,9.1251,9.1307,9.1327,9.1379,9.1951,9.1961,9.1412,9.1454,9.1125,9.0465,8.9843,8.9206,8.8492,8.7181,8.6043,8.5212,8.5242,8.5223,8.5089,8.587,8.6588,8.7242,8.7888,8.8255,8.8202,8.8189,8.7886,8.7267,8.7809,8.8189,8.8073,8.6996,8.5913,8.5378,8.5417,8.534,8.5494,8.5881,8.6184,8.6261,8.7345,8.7815,8.7383,8.777,8.7957,8.7306,8.719,8.7228,8.719,8.719,8.7235,8.7235,8.719,8.719,8.719,8.719,8.7242,8.7228,8.7033,8.6853,8.6887,8.6997,8.6978,8.688,8.6919,8.6996,8.6958,8.6919,8.7067,8.7183,8.7054,8.6963,8.6885,8.6619,8.6507,8.6334,8.6312,8.6307,8.6069,8.5517,8.4609,9.8035,9.8821,9.8786,9.8278,9.7633,9.6854,9.7354,9.8499,9.7874,9.7922,9.8326,9.7585,9.67,9.5931,9.5132,9.4409,9.3785,9.4439,9.4522,9.436,9.6287,9.6176,9.4409,9.5575,9.5546,9.4381,9.4273,9.4388,9.4332,9.423,9.4114,9.3966,9.3966,9.3966,9.385,9.3857,9.3857,9.3819,9.3253,9.1811,8.9684,8.9541,8.9508,8.9469,8.9397,8.9281,8.9209,8.9037,8.8542,8.7828,8.8274,8.8313,8.7719,8.8332,8.8873,8.8905,8.9021,8.9092,8.9092,8.9092,8.9047,8.8976,8.9008,8.9085,8.9085,8.8931,8.8821,8.8621,8.866,8.8473,8.8705,8.866,8.8582,8.8466,8.886,8.9047,8.8899,8.9008,8.9053,8.8976,8.8783,8.8931,8.8776,8.8737,8.8814,8.8698,8.8621,8.8621,8.866,8.8667,8.8705,8.8571,8.7758,8.7178,8.759,8.7815,8.7777,8.7763,8.7763,8.7763,8.7757,8.7795,8.795,8.8225,8.8134,8.7712,8.7483,8.6993,8.6354,8.6431,8.633,8.6094,8.5914,8.57,8.5003,9.9548,10.0259,9.9769,9.9058,9.825,9.7904,9.8173,9.8788,9.8981,9.9481,10.0173,9.9894,9.8481,9.6365,9.6403,9.6249,9.598,9.6326,9.6614,9.6852,9.7883,9.7822,9.7093,9.7564,9.7569,9.7074,9.7044,9.706,9.71,9.7117,9.6908,9.6444,9.649,9.6241,9.5777,9.5739,9.5475,9.4965,9.4655,9.3717,9.2256,9.1217,9.0721,9.0675,9.0217,8.9946,8.9907,8.952,8.9081,8.8745,8.9016,8.9035,8.8698,8.9015,8.9201,8.9247,8.9665,9.013,9.0633,9.0207,8.9898,8.9898,8.9894,8.9873,8.9866,9.0255,9.0496,9.0387,8.9733,8.9201,8.924,8.9201,8.9201,8.9247,8.9595,8.9743,8.924,8.9627,8.9743,8.9324,8.9201,8.9247,8.9201,8.9201,8.9201,8.9201,8.9208,8.9285,8.9247,8.9201,8.9201,8.9131,8.8544,8.835,8.8621,8.866,8.866,8.866,8.866,8.8653,8.8559,8.8552,8.8699,8.9043,8.869,8.8474,8.8436,8.8166,8.7673,8.7216,8.6324,8.5975,8.5834,8.5742,8.5322,10.1096,10.1443,10.0529,9.9606,9.8788,9.8788,9.8788,9.8913,9.9721,10.0442,10.0981,10.1212,9.9856,9.7673,9.798,9.8096,9.7904,9.7865,9.8173,9.8788,9.9019,9.9057,9.893,9.9122,9.9177,9.9064,9.8957,9.9013,9.9116,9.9145,9.8714,9.8019,9.7959,9.7565,9.68,9.6738,9.6482,9.5864,9.5615,9.5204,9.4431,9.3147,9.2373,9.2296,9.1561,9.1135,9.1097,9.0323,8.9859,8.9859,8.9859,8.9859,8.9898,8.9898,8.9904,8.9936,9.0439,9.1019,9.1677,9.1076,9.0713,9.0713,9.0649,9.0712,9.0975,9.147,9.1863,9.2025,9.1121,9.0569,9.0182,9.0376,9.0492,9.0537,9.0917,9.0769,9.0365,9.0605,9.0534,8.9975,9.0052,8.9898,8.9904,8.9975,9.0014,9.0014,8.9936,8.9904,8.9898,8.9936,8.9936,8.9838,8.987,8.9761,8.9588,8.949,8.949,8.9515,8.9501,8.9419,8.9337,8.933,8.9554,8.9941,8.9486,8.9153,8.9043,8.8966,8.8576,8.7821,8.7092,8.6562,8.6643,8.6317,8.6059,10.252,10.2289,10.0798,9.9683,9.8827,9.8904,9.8865,9.9135,9.9875,10.0221,10.0452,10.1058,10.0789,9.9837,9.9875,9.9519,9.8827,9.8759,9.8827,9.9019,9.9606,9.9567,9.8913,9.9615,9.9662,9.9159,9.9168,9.9136,9.9137,9.9077,9.8653,9.789,9.7898,9.7435,9.6796,9.683,9.6707,9.6599,9.6003,9.5538,9.5344,9.4532,9.4068,9.4029,9.3302,9.283,9.2799,9.2064,9.16,9.16,9.16,9.16,9.1561,9.1522,9.1484,9.1554,9.1593,9.167,9.181,9.1714,9.1646,9.1592,9.1524,9.167,9.2248,9.2425,9.2795,9.3706,9.3475,9.3221,9.2642,9.2743,9.3245,9.3283,9.2843,9.2458,9.2442,9.1638,9.1605,9.1462,9.136,9.129,9.1445,9.16,9.1399,9.1399,9.1477,9.1431,9.1308,9.1431,9.1364,9.1313,9.1259,9.1204,9.0527,9.0298,9.0255,9.0247,9.021,9.0111,9.0142,9.0204,9.0589,9.0704,9.0205,8.9851,8.9675,8.9213,8.8596,8.8107,8.7983,8.7703,8.7407,8.7118,8.6792,10.2789,10.175,10.1135,10.0673,10.0481,10.0981,10.1212,10.1289,10.2174,10.2212,10.1789,10.202,10.1673,10.0866,10.0866,10.0712,10.0366,9.9865,9.9904,10.025,9.9635,9.9673,10.0366,10.025,10.0269,10.0442,10.0413,10.0201,9.967,9.9233,9.8797,9.8584,9.8597,9.843,9.8207,9.8232,9.7978,9.743,9.7115,9.6698,9.6127,9.581,9.5655,9.5625,9.4449,9.4037,9.4578,9.3766,9.3302,9.3309,9.3302,9.2799,9.1832,9.1716,9.1919,9.234,9.241,9.2851,9.3771,9.3469,9.3376,9.3832,9.2833,9.2321,9.2536,9.2618,9.2738,9.32,9.4125,9.4394,9.4112,9.3602,9.3174,9.3059,9.2441,9.194,9.1855,9.1632,9.1508,9.1591,9.168,9.1716,9.1702,9.1709,9.1694,9.1651,9.1637,9.1583,9.1539,9.1485,9.1523,9.1454,9.1439,9.1377,9.1122,9.0999,9.1014,9.1014,9.0914,9.0597,9.0466,9.0611,9.0903,9.0593,9.0313,9.0198,8.9837,8.9409,8.8815,8.8794,8.8677,8.8331,8.8092,8.788,8.746,10.3597,10.2597,10.2251,10.1971,10.1827,10.2674,10.2866,10.2712,10.352,10.3405,10.2712,10.2597,10.2097,10.1394,10.1279,10.1279,10.1241,10.0712,10.0789,10.1212,10.0404,10.0635,10.152,10.1443,10.1597,10.202,10.1827,10.1404,10.0875,10.0057,9.9546,9.9285,9.9127,9.8845,9.8614,9.837,9.7886,9.7461,9.7363,9.7032,9.6569,9.6492,9.6492,9.6355,9.5486,9.5084,9.5432,9.462,9.4156,9.4118,9.4118,9.3615,9.2564,9.2448,9.2658,9.3153,9.3446,9.4041,9.5026,9.4955,9.5015,9.5516,9.4592,9.3846,9.4107,9.4131,9.4258,9.4711,9.5451,9.6143,9.5623,9.4673,9.3778,9.3362,9.2429,9.179,9.1776,9.1544,9.1438,9.1508,9.1561,9.1591,9.1598,9.1598,9.1576,9.1562,9.1516,9.1493,9.1407,9.14,9.1384,9.136,9.1352,9.1336,9.1212,9.1149,9.1181,9.122,9.1165,9.0903,9.0672,9.0893,9.0813,9.0471,9.0222,9.0174,8.9918,8.9497,8.9343,8.935,8.9185,8.8828,8.8731,8.8721,8.8301,10.502,10.4751,10.4212,10.3405,10.2904,10.3674,10.3482,10.3135,10.3712,10.3674,10.302,10.2751,10.2366,10.151,10.1471,10.1356,10.1279,10.1289,10.1356,10.1433,10.1866,10.2251,10.2635,10.3097,10.3443,10.3597,10.2943,10.2558,10.2327,10.1452,10.0731,10.0067,9.9394,9.8788,9.7682,9.736,9.6788,9.6758,9.6887,9.6737,9.6523,9.6699,9.6737,9.666,9.6523,9.6222,9.5528,9.4649,9.424,9.4194,9.4194,9.407,9.397,9.3846,9.3946,9.41,9.4748,9.5164,9.5379,9.5996,9.6423,9.6492,9.6304,9.6297,9.673,9.699,9.725,9.7788,9.8211,9.8288,9.7442,9.6576,9.5661,9.4951,9.3284,9.2434,9.2246,9.1771,9.1341,9.1376,9.1454,9.14,9.14,9.1423,9.1462,9.1446,9.1392,9.1384,9.136,9.1352,9.1382,9.1333,9.13,9.1283,9.1224,9.1171,9.1232,9.1266,9.1202,9.107,9.0702,9.0715,9.0505,9.0124,8.9317,8.9218,8.9448,8.9062,8.8965,8.8953,8.9047,8.92,8.9266,8.9218,8.9141,10.4638,10.4226,10.4577,10.4569,10.4443,10.5251,10.5443,10.5251,10.552,10.5136,10.4443,10.4328,10.352,10.2443,10.2212,10.1866,10.1394,10.1866,10.2212,10.2097,10.1366,10.1943,10.3212,10.3174,10.3328,10.3674,10.302,10.2597,10.2481,10.1789,10.1135,10.0904,10.0673,10.0096,9.9327,9.9018,9.8691,9.8113,9.8093,9.8073,9.8073,9.8073,9.8073,9.8073,9.8073,9.7919,9.7659,9.6425,9.5751,9.5674,9.5721,9.5489,9.4949,9.4332,9.426,9.478,9.5542,9.6317,9.6803,9.7545,9.8027,9.7941,9.749,9.725,9.7442,9.7596,9.7711,9.8057,9.8404,9.8634,9.8327,9.7634,9.6336,9.4335,9.3142,9.2334,9.1831,9.1459,9.1347,9.1303,9.136,9.1392,9.1392,9.1392,9.136,9.1358,9.1303,9.1333,9.1275,9.1275,9.1249,9.1215,9.1206,9.1253,9.1227,9.1201,9.1227,9.1224,9.1189,9.1133,9.0787,9.047,9.0213,8.9634,8.8833,8.8424,8.8639,8.8568,8.8339,8.8606,8.8808,8.9113,8.9523,8.9638,8.9551,10.5042,10.4712,10.5274,10.5528,10.5636,10.6213,10.6395,10.6395,10.6395,10.5905,10.5213,10.5107,10.4366,10.3289,10.3097,10.2789,10.2366,10.2866,10.3251,10.3366,10.2568,10.2914,10.4251,10.4174,10.4251,10.4559,10.3943,10.352,10.3482,10.2712,10.2289,10.2251,10.1971,10.1558,10.1029,10.0673,10.025,9.975,9.9452,9.9288,9.9211,9.8981,9.8788,9.8788,9.8788,9.8788,9.8721,9.7831,9.72,9.6891,9.6621,9.6159,9.5658,9.5187,9.5084,9.5579,9.6331,9.7151,9.7951,9.8759,9.9442,9.9519,9.9211,9.8942,9.8942,9.8904,9.8904,9.9019,9.9442,9.9596,9.9259,9.8518,9.7027,9.4966,9.4007,9.295,9.1988,9.1407,9.1288,9.1266,9.13,9.1333,9.1341,9.1341,9.1317,9.1266,9.1249,9.1241,9.1219,9.121,9.1248,9.1248,9.1219,9.1219,9.121,9.1201,9.1201,9.121,9.121,9.1056,9.0864,9.0414,9.008,8.9225,8.8366,8.7916,8.7987,8.7508,8.7269,8.7842,8.8568,8.9103,8.9523,8.9944,8.9971,10.6041,10.6188,10.6199,10.6224,10.6318,10.6395,10.6395,10.6395,10.6395,10.5982,10.5366,10.529,10.48,10.4097,10.3943,10.3828,10.3905,10.4097,10.4366,10.4828,10.4876,10.5174,10.5213,10.5713,10.5972,10.601,10.5443,10.5136,10.4982,10.4366,10.402,10.3943,10.3366,10.2789,10.2674,10.1943,10.1635,10.1404,10.0798,10.0491,10.0452,9.975,9.925,9.925,9.9288,9.925,9.9144,9.8932,9.8422,9.7605,9.7008,9.6662,9.6489,9.6442,9.6499,9.6451,9.7096,9.7797,9.8673,9.9413,10.0221,10.075,10.0856,10.1279,10.0933,10.0779,10.0779,10.0817,10.1029,10.0885,10.0173,9.9584,9.8359,9.6895,9.555,9.4226,9.2968,9.2216,9.2195,9.1937,9.1565,9.1565,9.2014,9.1967,9.1882,9.1766,9.1796,9.1911,9.168,9.1787,9.1479,9.1556,9.1825,9.1672,9.1825,9.1672,9.1595,9.1201,9.1201,9.1068,9.0802,9.0382,9.0183,8.9247,8.8366,8.7838,8.7701,8.7661,8.7307,8.7536,8.8262,8.8988,8.9409,8.9676,9.0201,10.5967,10.6079,10.6156,10.6263,10.6395,10.6395,10.6395,10.6395,10.6395,10.6328,10.6059,10.6059,10.5597,10.4828,10.4789,10.4482,10.4366,10.5251,10.5405,10.5328,10.6482,10.6559,10.6174,10.6251,10.6367,10.629,10.6069,10.6059,10.6059,10.5713,10.5636,10.5751,10.5328,10.4943,10.4482,10.4135,10.3789,10.3289,10.302,10.2837,10.2799,10.2558,10.2212,10.1635,10.1558,10.1212,10.0673,10.0058,9.9375,9.8557,9.8288,9.8134,9.8057,9.8019,9.775,9.7403,9.7904,9.8211,9.825,9.9298,10.0183,10.0442,10.101,10.1279,10.1279,10.1279,10.1279,10.1299,10.1385,10.1356,10.1105,10.0909,10.023,9.9197,9.7059,9.5469,9.5307,9.5277,9.5097,9.5028,9.4856,9.4706,9.4661,9.4634,9.4441,9.4018,9.3787,9.3672,9.321,9.2903,9.2864,9.2979,9.3095,9.271,9.2441,9.2287,9.1941,9.1355,9.1192,9.1118,9.0768,9.0273,9.0244,8.9945,8.912,8.8522,8.8971,8.9218,8.8644,8.788,8.853,8.937,8.8988,8.9027,8.9867,10.5901,10.5996,10.6101,10.622,10.6462,10.678,10.6751,10.651,10.679,10.6713,10.6559,10.6828,10.6444,10.5751,10.6367,10.602,10.529,10.6713,10.6944,10.6521,10.7559,10.7444,10.6597,10.6166,10.5927,10.5927,10.5966,10.5899,10.5966,10.6233,10.6356,10.6241,10.602,10.5751,10.5636,10.5251,10.5097,10.4866,10.4636,10.4405,10.4415,10.4059,10.3674,10.3212,10.3097,10.2751,10.1904,10.1366,10.0596,9.9596,9.9029,9.8788,9.8788,9.8788,9.8557,9.8096,9.8519,9.8673,9.8827,9.9606,10.0221,10.0596,10.1096,10.1241,10.1279,10.1279,10.1279,10.1289,10.1423,10.1509,10.1468,10.1289,10.0921,10.019,9.8661,9.7393,9.7173,9.6578,9.6476,9.6472,9.642,9.6385,9.639,9.6392,9.6105,9.5672,9.5365,9.5172,9.4864,9.4557,9.4364,9.448,9.4095,9.3557,9.3287,9.3095,9.2672,9.2018,9.1311,9.1245,9.0934,9.0455,9.0367,9.0286,8.9679,8.9436,8.9818,9.0009,8.9523,8.9141,8.9523,8.96,8.9409,8.9294,9.0058,10.6095,10.6276,10.6199,10.6282,10.6654,10.7251,10.7021,10.6626,10.7098,10.7021,10.6674,10.7328,10.7175,10.6626,10.7829,10.7944,10.6587,10.8136,10.8406,10.8252,10.8444,10.8098,10.6992,10.6284,10.6005,10.5861,10.5544,10.5544,10.5794,10.6187,10.6272,10.6176,10.5599,10.5666,10.5869,10.5551,10.5733,10.5964,10.5569,10.5251,10.5174,10.4751,10.4366,10.402,10.3789,10.3443,10.2866,10.2481,10.1827,10.0414,9.9519,9.925,9.9173,9.9096,9.9019,9.8981,9.9019,9.9288,9.976,9.9875,10.0375,10.0866,10.1125,10.1279,10.1279,10.1279,10.1327,10.1356,10.1433,10.1516,10.1502,10.1037,10.0896,10.0806,10.0605,9.9846,9.859,9.7537,9.7074,9.7057,9.7097,9.6977,9.6915,9.6861,9.6913,9.749,9.7211,9.7019,9.6673,9.6288,9.6019,9.5874,9.5258,9.4326,9.4134,9.3941,9.3403,9.2778,9.1851,9.145,9.1308,9.0962,9.0699,9.0464,9.028,9.0221,9.0277,9.0239,9.0096,8.9857,8.9857,9.0201,9.0478,9.0478,9.0937,10.8029,10.8048,10.7434,10.7279,10.7318,10.6895,10.6587,10.6433,10.6626,10.6664,10.6636,10.7328,10.7598,10.7444,10.8444,10.8329,10.7636,10.8944,10.9801,10.9675,10.9021,10.8829,10.8213,10.7552,10.7177,10.6918,10.6397,10.6178,10.6266,10.6343,10.6179,10.5755,10.6228,10.6073,10.5765,10.6218,10.6266,10.6439,10.6225,10.6185,10.6146,10.5905,10.5443,10.4866,10.4289,10.3905,10.352,10.2943,10.2443,10.1943,10.1289,10.076,10.0596,10.0673,10.0442,10.0029,9.9875,9.9683,9.9413,9.9952,10.0183,10.0596,10.1058,10.1279,10.1279,10.1279,10.1356,10.1433,10.1534,10.1632,10.1722,10.1671,10.1517,10.1502,10.1502,10.1417,10.1038,10.0751,10.0371,10.0361,10.0281,10.0453,10.0274,10.0006,9.9797,9.9432,9.9067,9.8913,9.8481,9.8019,9.7711,9.7451,9.6788,9.598,9.5595,9.5172,9.4278,9.3568,9.2649,9.1989,9.1817,9.146,9.1255,9.1156,9.1142,9.1045,9.0784,9.1052,9.1013,9.0631,9.0239,9.0506,9.0812,9.1128,9.1204,10.8058,10.8043,10.7236,10.6955,10.7087,10.7021,10.678,10.6549,10.6867,10.679,10.6741,10.7675,10.8059,10.7867,10.9252,10.9329,10.8252,10.8983,11.006,11.0483,11.0329,11.0175,10.9944,10.9147,10.8426,10.7313,10.6255,10.6092,10.6468,10.6901,10.713,10.6968,10.7182,10.7297,10.7018,10.7162,10.7413,10.7663,10.7267,10.7238,10.7585,10.6792,10.628,10.579,10.5251,10.4963,10.4561,10.4176,10.3734,10.3329,10.2848,10.2097,10.1558,10.1712,10.1635,10.1404,10.126,10.1366,10.1289,10.1222,10.1299,10.1212,10.1327,10.1241,10.1279,10.1279,10.1366,10.147,10.157,10.1693,10.1865,10.1889,10.1889,10.1889,10.1889,10.1889,10.1889,10.1889,10.1881,10.1787,10.1545,10.15,10.1559,10.1534,10.1317,10.0317,10.0289,10.0135,10.0019,9.9558,9.9298,9.8913,9.8365,9.7788,9.7288,9.6471,9.5222,9.4377,9.3476,9.2978,9.2737,9.2285,9.1803,9.1646,9.141,9.134,9.1204,9.1548,9.1778,9.1395,9.109,9.0965,9.0926,9.1128,9.109,10.7988,10.7998,10.7027,10.6668,10.6856,10.729,10.7021,10.6549,10.7175,10.6982,10.6828,10.8175,10.8482,10.8521,11.0367,11.0021,10.8906,10.8829,11.0021,11.0868,11.1214,11.1165,11.1011,11.0263,10.9168,10.7103,10.6593,10.6564,10.7103,10.7515,10.7967,10.8457,10.8279,10.8097,10.8531,10.8521,10.8405,10.8733,10.8328,10.8242,10.8714,10.7701,10.7063,10.6938,10.6909,10.6516,10.5958,10.5515,10.5119,10.447,10.4281,10.33,10.2415,10.2289,10.2789,10.2751,10.2712,10.2866,10.302,10.2866,10.2443,10.2558,10.1779,10.1356,10.1279,10.1289,10.1395,10.1507,10.1624,10.1744,10.1873,10.1889,10.1889,10.1889,10.1889,10.1889,10.1889,10.1889,10.1889,10.1881,10.1795,10.1722,10.162,10.1579,10.1432,10.1337,10.1299,10.1241,10.1058,10.0866,10.0404,10.0067,9.9442,9.8711,9.8134,9.7432,9.6221,9.5501,9.4561,9.4043,9.363,9.3064,9.2496,9.1788,9.1552,9.1618,9.1837,9.2121,9.2198,9.2007,9.2007,9.2007,9.1652,9.1232,9.1308,11.0814,11.072,10.9105,10.8472,10.8252,10.7175,10.6626,10.6433,10.6703,10.6549,10.6703,10.8175,10.8906,10.9175,11.0588,11.0714,10.9829,10.9829,11.0098,11.0675,11.1137,11.1511,11.1357,11.0752,10.9927,10.9542,10.8716,10.8411,10.85,10.8808,10.8768,10.8356,10.8743,10.8916,10.8685,10.8627,10.9186,10.9456,10.9157,10.9167,10.9215,10.8964,10.8492,10.8492,10.8405,10.8126,10.7489,10.6804,10.6081,10.5327,10.5193,10.456,10.3733,10.3579,10.3617,10.3674,10.3674,10.3866,10.402,10.3251,10.2712,10.2404,10.1866,10.1356,10.1317,10.1289,10.1404,10.1579,10.1727,10.1858,10.1881,10.1889,10.1889,10.1889,10.1889,10.1889,10.1889,10.1889,10.1889,10.1889,10.1865,10.1779,10.1663,10.1606,10.1468,10.1375,10.1308,10.1289,10.1202,10.1164,10.1048,10.0712,10.0366,9.9558,9.8788,9.8086,9.7231,9.675,9.5944,9.5118,9.4609,9.3899,9.3236,9.2983,9.2651,9.262,9.278,9.2776,9.2733,9.258,9.2771,9.2989,9.264,9.2291,9.2831,11.0406,11.0637,10.8983,10.829,10.8136,10.7444,10.7098,10.7136,10.7521,10.7444,10.7675,10.8752,10.929,10.9483,11.0714,11.0983,11.0367,11.0214,11.0214,11.0367,11.106,11.1511,11.1511,11.1021,11.0906,11.0752,11.0406,10.9965,10.9671,10.9671,10.9643,10.9923,11.0245,11.0188,10.9985,11.0362,11.0488,11.0459,11.0112,11.0101,11.0457,11.0225,10.9782,10.9349,10.9234,10.9021,10.8758,10.842,10.7752,10.7006,10.643,10.5663,10.4916,10.4321,10.4118,10.4386,10.4453,10.4713,10.4905,10.4405,10.3789,10.3251,10.2443,10.1741,10.1433,10.1299,10.1423,10.1559,10.1688,10.1842,10.1881,10.1889,10.1889,10.1889,10.1889,10.1889,10.1889,10.1889,10.1889,10.1889,10.1873,10.1771,10.1663,10.1606,10.1543,10.1461,10.1328,10.126,10.1202,10.1164,10.1125,10.1125,10.0789,10.0308,9.9577,9.8952,9.8298,9.7827,9.7241,9.6424,9.5924,9.5396,9.507,9.481,9.4423,9.3864,9.3284,9.3138,9.3141,9.318,9.3142,9.3163,9.3282,9.3461,9.385,10.9406,11.007,10.8406,10.7713,10.7713,10.7713,10.7675,10.7867,10.8521,10.8482,10.8213,10.9406,10.979,10.9713,11.0521,11.1021,11.0252,11.0329,11.0444,11.0367,11.1098,11.1511,11.1511,11.1511,11.1434,11.1318,11.1318,11.1137,11.0609,11.0493,11.0868,11.1053,11.1463,11.1571,11.1476,11.1354,11.1722,11.1549,11.1192,11.1249,11.1555,11.1282,11.0646,10.9869,10.9782,10.9876,10.9707,10.96,10.9162,10.8415,10.7577,10.6688,10.5741,10.48,10.4475,10.4811,10.4848,10.5251,10.5328,10.4866,10.3828,10.3328,10.2712,10.202,10.1568,10.1356,10.1433,10.1579,10.1671,10.1746,10.185,10.1881,10.1889,10.1889,10.1889,10.1889,10.1889,10.1881,10.1865,10.1865,10.1873,10.1771,10.1663,10.1588,10.1507,10.123,10.1145,10.0798,10.075,10.0827,10.0866,10.1164,10.1115,10.0865,10.0355,9.9923,9.9356,9.8942,9.8327,9.7548,9.7337,9.7115,9.6741,9.6261,9.5665,9.5021,9.428,9.3805,9.4147,9.4156,9.3594,9.3553,9.4117,9.4113,9.4181,10.9406,11.007,10.8367,10.7713,10.7713,10.7752,10.7713,10.7867,10.8675,10.8867,10.8829,10.9752,11.0214,11.0329,11.1021,11.0983,11.0637,11.0868,11.0829,11.0406,11.1098,11.1511,11.1511,11.1511,11.1511,11.1511,11.1511,11.1472,11.1252,11.1214,11.1329,11.1483,11.1494,11.1504,11.1536,11.162,11.1622,11.1642,11.1606,11.1664,11.1834,11.1868,11.174,11.1624,11.1508,11.1237,11.0713,11.0597,11.0227,10.9385,10.8534,10.7633,10.6688,10.575,10.4839,10.4359,10.4089,10.4097,10.4174,10.3789,10.3212,10.2866,10.2135,10.151,10.1375,10.1385,10.1442,10.1489,10.1603,10.1713,10.1755,10.1811,10.1873,10.1881,10.1881,10.1881,10.1881,10.1818,10.1809,10.1738,10.1722,10.1722,10.1671,10.1588,10.1479,10.1172,10.0894,10.0625,10.0404,10.0519,10.0327,10.0519,10.0894,10.0711,10.071,10.0316,10.021,9.9846,9.9231,9.8625,9.8462,9.825,9.7942,9.7395,9.6837,9.6405,9.5875,9.5614,9.5573,9.5181,9.4654,9.4839,9.5298,9.5059,9.4594,10.7982,10.8713,10.7982,10.7713,10.7752,10.8175,10.8367,10.8675,10.979,11.0098,10.9867,11.056,11.0944,11.1021,11.1357,11.1021,11.056,11.1137,11.1021,11.056,11.106,11.1511,11.1511,11.1511,11.1511,11.1511,11.1511,11.1511,11.1511,11.1511,11.1511,11.1511,11.1511,11.1522,11.1511,11.1526,11.1547,11.1578,11.1622,11.1732,11.1837,11.193,11.1984,11.1984,11.2067,11.1852,11.1628,11.1512,11.1087,11.0167,10.9084,10.7843,10.6568,10.5147,10.3725,10.3338,10.2751,10.3002,10.3684,10.3443,10.302,10.2635,10.2174,10.1904,10.1529,10.1356,10.1423,10.1518,10.1552,10.1603,10.1697,10.1755,10.1803,10.1827,10.1842,10.1826,10.1809,10.1752,10.171,10.1676,10.1603,10.1603,10.1594,10.1543,10.1442,10.127,10.1058,10.0885,10.0596,10.0481,10.0096,9.9635,10.0087,10.0413,10.0518,10.044,10.0719,10.046,9.995,9.948,9.9385,9.9183,9.8827,9.8557,9.8077,9.7712,9.7413,9.6768,9.6122,9.5905,9.5723,9.5877,9.5931,9.5459,9.5015,10.6559,10.679,10.7213,10.7367,10.7482,10.8444,10.8867,10.9098,11.0714,11.1098,11.0829,11.1165,11.1472,11.1511,11.1434,11.1175,11.0637,11.1214,11.106,11.0944,11.1098,11.1472,11.1511,11.1511,11.1511,11.1511,11.1511,11.1511,11.1511,11.1511,11.1511,11.1511,11.1511,11.1511,11.1511,11.1522,11.1532,11.1543,11.1599,11.1652,11.1741,11.1837,11.1875,11.1912,11.1966,11.2058,11.2067,11.2054,11.1628,11.1057,10.9858,10.8664,10.7259,10.54,10.373,10.3018,10.2221,10.2078,10.2742,10.2904,10.2866,10.252,10.2251,10.1827,10.1433,10.1279,10.1337,10.1423,10.1479,10.157,10.162,10.1663,10.1713,10.1722,10.176,10.1705,10.168,10.1637,10.1624,10.1588,10.1552,10.1498,10.1479,10.1451,10.1395,10.1308,10.1202,10.1087,10.075,10.0366,9.9981,9.9442,9.9442,9.9817,9.9894,10.0191,10.0642,10.0901,10.0363,10.0268,10.0115,9.9981,9.9673,9.9404,9.9144,9.8731,9.826,9.7403,9.6643,9.692,9.704,9.6599,9.6318,9.5905,9.5648,10.552,10.4289,10.5867,10.651,10.6674,10.8213,10.8906,10.906,11.0752,11.1434,11.1318,11.1472,11.1511,11.1511,11.1511,11.1472,11.1395,11.1483,11.1368,11.1368,11.1483,11.1434,11.1395,11.1395,11.1472,11.1406,11.1472,11.1511,11.1511,11.1511,11.1511,11.1511,11.1511,11.1511,11.1434,11.1357,11.128,11.1263,11.127,11.1427,11.1565,11.1645,11.1703,11.1809,11.1875,11.1939,11.19,11.2002,11.2037,11.1766,11.0816,10.9819,10.8277,10.634,10.4748,10.3648,10.2459,10.2193,10.2184,10.1981,10.1587,10.1433,10.1433,10.151,10.1317,10.1279,10.1289,10.1347,10.1414,10.147,10.1534,10.157,10.1603,10.1629,10.1667,10.1641,10.1585,10.1567,10.1552,10.1507,10.1461,10.1414,10.1395,10.1385,10.1376,10.1289,10.1019,10.0904,10.0366,9.9952,9.9837,9.9452,9.9096,9.9096,9.9096,9.9413,9.9971,10.0355,10.0278,10.0519,10.0817,10.0635,10.0366,10.025,9.9942,9.9519,9.9173,9.876,9.849,9.8509,9.8315,9.7661,9.7342,9.7124,9.6805,10.4943,10.4059,10.5703,10.6395,10.651,10.8175,10.8906,10.9213,11.0741,11.1511,11.1511,11.1511,11.1511,11.1511,11.1511,11.1511,11.1511,11.1511,11.1511,11.1511,11.1472,11.1175,11.1098,11.1137,11.1252,11.0983,11.1175,11.1511,11.1511,11.1511,11.1511,11.1511,11.1511,11.1511,11.1434,11.0983,11.0752,11.057,11.041,11.0354,11.1375,11.1072,11.1133,11.1682,11.1771,11.1828,11.1847,11.193,11.1966,11.1799,11.1216,11.046,10.954,10.7611,10.6207,10.5031,10.3775,10.2788,10.203,10.1626,10.1279,10.1279,10.1317,10.1279,10.1279,10.1279,10.1279,10.1337,10.1356,10.1404,10.1518,10.1555,10.1552,10.1579,10.1579,10.1543,10.1525,10.1468,10.1441,10.1423,10.1395,10.1356,10.1299,10.1289,10.1289,10.1279,10.0981,10.0673,10.025,9.9798,9.9721,9.949,9.9096,9.8865,9.8865,9.9096,9.9375,9.9712,10.0096,10.0404,10.075,10.1135,10.0904,10.0827,10.0712,10.0366,10.0212,10.0327,10.0038,9.9413,9.8942,9.8479,9.8312,9.8336,9.7945,10.4636,10.4135,10.5674,10.6395,10.6587,10.7944,10.8713,10.9136,11.0444,11.1291,11.1511,11.1511,11.1511,11.1511,11.1511,11.1511,11.1395,11.1252,11.1291,11.1291,11.1137,11.0906,11.0829,11.0752,11.0752,11.0444,11.0675,11.106,11.106,11.1368,11.1472,11.1511,11.1472,11.1395,11.0868,11.0291,10.9955,10.9944,10.9521,10.9598,11.0801,11.0661,11.0752,11.1417,11.1662,11.1722,11.1751,11.1818,11.1875,11.1757,11.1455,11.1044,11.0133,10.9012,10.7641,10.6521,10.542,10.4009,10.2828,10.1886,10.1317,10.1279,10.1279,10.1279,10.1279,10.1279,10.1279,10.1279,10.1327,10.1356,10.1433,10.1433,10.1442,10.1432,10.1461,10.1433,10.1414,10.1404,10.1337,10.1299,10.1289,10.1327,10.1289,10.1279,10.1279,10.1279,10.1164,10.0943,10.0712,10.025,9.9837,9.9529,9.9096,9.8942,9.8788,9.9259,9.9606,9.9442,9.9788,9.9942,10.0289,10.0789,10.0981,10.0596,10.0596,10.0981,10.1019,10.0817,10.0404,9.9904,9.9625,9.9547,9.9659,9.9626,9.9124,10.4607,10.4135,10.5703,10.6395,10.651,10.7367,10.8175,10.8983,11.0021,11.0868,11.1472,11.1511,11.1511,11.1511,11.1511,11.1511,11.1357,11.0829,11.0752,11.106,11.0944,11.0868,11.0829,11.0675,11.0483,11.0252,11.0329,11.0444,11.0252,11.0714,11.1126,11.1357,11.1203,11.1021,11.0214,10.9406,10.9406,10.9906,10.9175,10.9329,10.9955,11.0004,11.0322,11.0882,11.1137,11.1111,11.1103,11.1221,11.123,11.1211,11.145,11.1148,11.05,10.9828,10.866,10.7276,10.6145,10.4655,10.2943,10.1914,10.1481,10.1317,10.1279,10.1279,10.1279,10.1279,10.1279,10.1279,10.1279,10.1279,10.1299,10.1337,10.1356,10.1328,10.1356,10.1347,10.1347,10.1347,10.1327,10.1279,10.1279,10.1279,10.1279,10.1279,10.1279,10.1279,10.1279,10.1202,10.1019,10.0789,10.0327,9.9981,9.9596,9.9298,9.9298,9.9606,9.9798,9.9558,9.9558,9.9827,10.0019,10.0366,10.0404,10.026,10.0375,10.0596,10.0904,10.1164,10.0404,9.975,10.0673,10.0865,10.1008,10.0794,10.0181,10.4135,10.4059,10.5713,10.6395,10.651,10.7328,10.8175,10.906,11.0329,11.1252,11.1434,11.1511,11.1511,11.1511,11.1511,11.1511,11.1395,11.1318,11.1252,11.0637,11.0791,11.0329,11.0291,11.0598,11.0367,10.979,10.9752,10.979,10.9367,10.9867,11.0252,11.0483,11.0637,11.0483,11.006,10.9406,10.9136,10.8983,10.8213,10.7829,10.906,10.8944,10.9021,10.9867,10.9948,10.9969,11.0018,11.0158,11.0246,11.041,11.0729,11.0892,11.0631,11.0185,10.9858,10.8876,10.7904,10.5871,10.4022,10.2684,10.1904,10.1587,10.1394,10.1394,10.1317,10.1279,10.1279,10.1279,10.1279,10.1279,10.1279,10.1289,10.1299,10.1299,10.1289,10.1327,10.1289,10.1289,10.1279,10.1279,10.1279,10.1279,10.1279,10.1279,10.1279,10.1279,10.1279,10.1279,10.1164,10.1164,10.0933,10.0712,10.0366,9.9952,9.9798,10.0029,9.9837,9.9452,9.9606,9.999,10.0135,10.0135,10.0481,10.0635,10.0414,10.0183,10.0558,10.0673,9.9865,9.9635,10.0365,10.0875,10.0827,10.0932,10.1028,10.3905,10.4097,10.5713,10.6395,10.6472,10.7021,10.7867,10.906,11.0714,11.1511,11.1511,11.1511,11.1511,11.1511,11.1511,11.1511,11.1472,11.1098,11.1291,11.0598,11.0791,11.0598,11.0521,11.0444,11.0021,10.9406,10.929,10.9329,10.8559,10.879,10.9252,10.9637,10.9752,10.9713,10.9406,10.8906,10.8444,10.8136,10.7405,10.7203,10.7982,10.8213,10.8175,10.8752,10.8993,10.8993,10.8965,10.9006,10.9145,10.9473,10.9995,11.0555,11.0719,11.0903,11.0758,11.0121,10.8396,10.641,10.4637,10.353,10.2866,10.2443,10.1981,10.1789,10.1625,10.151,10.1356,10.1279,10.1279,10.1279,10.1279,10.1279,10.1279,10.1279,10.1279,10.1279,10.1279,10.1279,10.1279,10.1279,10.1279,10.1279,10.1279,10.1279,10.1279,10.1279,10.1279,10.1279,10.1279,10.1279,10.1279,10.1096,10.0943,10.0635,10.0366,10.0366,10.0019,9.9375,9.976,10.0327,9.9875,9.9827,10.0404,10.0866,10.0442,10.0183,10.0298,10.0135,9.9654,9.9413,9.9613,10.0037,10.0423,10.0606,10.0807,10.3905,10.4135,10.5674,10.6395,10.6395,10.6597,10.7482,10.9021,11.0703,11.1434,11.1472,11.1511,11.1511,11.1511,11.1511,11.1511,11.1434,11.0791,11.0829,11.0983,11.0829,11.0791,11.0791,11.0675,10.9983,10.929,10.8906,10.8713,10.7867,10.829,10.8713,10.8906,10.906,10.8983,10.8713,10.829,10.7944,10.7636,10.7098,10.6982,10.7405,10.7598,10.779,10.8175,10.8367,10.8406,10.8454,10.858,10.9003,10.9496,11.0087,11.0705,11.117,11.1664,11.1201,11.0073,10.7981,10.6467,10.5281,10.4405,10.3982,10.3597,10.302,10.2751,10.2289,10.175,10.1394,10.1279,10.1279,10.1279,10.1279,10.1279,10.1279,10.1279,10.1279,10.1279,10.1279,10.1279,10.1279,10.1279,10.1279,10.1279,10.1279,10.1279,10.1279,10.1279,10.1279,10.1279,10.1279,10.1279,10.1279,10.1279,10.1202,10.1241,10.1048,10.0779,10.0635,10.0135,10.0442,10.0827,10.0173,9.9827,10.0481,10.0789,10.0327,10.0067,9.9904,9.9846,9.9769,9.9556,9.9265,9.9097,9.9427,9.9659,9.989,10.3905,10.4059,10.5713,10.6395,10.6472,10.7049,10.7944,10.8983,11.0137,11.0868,11.1511,11.1511,11.1511,11.1511,11.1511,11.1511,11.1434,11.1214,11.0829,11.0791,11.0944,11.0829,11.0829,11.0829,11.0098,10.9329,10.8713,10.8213,10.7251,10.7636,10.8021,10.8098,10.8444,10.8406,10.8098,10.779,10.7675,10.7444,10.6751,10.6713,10.6741,10.6867,10.7136,10.7251,10.7444,10.7482,10.7521,10.7944,10.8136,10.7839,10.9437,11.0228,10.9612,11.0749,11.1193,11.0231,10.8506,10.6974,10.6097,10.5251,10.48,10.4646,10.3982,10.3212,10.2635,10.1933,10.1394,10.1279,10.1279,10.1279,10.1279,10.1279,10.1279,10.1279,10.1279,10.1279,10.1279,10.1279,10.1279,10.1279,10.1279,10.1279,10.1279,10.1279,10.1279,10.1279,10.1279,10.1279,10.1279,10.1279,10.1279,10.1279,10.1269,10.1269,10.1308,10.1077,10.1087,10.1058,10.1164,10.1241,10.0894,10.0712,10.0866,10.0789,10.0558,9.9942,9.9288,9.9375,9.9663,9.9182,9.8805,9.8556,9.8451,9.8866,9.9041,10.3597,10.4059,10.5328,10.6087,10.6472,10.6944,10.7675,10.8521,10.9686,11.0714,11.1472,11.1511,11.1511,11.1511,11.1511,11.1511,11.1511,11.1434,11.1214,11.1137,11.1214,11.1137,11.1098,11.1021,11.0329,10.9483,10.8636,10.8059,10.6944,10.679,10.7175,10.7213,10.7752,10.7598,10.729,10.7098,10.7136,10.6982,10.6703,10.6472,10.6395,10.6395,10.6395,10.651,10.6636,10.6867,10.6982,10.7559,10.7482,10.728,10.9136,10.9367,10.9329,11.0714,11.0752,10.9878,10.9301,10.7762,10.6674,10.6367,10.5944,10.5482,10.4828,10.402,10.302,10.2164,10.1625,10.1279,10.1279,10.1279,10.1279,10.1279,10.1279,10.1279,10.1279,10.1279,10.1279,10.1279,10.1279,10.1279,10.1279,10.1279,10.1279,10.1279,10.1279,10.1279,10.1279,10.1279,10.1279,10.1279,10.1279,10.1279,10.1269,10.1259,10.125,10.1268,10.1171,10.1143,10.1221,10.1259,10.1269,10.1241,10.1125,10.101,10.0904,10.0346,9.9865,9.9538,9.9567,9.9133,9.8779,9.8424,9.8395,9.8689,9.8701,10.3135,10.3982,10.4828,10.5751,10.6318,10.6433,10.6944,10.7829,10.9367,11.056,11.1242,11.1472,11.1511,11.1511,11.1511,11.1511,11.1395,11.1329,11.1137,11.1329,11.1137,11.0983,11.0868,11.1214,11.0098,10.9252,10.8521,10.7829,10.678,10.6549,10.6587,10.6433,10.6549,10.6626,10.6664,10.6597,10.6626,10.6587,10.651,10.6395,10.6395,10.6395,10.6472,10.6703,10.7175,10.7675,10.779,10.7982,10.8175,10.8329,10.8675,10.8983,10.9713,11.0444,10.9983,10.9598,10.9213,10.8329,10.7251,10.6828,10.6713,10.6213,10.5597,10.4751,10.3712,10.2481,10.1856,10.1356,10.1279,10.1279,10.1279,10.1279,10.1279,10.1279,10.1279,10.1279,10.1279,10.1279,10.1279,10.1279,10.1279,10.1279,10.1279,10.1279,10.1279,10.1279,10.1279,10.1279,10.1279,10.1279,10.1269,10.1269,10.1269,10.125,10.1228,10.1198,10.1157,10.1129,10.1218,10.1228,10.1208,10.121,10.1279,10.1163,10.0998,10.1085,10.0806,10.0383,9.9977,9.9777,9.9327,9.8556,9.8478,9.8862,9.8447,10.3135,10.402,10.5482,10.6251,10.6395,10.6395,10.6895,10.7752,10.8752,10.9675,11.0521,11.1175,11.1511,11.1511,11.1511,11.1472,11.1329,11.1021,11.0598,11.056,11.0598,11.0521,10.9944,11.0406,10.956,10.8521,10.7829,10.7482,10.6626,10.6395,10.6395,10.6395,10.6395,10.6395,10.6395,10.6395,10.6395,10.6395,10.6395,10.6395,10.6395,10.651,10.6636,10.7175,10.779,10.8213,10.8559,10.9213,10.8713,10.8329,10.9252,10.9444,10.929,10.9483,10.9367,10.8944,10.8713,10.8136,10.7482,10.7021,10.6751,10.6367,10.5713,10.5213,10.4366,10.3058,10.2125,10.1664,10.1356,10.1356,10.1279,10.1279,10.1279,10.1279,10.1279,10.1279,10.1279,10.1279,10.1279,10.1279,10.1279,10.1279,10.1279,10.1279,10.1279,10.1279,10.1279,10.1279,10.1279,10.1269,10.1259,10.1259,10.1279,10.125,10.1208,10.1157,10.1126,10.1064,10.1074,10.1085,10.1085,10.1126,10.1119,10.1098,10.1078,10.1046,10.1025,10.0928,10.0584,10.0284,10.0057,9.9391,9.9299,9.9631,9.8757,10.2751,10.3982,10.529,10.6059,10.6356,10.6395,10.6703,10.7213,10.8021,10.8829,10.979,11.0868,11.1511,11.1511,11.1511,11.1214,11.1098,11.0906,11.0252,10.9944,11.0252,11.0252,11.006,10.979,10.9367,10.8444,10.7405,10.6828,10.6433,10.6395,10.6395,10.6395,10.6395,10.6395,10.6395,10.6395,10.6433,10.6395,10.6395,10.6433,10.651,10.6751,10.7367,10.7982,10.8636,10.8983,10.9329,10.9983,10.9598,10.8944,10.9406,10.8944,10.8829,10.9252,10.906,10.8752,10.8521,10.829,10.7482,10.6972,10.6674,10.629,10.6059,10.5674,10.503,10.3828,10.3097,10.2597,10.2087,10.201,10.1433,10.1279,10.1279,10.1279,10.1279,10.1279,10.1279,10.1279,10.1279,10.1279,10.1279,10.1279,10.1279,10.1279,10.1279,10.1279,10.1279,10.1259,10.1259,10.121,10.121,10.121,10.121,10.1218,10.1126,10.1106,10.1106,10.1004,10.0935,10.0913,10.0913,10.0919,10.0951,10.0886,10.0842,10.082,10.0798,10.0852,10.0769,10.0398,10.0392,10.0285,10.0329,10.0215,9.9453,10.2366,10.3751,10.4713,10.552,10.6203,10.6356,10.6395,10.6587,10.7328,10.8098,10.8944,11.056,11.1291,11.1511,11.1472,11.0944,11.0675,11.0791,11.0137,10.9713,11.0329,10.9829,10.9598,10.9598,10.8867,10.8098,10.7098,10.6703,10.6395,10.6395,10.6395,10.6395,10.6395,10.6395,10.6433,10.651,10.6626,10.6549,10.6549,10.6636,10.6867,10.7213,10.7867,10.8752,10.956,11.0098,11.0252,11.0367,11.0367,10.9829,10.9367,10.879,10.8636,10.906,10.8867,10.8636,10.8752,10.8175,10.7367,10.7087,10.6828,10.6597,10.6472,10.6097,10.5405,10.4905,10.4174,10.3597,10.3097,10.2558,10.1971,10.151,10.151,10.1394,10.1394,10.1317,10.1279,10.1279,10.1269,10.1269,10.1269,10.1269,10.125,10.125,10.124,10.125,10.124,10.124,10.121,10.1157,10.1057,10.1116,10.1126,10.1074,10.1032,10.0989,10.0951,10.0842,10.073,10.0708,10.0708,10.0764,10.0742,10.0604,10.0569,10.058,10.066,10.0789,10.0614,10.0604,10.1075,10.1192,10.0647,10.0505,10.0185,10.252,10.2981,10.4482,10.5213,10.5443,10.6097,10.6395,10.6549,10.729,10.7829,10.8329,10.9637,11.0752,11.1511,11.1511,11.1214,11.0906,11.0868,10.9983,10.9252,10.9675,10.906,10.8598,10.8636,10.7713,10.7098,10.6664,10.651,10.6395,10.6395,10.6395,10.6395,10.6395,10.6433,10.651,10.6741,10.7049,10.6818,10.701,10.729,10.7098,10.7367,10.7636,10.8329,10.9021,11.006,11.0791,11.1214,11.0829,11.0175,10.9483,10.8944,10.879,10.8944,10.879,10.8482,10.8598,10.8021,10.7328,10.6933,10.6587,10.651,10.6395,10.6356,10.5982,10.5982,10.529,10.4713,10.4212,10.3712,10.3135,10.2443,10.2212,10.1894,10.1741,10.1433,10.1279,10.1259,10.124,10.123,10.121,10.118,10.1157,10.1137,10.1116,10.1106,10.1025,10.1025,10.1015,10.0962,10.0897,10.0908,10.0919,10.1,10.0989,10.0798,10.0742,10.0639,10.0533,10.0474,10.0486,10.0604,10.0557,10.0352,10.0328,10.0352,10.0468,10.052,10.0938,10.1103,10.1954,10.2169,10.1392,10.0654,10.0245]}]]